[[{"header":{"parameterUnit":"m.s-1","parameterCategory":1,"la1":30.6,"la2":28.766,"lo1":-90.7593,"lo2":-88.6598,"dy":0.0162,"dx":0.0183,"nx":116,"ny":114,"refTime":"2024-05-01T12:00:00:Z","depth":0,"parameterNumber":2,"parameterNumberName":"U-component_of_WINDS"},"data":[0.0,0.0,0.0,0.0,0.0,0.0,0.0,0.0,0.0,0.0,0.0,0.0,0.0,0.0,0.0,0.0,0.0,0.0,0.0,0.0,0.0,0.0,0.0,0.0,0.0,0.0,0.0,0.0,0.0,0.0,0.0,0.0,0.0,0.0,0.0,0.0,0.0,0.0,0.0,0.0,0.0,0.0,0.0,0.0,0.0,0.0,0.0,0.0,0.0,0.0,0.0,0.0,0.0,0.0,0.0,0.0,0.0,0.0,0.0,0.0,0.0,0.0,0.0,0.0,0.0,0.0,0.0,0.0,0.0,0.0,0.0,0.0,0.0,0.0,0.0,0.0,0.0,0.0,0.0,0.0,0.0,0.0,0.0,0.0,0.0,0.0,0.0,0.0,0.0,0.0,0.0,0.0,0.0,0.0,0.0,0.0,0.0,0.0,0.0,0.0,0.0,0.0,0.0,0.0,0.0,0.0,0.0,0.0,0.0,0.0,0.0,0.0,0.0,0.0,0.0,0.0,0.0,0.0,0.0,0.0,0.0,0.0,0.0,0.0,0.0,0.0,0.0,0.0,0.0,0.0,0.0,0.0,0.0,0.0,0.0,0.0,0.0,0.0,0.0,0.0,0.0,0.0,0.0,0.0,0.0,0.0,0.0,0.0,0.0,0.0,0.0,0.0,0.0,0.0,0.0,0.0,0.0,0.0,0.0,0.0,0.0,0.0,0.0,0.0,0.0,0.0,0.0,0.0,0.0,0.0,0.0,0.0,0.0,0.0,0.0,0.0,0.0,0.0,0.0,0.0,0.0,0.0,0.0,0.0,0.0,0.0,0.0,0.0,0.0,0.0,0.0,0.0,0.0,0.0,0.0,0.0,0.0,0.0,0.0,0.0,0.0,0.0,0.0,0.0,0.0,0.0,0.0,0.0,0.0,0.0,0.0,0.0,0.0,0.0,0.0,0.0,0.0,0.0,0.0,0.0,0.0,0.0,0.0,0.0,0.0,0.0,0.0,0.0,0.0,0.0,0.0,0.0,0.0,0.0,0.0,0.0,0.0,0.0,0.0,0.0,0.0,0.0,0.0,0.0,0.0,0.0,0.0,0.0,0.0,0.0,0.0,0.0,0.0,0.0,0.0,0.0,0.0,0.0,0.0,0.0,0.0,0.0,0.0,0.0,0.0,0.0,0.0,0.0,0.0,0.0,0.0,0.0,0.0,0.0,0.0,0.0,0.0,0.0,0.0,0.0,0.0,0.0,0.0,0.0,0.0,0.0,0.0,0.0,0.0,0.0,0.0,0.0,0.0,0.0,0.0,0.0,0.0,0.0,0.0,0.0,0.0,0.0,0.0,0.0,0.0,0.0,0.0,0.0,0.0,0.0,0.0,0.0,0.0,0.0,0.0,0.0,0.0,0.0,0.0,0.0,0.0,0.0,0.0,0.0,0.0,0.0,0.0,0.0,0.0,0.0,0.0,0.0,0.0,0.0,0.0,0.0,0.0,0.0,0.0,0.0,0.0,0.0,0.0,0.0,0.0,0.0,0.0,0.0,0.0,0.0,0.0,0.0,0.0,0.0,0.0,0.0,0.0,0.0,0.0,0.0,0.0,0.0,0.0,0.0,0.0,0.0,0.0,0.0,0.0,0.0,0.0,0.0,0.0,0.0,0.0,0.0,0.0,0.0,0.0,0.0,0.0,0.0,0.0,0.0,0.0,0.0,0.0,0.0,0.0,0.0,0.0,0.0,0.0,0.0,0.0,0.0,0.0,0.0,0.0,0.0,0.0,0.0,0.0,0.0,0.0,0.0,0.0,0.0,0.0,0.0,0.0,0.0,0.0,0.0,0.0,0.0,0.0,0.0,0.0,0.0,0.0,0.0,0.0,0.0,0.0,0.0,0.0,0.0,0.0,0.0,0.0,0.0,0.0,0.0,0.0,0.0,0.0,0.0,0.0,0.0,0.0,0.0,0.0,0.0,0.0,0.0,0.0,0.0,0.0,0.0,0.0,0.0,0.0,0.0,0.0,0.0,0.0,0.0,0.0,0.0,0.0,0.0,0.0,0.0,0.0,0.0,0.0,0.0,0.0,0.0,0.0,0.0,0.0,0.0,0.0,0.0,0.0,0.0,0.0,0.0,0.0,0.0,0.0,0.0,0.0,0.0,0.0,0.0,0.0,0.0,0.0,0.0,0.0,0.0,0.0,0.0,0.0,0.0,0.0,0.0,0.0,0.0,0.0,0.0,0.0,0.0,0.0,0.0,0.0,0.0,0.0,0.0,0.0,0.0,0.0,0.0,0.0,0.0,0.0,0.0,0.0,0.0,0.0,0.0,0.0,0.0,0.0,0.0,0.0,0.0,0.0,0.0,0.0,0.0,0.0,0.0,0.0,0.0,0.0,0.0,0.0,0.0,0.0,0.0,0.0,0.0,0.0,0.0,0.0,0.0,0.0,0.0,0.0,0.0,0.0,0.0,0.0,0.0,0.0,0.0,0.0,0.0,0.0,0.0,0.0,0.0,0.0,0.0,0.0,0.0,0.0,0.0,0.0,0.0,0.0,0.0,0.0,0.0,0.0,0.0,0.0,0.0,0.0,0.0,0.0,0.0,0.0,0.0,0.0,0.0,0.0,0.0,0.0,0.0,0.0,0.0,0.0,0.0,0.0,0.0,0.0,0.0,0.0,0.0,0.0,0.0,0.0,0.0,0.0,0.0,0.0,0.0,0.0,0.0,0.0,0.0,0.0,0.0,0.0,0.0,0.0,0.0,0.0,0.0,0.0,0.0,0.0,0.0,0.0,0.0,0.0,0.0,0.0,0.0,0.0,0.0,0.0,0.0,0.0,0.0,0.0,0.0,0.0,0.0,0.0,0.0,0.0,0.0,0.0,0.0,0.0,0.0,0.0,0.0,0.0,0.0,0.0,0.0,0.0,0.0,0.0,0.0,0.0,0.0,0.0,0.0,0.0,0.0,0.0,0.0,0.0,0.0,0.0,0.0,0.0,0.0,0.0,0.0,0.0,0.0,0.0,0.0,0.0,0.0,0.0,0.0,0.0,0.0,0.0,0.0,0.0,0.0,0.0,0.0,0.0,0.0,0.0,0.0,0.0,0.0,0.0,0.0,0.0,0.0,0.0,0.0,0.0,0.0,0.0,0.0,0.0,0.0,0.0,0.0,0.0,0.0,0.0,0.0,0.0,0.0,0.0,0.0,0.0,0.0,0.0,0.0,0.0,0.0,0.0,0.0,0.0,0.0,0.0,0.0,0.0,0.0,0.0,0.0,0.0,0.0,0.0,0.0,0.0,0.0,0.0,0.0,0.0,0.0,0.0,0.0,0.0,0.0,0.0,0.0,0.0,0.0,0.0,0.0,0.0,0.0,0.0,0.0,0.0,0.0,0.0,0.0,0.0,0.0,0.0,0.0,0.0,0.0,0.0,0.0,0.0,0.0,0.0,0.0,0.0,0.0,0.0,0.0,0.0,0.0,0.0,0.0,0.0,0.0,0.0,0.0,0.0,0.0,0.0,0.0,0.0,0.0,0.0,0.0,0.0,0.0,0.0,0.0,0.0,0.0,0.0,0.0,0.0,0.0,0.0,0.0,0.0,0.0,0.0,0.0,0.0,0.0,0.0,0.0,0.0,0.0,0.0,0.0,0.0,0.0,0.0,0.0,0.0,0.0,0.0,0.0,0.0,0.0,0.0,0.0,0.0,0.0,0.0,0.0,0.0,0.0,0.0,0.0,0.0,0.0,0.0,0.0,0.0,0.0,0.0,0.0,0.0,0.0,0.0,0.0,0.0,0.0,0.0,0.0,0.0,0.0,0.0,0.0,0.0,0.0,0.0,0.0,0.0,0.0,0.0,0.0,0.0,0.0,0.0,0.0,0.0,0.0,0.0,0.0,0.0,0.0,0.0,0.0,0.0,0.0,0.0,0.0,0.0,0.0,0.0,0.0,0.0,0.0,0.0,0.0,0.0,0.0,0.0,0.0,0.0,0.0,0.0,0.0,0.0,0.0,0.0,0.0,0.0,0.0,0.0,0.0,0.0,0.0,0.0,0.0,0.0,0.0,0.0,0.0,0.0,0.0,0.0,0.0,0.0,0.0,0.0,0.0,0.0,0.0,0.0,0.0,0.0,0.0,0.0,0.0,0.0,0.0,0.0,0.0,0.0,0.0,0.0,0.0,0.0,0.0,0.0,0.0,0.0,0.0,0.0,0.0,0.0,0.0,0.0,0.0,0.0,0.0,0.0,0.0,0.0,0.0,0.0,0.0,0.0,0.0,0.0,0.0,0.0,0.0,0.0,0.0,0.0,0.0,0.0,0.0,0.0,0.0,0.0,0.0,0.0,0.0,0.0,0.0,0.0,0.0,0.0,0.0,0.0,0.0,0.0,0.0,0.0,0.0,0.0,0.0,0.0,0.0,0.0,0.0,0.0,0.0,0.0,0.0,0.0,0.0,0.0,0.0,0.0,0.0,0.0,0.0,0.0,0.0,0.0,0.0,0.0,0.0,0.0,0.0,0.0,0.0,0.0,0.0,0.0,0.0,0.0,0.0,0.0,0.0,0.0,0.0,0.0,0.0,0.0,0.0,0.0,0.0,0.0,0.0,0.0,0.0,0.0,0.0,0.0,0.0,0.0,0.0,0.0,0.0,0.0,0.0,0.0,0.0,0.0,0.0,0.0,0.0,0.0,0.0,0.0,0.0,0.0,0.0,0.0,0.0,0.0,0.0,0.0,0.0,0.0,0.0,0.0,0.0,0.0,0.0,0.0,0.0,0.0,0.0,0.0,0.0,0.0,0.0,0.0,0.0,0.0,0.0,0.0,0.0,0.0,0.0,0.0,0.0,0.0,0.0,0.0,0.0,0.0,0.0,0.0,0.0,0.0,0.0,0.0,0.0,0.0,0.0,0.0,0.0,0.0,0.0,0.0,0.0,0.0,0.0,0.0,0.0,0.0,0.0,0.0,0.0,0.0,0.0,0.0,0.0,0.0,0.0,0.0,0.0,0.0,0.0,0.0,0.0,0.0,0.0,0.0,0.0,0.0,0.0,0.0,0.0,0.0,0.0,0.0,0.0,0.0,0.0,0.0,0.0,0.0,0.0,0.0,0.0,0.0,0.0,0.0,0.0,0.0,0.0,0.0,0.0,0.0,0.0,0.0,0.0,0.0,0.0,0.0,0.0,0.0,0.0,0.0,0.0,0.0,0.0,0.0,0.0,0.0,0.0,0.0,0.0,0.0,0.0,0.0,0.0,0.0,0.0,0.0,0.0,0.0,0.0,0.0,0.0,0.0,0.0,0.0,0.0,0.0,0.0,0.0,0.0,0.0,0.0,0.0,0.0,0.0,0.0,0.0,0.0,0.0,0.0,0.0,0.0,0.0,0.0,0.0,0.0,0.0,0.0,0.0,0.0,0.0,0.0,0.0,0.0,0.0,0.0,0.0,0.0,0.0,0.0,0.0,0.0,0.0,0.0,0.0,0.0,0.0,0.0,0.0,0.0,0.0,0.0,0.0,0.0,0.0,0.0,0.0,0.0,0.0,0.0,0.0,0.0,0.0,0.0,0.0,0.0,0.0,0.0,0.0,0.0,0.0,0.0,0.0,0.0,0.0,0.0,0.0,0.0,0.0,0.0,0.0,0.0,0.0,0.0,0.0,0.0,0.0,0.0,0.0,0.0,0.0,0.0,0.0,0.0,0.0,0.0,0.0,0.0,0.0,0.0,0.0,0.0,0.0,0.0,0.0,0.0,0.0,0.0,0.0,0.0,0.0,0.0,0.0,0.0,0.0,0.0,0.0,0.0,0.0,0.0,0.0,0.0,0.0,0.0,0.0,0.0,0.0,0.0,0.0,0.0,0.0,0.0,0.0,0.0,0.0,0.0,0.0,0.0,0.0,0.0,0.0,0.0,0.0,0.0,0.0,0.0,0.0,0.0,0.0,0.0,0.0,0.0,0.0,0.0,0.0,0.0,0.0,0.0,0.0,0.0,0.0,0.0,0.0,0.0,0.0,0.0,0.0,0.0,0.0,0.0,0.0,0.0,0.0,0.0,0.0,0.0,0.0,0.0,0.0,0.0,0.0,0.0,0.0,0.0,0.0,0.0,0.0,0.0,0.0,0.0,-3.2951,-3.1897,0.0,0.0,0.0,0.0,0.0,0.0,0.0,0.0,0.0,0.0,0.0,0.0,0.0,0.0,0.0,0.0,0.0,0.0,0.0,0.0,0.0,0.0,0.0,-3.3838,-3.4783,-3.4514,-3.4936,-3.516,-3.5022,0.0,0.0,0.0,-3.516,-3.5368,-3.5118,-3.45,-3.4812,-3.608,-3.4507,-3.4634,-3.6335,-3.7297,-3.8272,-3.927,0.0,0.0,0.0,0.0,0.0,0.0,0.0,0.0,0.0,0.0,0.0,0.0,0.0,0.0,0.0,0.0,0.0,0.0,0.0,0.0,0.0,0.0,0.0,0.0,0.0,0.0,0.0,0.0,0.0,0.0,0.0,0.0,0.0,0.0,0.0,0.0,0.0,0.0,0.0,0.0,0.0,0.0,0.0,0.0,0.0,0.0,0.0,0.0,0.0,0.0,0.0,0.0,0.0,0.0,0.0,0.0,0.0,0.0,0.0,0.0,0.0,0.0,0.0,0.0,0.0,0.0,0.0,0.0,0.0,0.0,-3.1397,-3.121,0.0,0.0,0.0,0.0,0.0,0.0,0.0,0.0,0.0,0.0,0.0,0.0,0.0,0.0,0.0,0.0,0.0,0.0,0.0,0.0,0.0,-3.1496,-3.1942,-3.3435,-3.4432,-3.4575,-3.4784,-3.4784,-3.4497,-3.4929,0.0,-3.3802,-3.5215,-3.5261,-3.3652,-3.396,-3.4263,-3.4596,-3.3458,-3.3505,-3.467,-3.6638,-3.7971,-3.8725,-3.9646,0.0,0.0,0.0,0.0,0.0,0.0,0.0,0.0,0.0,0.0,0.0,0.0,0.0,0.0,0.0,0.0,0.0,0.0,0.0,0.0,0.0,0.0,0.0,0.0,0.0,0.0,0.0,0.0,0.0,0.0,0.0,0.0,0.0,0.0,0.0,0.0,0.0,0.0,0.0,0.0,0.0,0.0,0.0,0.0,0.0,0.0,0.0,0.0,0.0,0.0,0.0,0.0,0.0,0.0,0.0,0.0,0.0,0.0,0.0,0.0,0.0,0.0,0.0,-3.064,-3.0189,-2.9914,-2.9098,-2.8652,-2.8592,-2.9703,-3.022,-3.01,-2.788,0.0,0.0,0.0,0.0,0.0,0.0,0.0,0.0,0.0,0.0,0.0,0.0,0.0,0.0,0.0,0.0,0.0,0.0,0.0,-3.0772,-3.2261,-3.2852,-3.3182,-3.3331,-3.4089,-3.418,-3.3302,-3.3679,-3.3967,-3.4033,-3.3793,-3.3672,-3.3679,-3.2966,-3.273,-3.2994,-3.321,-3.3663,-3.4374,-3.507,-3.5272,-3.5115,-3.8163,-3.974,-4.0069,0.0,0.0,0.0,0.0,0.0,0.0,0.0,0.0,0.0,0.0,0.0,0.0,0.0,0.0,0.0,0.0,0.0,0.0,0.0,0.0,0.0,0.0,0.0,0.0,0.0,0.0,0.0,0.0,0.0,0.0,0.0,0.0,0.0,0.0,0.0,0.0,0.0,0.0,0.0,0.0,0.0,-2.7875,-2.9218,0.0,0.0,0.0,0.0,0.0,0.0,0.0,0.0,0.0,0.0,0.0,0.0,0.0,-3.1489,-3.2114,-3.0682,-2.9866,-2.9712,-2.9642,-2.9226,-2.847,-2.8403,-2.7891,-2.7093,-2.726,0.0,-2.7659,-2.6239,0.0,0.0,0.0,0.0,0.0,0.0,0.0,0.0,0.0,0.0,0.0,0.0,0.0,0.0,0.0,0.0,0.0,0.0,0.0,0.0,0.0,-3.1402,-3.1686,-3.1757,-3.2299,-3.2625,-3.2544,-3.299,-3.3165,-3.2978,-3.3236,-3.2903,-3.187,-3.1683,-3.1319,-3.0725,-3.1478,-3.1836,-3.1918,-3.2619,-3.2945,-3.2978,-3.4803,-3.6377,-3.764,-3.7379,0.0,0.0,0.0,0.0,0.0,0.0,0.0,0.0,0.0,0.0,0.0,0.0,0.0,0.0,0.0,0.0,0.0,0.0,0.0,0.0,0.0,0.0,0.0,0.0,0.0,0.0,0.0,0.0,0.0,0.0,0.0,0.0,0.0,0.0,0.0,0.0,0.0,0.0,0.0,-2.7078,-2.8436,-2.9308,-2.8843,-2.8399,0.0,0.0,0.0,0.0,0.0,0.0,0.0,0.0,0.0,-2.9624,-2.9547,-2.9678,-3.0074,-2.9021,-2.8405,-2.8282,-2.7911,-2.7538,-2.7131,-2.7079,-2.679,-2.6316,-2.5794,-2.581,-2.6232,-2.6171,-2.6179,-2.6154,0.0,0.0,0.0,0.0,-2.373,-2.3857,0.0,0.0,0.0,0.0,0.0,0.0,0.0,0.0,0.0,0.0,0.0,0.0,-2.9567,-2.9806,-2.9922,-2.989,-3.0536,-3.0976,-3.1,-3.174,-3.1929,-3.1353,-3.2032,-3.1541,-2.9711,-2.9823,-2.9584,-2.8967,-2.962,-2.9914,-2.9863,-3.0555,-3.087,-3.0887,-3.1573,-3.3119,-3.52,-3.5096,-3.4534,-3.3604,0.0,0.0,0.0,0.0,0.0,0.0,0.0,0.0,0.0,0.0,0.0,0.0,0.0,0.0,0.0,0.0,0.0,0.0,0.0,0.0,0.0,0.0,0.0,0.0,0.0,0.0,0.0,0.0,0.0,0.0,0.0,0.0,0.0,0.0,0.0,0.0,0.0,-2.7877,-2.8764,-2.9271,-2.8677,-2.7946,0.0,0.0,0.0,0.0,0.0,0.0,-2.4891,-2.5828,-2.6594,-2.7026,-2.7656,-2.8067,-2.8215,-2.7517,-2.7043,-2.6823,-2.6367,-2.6085,-2.5994,-2.5906,-2.5815,-2.5635,-2.4948,-2.4671,-2.4759,-2.5721,-2.5782,-2.5246,-2.4944,-2.4807,-2.4702,-2.3732,-2.3573,-2.3805,0.0,0.0,0.0,0.0,0.0,0.0,0.0,0.0,0.0,0.0,0.0,-2.6817,-2.8653,-2.8254,-2.7785,-2.7677,-2.9316,-2.9591,-2.7856,-2.9298,-2.9946,-2.9264,-2.9367,-2.8856,-2.7663,-2.6981,-2.7215,-2.8334,-2.8263,-2.8646,-2.9418,-2.9414,-2.9006,-2.8319,-2.925,-3.0931,-3.3012,-3.2248,-3.1746,-3.1249,-2.8739,0.0,0.0,0.0,0.0,0.0,0.0,0.0,0.0,0.0,0.0,0.0,0.0,0.0,0.0,0.0,0.0,0.0,0.0,0.0,0.0,0.0,0.0,0.0,0.0,0.0,0.0,0.0,0.0,0.0,0.0,0.0,0.0,0.0,0.0,0.0,0.0,0.0,0.0,-2.9666,-2.8865,0.0,0.0,0.0,0.0,-2.45,-2.3487,-2.2801,-2.2671,-2.344,-2.4161,-2.4747,-2.5604,-2.6232,-2.6613,-2.601,-2.5562,-2.5317,-2.5419,-2.5346,-2.515,-2.5211,-2.5114,-2.4855,-2.4823,-2.4006,-2.282,-2.4023,-2.4571,-2.4615,-2.4216,-2.3943,-2.3622,-2.2445,-2.226,-2.2743,0.0,0.0,0.0,-2.1989,-2.3099,-2.3885,-2.3769,-2.509,-2.6199,-2.6425,-2.6029,-2.599,-2.6715,-2.5952,-2.5672,-2.6353,-2.6706,-2.6942,-2.7096,-2.7531,-2.7816,-2.786,-2.7155,-2.631,-2.5325,-2.5051,-2.5024,-2.5211,-2.5684,-2.5823,-2.5619,-2.6116,-2.6305,-2.6235,-2.6453,-2.7287,-2.8576,-2.9517,-2.9315,-2.8279,-2.6854,-2.632,0.0,0.0,0.0,0.0,0.0,0.0,0.0,0.0,0.0,0.0,0.0,0.0,0.0,0.0,0.0,0.0,0.0,0.0,0.0,0.0,0.0,0.0,0.0,0.0,0.0,0.0,0.0,0.0,0.0,0.0,0.0,0.0,0.0,0.0,0.0,0.0,0.0,-2.8593,-2.7768,0.0,-2.6553,-2.5232,-2.4144,-2.3515,-2.2672,-2.2336,-2.2681,-2.292,-2.3313,-2.3869,-2.4748,-2.5183,-2.515,-2.4885,-2.4619,-2.4364,-2.4405,-2.4364,-2.4199,-2.4225,-2.3892,-2.3325,-2.3243,-2.2667,-2.1866,-2.239,-2.2652,-2.2746,-2.2948,-2.3355,-2.373,-2.2824,-2.3017,-2.3747,0.0,-2.0439,0.0,-2.1891,-2.2851,-2.361,-2.3973,-2.4981,-2.5639,-2.5445,-2.497,-2.4591,-2.438,-2.3825,-2.3783,-2.4452,-2.464,-2.4936,-2.5521,-2.5713,-2.5827,-2.5792,-2.4659,-2.3741,-2.3167,-2.3125,-2.2976,-2.2605,-2.3434,-2.3477,-2.2883,-2.3216,-2.3548,-2.3796,-2.3547,-2.3723,-2.4304,-2.5591,-2.6045,-2.5807,-2.455,-2.4042,-2.3997,0.0,0.0,0.0,0.0,0.0,0.0,0.0,0.0,0.0,0.0,0.0,0.0,0.0,0.0,0.0,0.0,0.0,0.0,0.0,0.0,0.0,0.0,0.0,0.0,0.0,0.0,0.0,0.0,0.0,0.0,0.0,0.0,0.0,0.0,-2.6823,-2.6794,-2.7501,-2.6657,-2.5849,-2.5445,-2.4246,-2.3361,-2.3008,-2.2182,-2.1927,-2.2468,-2.2661,-2.2871,-2.307,-2.3922,-2.4214,-2.3834,-2.3858,-2.3687,-2.3376,-2.3296,-2.3231,-2.3084,-2.2864,-2.2454,-2.1945,-2.1685,-2.122,-2.07,-2.0821,-2.0814,-2.085,-2.1848,-2.259,-2.3041,-2.2719,-2.3175,-2.398,-1.8705,-1.9829,-2.1053,-2.2069,-2.2692,-2.351,-2.4802,-2.5046,-2.4856,-2.4297,-2.3374,-2.2506,-2.1743,-2.1998,-2.2164,-2.2009,-2.3197,-2.3672,-2.292,-2.3833,-2.395,-2.2898,-2.1792,-2.1219,-2.1184,-2.112,-2.1004,-2.0786,-2.1593,-2.1809,-2.143,-2.0941,-2.0819,-2.0989,-2.0603,-2.0419,-2.047,-2.0568,-2.1911,-2.3805,-2.1752,-2.128,-2.1643,0.0,0.0,0.0,0.0,0.0,0.0,0.0,0.0,0.0,0.0,0.0,0.0,0.0,0.0,0.0,0.0,0.0,0.0,0.0,0.0,0.0,0.0,0.0,0.0,0.0,0.0,0.0,0.0,0.0,0.0,0.0,0.0,0.0,-2.5519,-2.6168,-2.6523,-2.6501,-2.5599,-2.5004,-2.5142,-2.3345,-2.242,-2.3045,-2.1952,-2.144,-2.1879,-2.2501,-2.2658,-2.2224,-2.3079,-2.3268,-2.2672,-2.2838,-2.2696,-2.2248,-2.2109,-2.1955,-2.1824,-2.1158,-2.0863,-2.0813,-2.0249,-1.9739,-1.9251,-1.9298,-1.9132,-1.9064,-2.0898,-2.1597,-2.1573,-2.1996,-2.2567,-2.3279,-1.7851,-1.8643,-1.9536,-2.0587,-2.1742,-2.2621,-2.2879,-2.3713,-2.3898,-2.2708,-2.2608,-2.2198,-2.0949,-2.0573,-2.0799,-2.1782,-2.1549,-2.165,-2.2339,-2.2265,-2.1419,-1.9731,-1.9486,-1.9249,-1.8925,-1.8644,-1.85,-1.8518,-1.8981,-1.867,-1.7616,-1.8511,-1.8908,-1.892,-1.8768,-1.8926,-1.9302,-1.8706,-1.867,-1.9092,-1.9475,-1.9687,-1.9768,0.0,0.0,0.0,0.0,0.0,0.0,0.0,0.0,0.0,0.0,0.0,0.0,0.0,0.0,0.0,0.0,0.0,0.0,0.0,0.0,0.0,0.0,0.0,0.0,0.0,0.0,0.0,0.0,0.0,0.0,0.0,-2.2783,-2.2994,-2.4793,-2.4767,-2.452,-2.4455,-2.4093,-2.3864,-2.3886,-2.2559,-2.1974,-2.2628,-2.1282,-2.0858,-2.1856,-2.1879,-2.1952,-2.205,-2.2154,-2.2077,-2.1752,-2.1524,-2.1293,-2.1062,-2.0915,-2.0756,-2.0508,-2.0326,-1.988,-1.921,-1.8719,-1.8313,-1.7978,-1.7652,-1.7801,-1.8364,-1.9609,-2.0914,-2.2002,-2.1408,-2.2087,-2.3485,-1.7285,-1.8042,-1.8932,-1.9984,-2.0824,-2.1618,-2.2282,-2.2812,-2.2734,-2.1618,-2.1655,-2.1032,-1.9033,-1.9233,-1.9698,-2.0238,-2.017,-2.0397,-2.1113,-2.022,-1.9099,-1.7824,-1.7451,-1.7066,-1.6643,-1.6322,-1.6124,-1.5972,-1.6253,-1.6048,-1.5406,-1.6182,-1.6662,-1.6914,-1.6914,-1.6974,-1.7073,-1.6711,-1.6186,-1.571,-1.6573,-1.7205,-1.7618,-1.7672,-1.8154,-1.9046,-2.0886,-2.2701,-2.4611,-2.7264,0.0,0.0,0.0,0.0,0.0,0.0,0.0,0.0,0.0,0.0,0.0,0.0,0.0,0.0,0.0,0.0,0.0,0.0,0.0,0.0,0.0,0.0,0.0,0.0,-2.1787,-2.1774,-2.2814,-2.279,-2.2725,-2.2913,-2.2762,-2.2709,-2.2872,-2.1629,-2.0917,-2.1147,-2.0253,-1.9937,-2.0529,-2.0602,-2.078,-2.1144,-2.0684,-2.0411,-2.0353,-1.9788,-1.9431,-1.927,-1.9118,-1.9048,-1.8994,-1.8698,-1.8225,-1.7561,-1.7111,-1.676,-1.6522,-1.6411,-1.6778,-1.7497,0.0,0.0,0.0,0.0,-2.2007,-2.3466,-1.697,-1.7827,-1.882,-1.9734,-1.9977,-2.0611,-2.2241,-2.2131,-2.1588,-2.0849,-2.0689,-1.9606,-1.6882,-1.8036,-1.8726,-1.8138,-1.9019,-1.9555,-1.946,-1.8123,-1.7134,-1.6615,-1.5645,-1.4943,-1.4556,-1.4278,-1.3931,-1.3586,-1.363,-1.3755,-1.3942,-1.3904,-1.4194,-1.4735,-1.4898,-1.4678,-1.4222,-1.4553,-1.4138,-1.3323,-1.3561,-1.4353,-1.539,-1.5407,-1.6185,-1.7421,-1.8454,-2.0393,-2.2751,-2.4692,0.0,0.0,0.0,0.0,0.0,0.0,0.0,0.0,0.0,0.0,0.0,0.0,0.0,0.0,0.0,0.0,0.0,0.0,0.0,0.0,0.0,0.0,0.0,0.0,-2.0987,-2.0561,-2.0217,-2.0439,-2.0896,-2.1661,-2.1633,-2.1681,-2.2034,-2.0726,-1.9656,-1.9233,-1.9033,-1.8822,-1.8584,-1.8968,0.0,0.0,0.0,-1.8534,-1.866,-1.791,-1.7441,-1.7245,-1.7142,-1.7203,-1.7401,-1.6819,-1.6392,-1.6107,-1.5614,-1.5329,-1.5211,-1.5513,-1.5996,-1.6663,-1.8101,-1.9016,-1.9692,-2.0927,-2.214,-2.3289,-1.6955,-1.76,-1.815,-1.85,-1.9185,-1.9916,-2.0526,-2.1162,-2.1151,-1.9938,-2.0095,-1.9509,-1.7379,-1.7407,-1.7532,-1.741,-1.7962,-1.8263,-1.8018,-1.744,-1.6315,-1.463,-1.4219,-1.3904,-1.3641,-1.283,-1.2552,-1.2885,-1.2018,-1.1388,-1.1028,-1.1722,-1.177,-1.1369,-1.198,-1.2043,-1.1724,-1.2009,-1.1862,-1.1469,-1.1996,-1.2739,-1.3559,-1.3992,-1.4429,-1.4987,-1.6585,-1.7992,-1.9357,-2.1366,-2.3653,-2.6081,-2.8198,-3.0491,0.0,0.0,0.0,0.0,0.0,0.0,0.0,0.0,0.0,0.0,0.0,0.0,0.0,0.0,0.0,0.0,0.0,0.0,0.0,-2.0324,-1.9385,-1.8688,-1.8768,-1.8122,-1.8267,-2.0025,-2.0761,-2.1158,-2.1294,-2.0164,-1.9194,-1.862,-1.8209,-1.79,-1.7742,-1.7825,-1.7905,-1.7993,-1.74,-1.7107,-1.7139,-1.6768,-1.6499,-1.6358,-1.6435,0.0,-1.6226,-1.6211,-1.6023,-1.5672,-1.512,-1.4965,-1.5096,-1.4786,-1.5421,-1.6765,-1.8495,-1.9193,-1.9372,-2.0793,-2.1976,-2.2978,-1.6884,-1.733,-1.7563,-1.7604,-1.8004,-1.8602,-1.9469,-1.9947,-2.0027,-1.9455,-1.9749,-1.9261,-1.7279,-1.7573,-1.7773,-1.7477,-1.7829,-1.765,-1.6656,-1.5996,-1.486,-1.3118,-1.2324,-1.1813,-1.151,-1.0419,-1.0025,-1.0339,-0.9371,-0.8937,-0.9007,-0.9368,-0.9478,-0.9365,-0.9991,-1.0024,-0.9684,-1.0231,-1.0323,-1.0137,-1.0619,-1.1135,-1.1744,-1.2591,-1.3255,-1.3951,-1.5012,-1.642,-1.799,-1.9305,-2.121,-2.3296,-2.5013,-2.6768,-2.8379,0.0,0.0,0.0,0.0,0.0,0.0,0.0,0.0,0.0,0.0,0.0,0.0,0.0,0.0,-1.9147,-1.9317,0.0,-1.9361,-1.9202,-1.831,-1.7539,-1.7378,-1.6668,-1.6824,-1.8684,-1.9196,-1.9737,-2.0575,-1.9257,-1.8107,-1.7483,-1.6958,-1.6428,-1.5938,-1.609,-1.6268,-1.6382,-1.573,-1.5501,-1.5851,-1.4989,-1.4621,-1.48,-1.4764,-1.4782,-1.4805,-1.4971,-1.4857,-1.4477,-1.4186,-1.4011,-1.3953,-1.4193,-1.5051,-1.6324,-1.7566,-1.8436,-1.9093,-1.9945,-2.1234,-2.2592,-1.6532,-1.6849,-1.6947,-1.6905,-1.6955,-1.7406,-1.8661,-1.8796,-1.8825,-1.9044,-1.9251,-1.8836,-1.7395,-1.7893,-1.8165,-1.7761,-1.7696,-1.7073,-1.5578,-1.4729,-1.3549,-1.1922,-1.0703,-0.9834,-0.9317,-0.8137,-0.7531,-0.7543,-0.6756,-0.6616,-0.7072,-0.6938,-0.7064,-0.7354,-0.7809,-0.7828,-0.7552,-0.8396,-0.8807,-0.8882,-0.9322,-0.9748,-1.0219,-1.1291,-1.2282,-1.3183,-1.3735,-1.5294,-1.7149,-1.7712,-1.925,-2.1157,-2.2269,-2.3395,-2.4537,-2.5705,-2.5961,0.0,0.0,0.0,0.0,0.0,0.0,0.0,0.0,-1.7573,-1.7134,-1.7374,-1.739,-1.7467,-1.7888,-1.8069,-1.8126,-1.8088,-1.7338,-1.6564,-1.6056,-1.554,-1.5689,-1.7025,-1.7403,-1.8073,-1.9371,-1.8117,-1.6919,-1.6162,-1.5728,-1.5142,-1.4292,-1.4616,-1.4847,-1.4886,-1.4135,-1.4,-1.4532,-1.3406,-1.3015,-1.3359,-1.3263,-1.3352,-1.3631,-1.3791,-1.3684,-1.3377,-1.3322,-1.3073,-1.2788,-1.3721,-1.4686,-1.5688,-1.6377,-1.7428,-1.8597,-1.8997,-2.0318,-2.1942,-1.5553,-1.5874,-1.6207,-1.6522,-1.6795,-1.7213,-1.7863,-1.8083,-1.8211,-1.8311,-1.8102,-1.8166,-1.8789,-1.7958,-1.7456,-1.7752,-1.689,-1.5982,-1.5121,-1.4531,-1.3227,-1.1024,-1.0074,-0.9181,-0.829,-0.7139,-0.6345,-0.5958,-0.5223,-0.4707,-0.4436,-0.4409,-0.4202,-0.3891,-0.4351,-0.4605,-0.4723,-0.5716,-0.6556,-0.731,-0.8085,-0.8786,-0.9488,-1.0297,-1.1028,-1.1765,-1.2889,-1.426,-1.5591,-1.5954,-1.7355,-1.8998,-1.9449,-2.0602,-2.2004,-2.3027,-2.296,-2.254,-2.2648,-2.102,-1.915,-1.8585,-1.7383,-1.6095,0.0,-1.5095,-1.5177,-1.5379,-1.5919,-1.6455,-1.6744,-1.6661,-1.6633,-1.6846,-1.6103,-1.5369,-1.4925,-1.4463,-1.4172,-1.418,-1.5682,-1.6789,-1.7005,-1.6752,-1.6045,-1.4725,-1.5015,-1.4895,-1.4084,-1.4359,-1.4187,-1.3467,-1.2983,-1.2793,-1.2865,-1.295,-1.2923,-1.2874,-1.317,-1.3305,-1.3359,-1.3359,-1.3334,-1.3288,-1.3009,-1.2705,-1.2518,-1.3338,-1.4192,-1.5073,-1.5788,-1.6616,-1.7516,-1.8481,-1.9599,-2.0712,-1.5426,-1.5425,-1.54,-1.5534,-1.5976,-1.6654,-1.7707,-1.8101,-1.8481,-1.9119,-1.9027,-1.9146,-1.9736,-1.907,-1.8426,-1.8064,-1.7002,-1.5786,-1.4554,-1.334,-1.1823,-0.9909,-0.8476,-0.727,-0.626,-0.5032,-0.4151,-0.3596,-0.2871,-0.2339,-0.2016,-0.2016,-0.1875,-0.1638,-0.25,-0.32,-0.3818,-0.4978,-0.6164,-0.7341,-0.8113,-0.8973,-0.9835,-1.0366,-1.1076,-1.1877,-1.2858,-1.4032,0.0,-1.5565,-1.645,-1.7503,-1.7781,-1.8491,-1.9308,-1.9886,-1.9809,-1.9429,-1.8854,-1.7548,-1.621,-1.5584,-1.4436,-1.3335,-1.29,-1.2679,-1.2711,-1.3202,-1.38,-1.4373,-1.4935,-1.5305,-1.5558,-1.5628,-1.5364,-1.4939,-1.4359,-1.386,-1.3481,-1.3318,-1.3899,-1.4614,-1.5343,-1.545,-1.5235,-1.4718,-1.468,-1.4428,-1.3856,-1.3876,-1.3549,-1.2745,-1.2386,-1.2262,-1.2431,-1.2057,-1.2056,-1.2373,-1.2186,-1.2208,-1.2413,-1.2544,-1.2676,-1.2738,-1.226,-1.2233,-1.2533,-1.2715,-1.3379,-1.4328,-1.4983,-1.5722,-1.6527,-1.7632,-1.8944,-2.0228,-1.5267,-1.5108,-1.4812,-1.472,-1.5302,-1.6135,-1.7207,-1.7821,-1.8459,-1.9292,-1.9669,-2.0014,-2.0365,-1.9977,-1.9297,-1.8253,-1.689,-1.5422,-1.3878,-1.2225,-1.0539,-0.8824,-0.7087,-0.5657,-0.4591,-0.3267,-0.2285,-0.164,-0.0816,-0.0262,0.0,0.0079,0.016,0.0162,-0.0903,-0.1885,-0.2791,-0.4155,-0.5645,-0.7118,-0.8041,-0.9098,-1.0152,-1.0623,-1.1362,-1.2198,-1.2799,-1.3746,-1.475,-1.494,-1.5515,-1.6179,-1.6224,-1.6499,-1.6839,-1.6997,-1.686,-1.6448,-1.5588,-1.4532,-1.3488,-1.2636,-1.1502,-1.0543,-1.0354,-1.0164,-1.0258,-1.1009,-1.1608,-1.2275,-1.3211,-1.3874,-1.4363,-1.466,-1.4594,-1.4366,-1.3955,-1.3405,-1.2987,-1.2837,-1.2755,-1.3016,-1.3786,-1.4086,-1.4255,-1.4291,-1.4175,-1.3888,-1.3347,-1.3337,-1.2954,-1.219,-1.1675,-1.1559,-1.1847,-1.1247,-1.1192,-1.1654,-1.1196,-1.1231,-1.1677,-1.1872,-1.2003,-1.2092,-1.1717,-1.1845,-1.2315,-1.2231,-1.2724,-1.3576,-1.4177,-1.488,-1.5666,-1.6578,-1.8023,-1.9557,0.0,-1.4812,-1.4594,-1.4292,-1.5042,-1.5776,-1.6019,-1.6884,-1.7672,-1.8101,-1.9273,-2.0231,-2.0561,-2.0233,-1.9456,-1.8127,-1.6197,-1.4457,-1.302,-1.1485,-0.9806,-0.7928,-0.6236,-0.4847,-0.3761,-0.2298,-0.1185,-0.0448,0.0548,0.1203,0.1534,0.1803,0.185,0.1686,0.0812,-0.0105,-0.1071,-0.2679,-0.4325,-0.5985,-0.7348,-0.8785,-1.0177,-1.0836,-1.1623,-1.2422,-1.2556,-1.3237,-1.3973,-1.3582,-1.4164,-1.4958,-1.4455,-1.4515,-1.4787,-1.4725,-1.4241,-1.3668,-1.3305,-1.2087,-1.0668,-0.9675,-0.8615,-0.7721,-0.7408,-0.7508,-0.7947,-0.8816,-0.9506,-1.0424,-1.1816,-1.2234,-1.2805,-1.4015,-1.3687,-1.3349,-1.3568,-1.31,-1.2627,-1.2348,-1.2593,-1.2575,-1.2031,-1.2681,-1.3036,-1.2783,-1.3358,-1.3332,-1.2398,-1.2715,-1.2485,-1.1571,-1.0695,-1.0423,-1.0751,-1.0589,-1.0515,-1.0552,-1.0457,-1.0727,-1.1334,-1.1529,-1.1511,-1.1357,-1.1591,-1.1663,-1.1655,-1.2035,-1.2448,-1.287,-1.3423,-1.4154,-1.4971,-1.5332,-1.666,-1.8301,0.0,0.0,-1.4328,-1.4222,-1.4779,-1.5512,-1.6341,-1.7471,-1.8331,-1.8592,-2.0162,0.0,0.0,0.0,0.0,0.0,-1.6266,-1.4,-1.2773,-1.0582,-0.8763,-0.7461,-0.5935,-0.444,-0.3073,-0.1674,-0.0483,0.053,0.162,0.2218,0.2344,0.2565,0.2632,0.2557,0.1365,0.0302,-0.0704,-0.2936,-0.5096,-0.713,-0.8714,-0.9985,-1.1024,-1.1495,-1.1974,-1.2385,0.0,-1.2743,-1.3703,-1.3579,-1.3639,-1.3741,-1.3314,-1.346,-1.3664,-1.3099,-1.2259,-1.1276,-1.0425,-0.8925,-0.746,-0.6806,-0.583,-0.5075,-0.5231,-0.5337,-0.5662,-0.6544,-0.7344,-0.8287,-0.9464,-1.0697,-1.1836,-1.266,-1.2871,-1.2965,-1.3053,-1.2646,-1.2328,-1.2187,-1.222,-1.2181,-1.1913,-1.2424,-1.2676,-1.2454,-1.263,-1.2679,-1.2431,-1.2298,-1.1994,-1.1518,-1.088,-1.0659,-1.0886,-1.0646,-1.0564,-1.0713,-1.0664,-1.0726,-1.085,-1.1155,-1.135,-1.1488,-1.1225,-1.1239,-1.1462,-1.1461,-1.1809,-1.2369,-1.2769,-1.3386,-1.4107,-1.4605,-1.5533,-1.6685,0.0,0.0,0.0,-1.4547,-1.5222,0.0,0.0,0.0,0.0,0.0,0.0,0.0,0.0,0.0,0.0,0.0,0.0,-1.377,-1.2298,-0.9838,-0.7939,-0.6832,-0.5342,-0.3901,-0.2543,-0.1313,-0.0302,0.0506,0.1647,0.2279,0.2448,0.2711,0.2851,0.2843,0.16,0.0484,-0.06,-0.3006,-0.5385,-0.7692,-0.9539,-1.1035,-1.2168,-1.2622,-1.2767,0.0,-1.212,-1.2198,-1.2557,-1.2676,-1.2533,-1.2288,-1.1873,-1.1614,-1.1336,-1.0705,-0.9748,-0.8603,-0.7497,-0.6124,-0.4844,-0.4092,-0.3283,-0.2745,-0.2852,-0.3004,-0.3371,-0.4269,-0.5306,-0.6436,-0.7702,-0.9296,-1.0732,-1.1578,-1.2017,-1.2317,-1.2616,-1.2263,-1.1983,-1.207,-1.2014,-1.1901,-1.178,-1.2068,-1.2189,-1.2026,-1.2035,-1.2015,-1.1938,-1.1604,-1.1306,-1.1067,-1.0478,-1.0215,-1.0372,-1.0075,-1.0063,-1.0307,-1.0438,-1.038,-1.0165,-1.0537,-1.0902,-1.1232,-1.0937,-1.1056,-1.1511,-1.1357,-1.1512,-1.1863,-1.2344,-1.2905,-1.3481,-1.3884,-1.4501,-1.5379,0.0,0.0,0.0,0.0,0.0,0.0,0.0,0.0,0.0,0.0,0.0,0.0,0.0,0.0,0.0,0.0,0.0,0.0,-1.1643,-0.933,-0.7414,-0.6105,-0.4608,-0.3345,-0.2315,-0.1356,-0.0755,-0.0529,0.0545,0.1326,0.177,0.2121,0.2377,0.2453,0.1443,0.0395,-0.0765,-0.2933,-0.5284,-0.7762,-0.9901,-1.1837,-1.3491,-1.3991,-1.378,-1.3119,-1.2401,-1.1414,-1.0509,-1.083,-1.0767,-1.0456,-0.9985,-0.9031,-0.799,-0.7657,-0.6776,-0.568,-0.4584,-0.3676,-0.2722,-0.1452,-0.0847,-0.0467,-0.0066,-0.0374,-0.1004,-0.1975,-0.3317,-0.4841,-0.6485,-0.7999,-0.9434,-1.0717,-1.1048,-1.143,-1.2199,-1.1814,-1.1576,-1.1868,-1.1875,-1.1746,-1.1477,-1.1595,-1.1609,-1.1452,-1.1479,-1.1329,-1.0874,-1.0651,-1.0459,-1.0252,-0.958,-0.9213,-0.9207,-0.9012,-0.9062,-0.9364,-0.9769,-0.9747,-0.9424,-0.9825,-1.0217,-1.0581,-1.0725,-1.1102,-1.165,-1.1664,-1.1522,-1.1378,-1.2079,-1.2619,-1.3025,-1.3122,-1.3552,-1.4358,0.0,0.0,0.0,0.0,0.0,0.0,0.0,0.0,0.0,0.0,0.0,0.0,0.0,0.0,0.0,0.0,0.0,0.0,-1.1859,-0.9524,-0.7769,-0.6721,-0.5773,-0.4766,-0.3702,-0.3302,-0.2834,-0.2348,-0.194,-0.16,-0.1275,-0.0734,-0.0347,-0.0155,-0.0471,-0.1206,-0.2366,-0.4812,-0.7404,-1.0058,-1.2251,-1.3613,-1.4255,-1.3938,-1.2968,-1.1579,-1.0428,-0.928,-0.8388,-0.8575,-0.7901,-0.7084,-0.7647,-0.7057,-0.6045,-0.5774,-0.4549,-0.304,-0.1913,-0.0547,0.0881,0.2108,0.3017,0.377,0.428,0.3598,0.2526,0.1353,-0.0627,-0.2746,-0.4737,-0.6531,-0.8127,-0.9505,-1.0072,-1.0539,-1.1182,-1.1107,-1.0923,-1.0739,-1.1019,-1.1142,-1.0921,-1.111,-1.1059,-1.0559,-1.0555,-1.046,-1.0233,-0.9982,-0.9785,-0.9636,-0.9445,-0.9336,-0.9269,-0.9073,-0.8964,-0.8953,-0.9222,-0.9356,-0.942,-0.9822,-1.0128,-1.0383,-1.0523,-1.066,-1.0832,-1.1076,-1.1187,-1.1265,-1.1606,-1.1861,-1.2093,-1.2358,-1.2638,-1.3086,0.0,0.0,0.0,0.0,0.0,0.0,0.0,0.0,0.0,0.0,0.0,0.0,0.0,0.0,0.0,0.0,0.0,0.0,0.0,-1.0647,-0.9016,-0.7876,-0.7146,-0.6442,-0.5756,-0.565,-0.5643,-0.5686,-0.5437,-0.5061,-0.4589,-0.3855,-0.3102,-0.2352,-0.2727,-0.3358,-0.4276,-0.6591,-0.9191,0.0,0.0,-1.4463,-1.4847,-1.4045,-1.2474,-1.0538,-0.9261,-0.7255,-0.5155,-0.4793,-0.4629,-0.4626,-0.5118,-0.4522,-0.3596,-0.3111,-0.2014,-0.0684,0.0481,0.1761,0.3071,0.4262,0.5542,0.6598,0.6985,0.6634,0.5624,0.3563,0.1299,-0.1037,-0.3503,-0.543,-0.7035,-0.8299,-0.9064,-0.9734,-1.0457,-1.0516,-1.0436,-1.0265,-1.0503,-1.058,-1.0342,-1.0551,-1.0536,-1.0135,-1.0139,-1.0006,-0.9658,-0.9404,-0.9271,-0.9308,-0.9078,-0.8909,-0.8772,-0.8772,-0.8754,-0.8728,-0.8932,-0.9077,-0.9116,-0.9413,-0.966,-0.985,-0.9936,-1.014,-1.0441,-1.0671,-1.0792,-1.0844,-1.1383,-1.1526,-1.1489,-1.2043,-1.2259,-1.2454,0.0,0.0,0.0,0.0,0.0,0.0,0.0,0.0,0.0,0.0,-2.2194,-2.2364,-2.3432,-2.2243,0.0,0.0,0.0,0.0,0.0,0.0,-1.0788,-0.9419,-0.8769,-0.8369,-0.8214,-0.8323,-0.8812,-0.9653,-0.9345,-0.8796,-0.8004,-0.7081,-0.5893,-0.4567,-0.5165,-0.5724,-0.6369,-0.8349,-1.0773,-1.3387,-1.4182,-1.4849,-1.5221,0.0,-1.2014,-0.9664,-0.8138,-0.5177,-0.183,-0.0756,-0.1323,-0.2444,-0.236,-0.1713,-0.0821,-0.0165,0.0597,0.1491,0.2779,0.3738,0.4745,0.6151,0.7721,0.8983,0.92,0.9189,0.8268,0.523,0.2727,0.0259,-0.2569,-0.447,-0.598,-0.7094,-0.7992,-0.8881,-0.9768,-0.9945,-1.0008,-1.008,-1.0155,-1.0051,-0.9744,-0.9956,-1.0022,-0.9887,-0.9923,-0.975,-0.9218,-0.8907,-0.8858,-0.9121,-0.8645,-0.8285,-0.8072,-0.8288,-0.8434,-0.8504,-0.8759,-0.8796,-0.8717,-0.89,-0.9113,-0.9309,-0.9332,-0.9658,-1.0238,-1.039,-1.037,-1.0378,-1.121,-1.1332,-1.1135,-1.1749,-1.2017,-1.2158,0.0,0.0,0.0,0.0,0.0,0.0,0.0,0.0,0.0,-2.3554,-2.2855,-2.2317,0.0,0.0,0.0,0.0,0.0,0.0,0.0,0.0,0.0,-1.1274,-1.0975,-1.0845,-1.0922,-1.1255,-1.1804,-1.2556,-1.2718,-1.2295,-1.125,-1.0098,-0.8972,-0.7853,-0.7371,-0.7668,-0.864,-1.0433,-1.2456,-1.4476,-1.5303,-1.5388,-1.4865,-1.283,0.0,0.0,-0.4971,-0.2713,-0.1026,0.0526,0.0982,0.0827,0.0682,0.118,0.1896,0.2293,0.2901,0.378,0.5404,0.637,0.7573,1.0184,1.1745,1.284,1.347,1.2188,1.006,0.7246,0.4046,0.0997,-0.1526,-0.3115,-0.4492,-0.58,-0.6785,-0.7728,-0.8717,-0.9134,-0.9412,-0.9528,-0.9553,-0.9491,-0.9309,-0.9453,-0.946,-0.9276,-0.9252,-0.9261,-0.9192,-0.8742,-0.8529,-0.8698,-0.8402,-0.8149,-0.7926,-0.7824,-0.7841,-0.8017,-0.8134,-0.8397,-0.8797,-0.8943,-0.9116,-0.9299,-0.9404,-0.9626,-0.9894,-1.0015,-1.0179,-1.0323,-1.0468,-1.0668,-1.082,-1.0505,-1.0877,-1.1566,0.0,0.0,0.0,0.0,0.0,0.0,-2.5028,-2.436,-2.3944,-2.4403,-2.3536,-2.2743,-2.2443,-2.1782,-2.0949,0.0,0.0,0.0,0.0,0.0,0.0,-1.3871,-1.3917,-1.4078,-1.4336,-1.4336,-1.4747,-1.5646,0.0,-1.4499,-1.3584,-1.2298,-1.1126,-1.0096,-0.9804,-1.0058,-1.0835,-1.256,-1.4236,-1.5753,-1.6016,-1.56,-1.4606,-1.2349,0.0,0.0,-0.3265,-0.1328,0.0132,0.1871,0.2904,0.3456,0.3134,0.3563,0.4259,0.4374,0.477,0.5422,0.665,0.7645,0.8978,1.17,1.3183,1.4118,1.4514,1.3249,1.0921,0.724,0.435,0.1613,-0.113,-0.2645,-0.3786,-0.4896,-0.5906,-0.6858,-0.7852,-0.8292,-0.8639,-0.895,-0.9085,-0.9099,-0.8957,-0.9073,-0.9088,-0.8962,-0.8812,-0.8729,-0.8743,-0.8494,-0.8303,-0.8229,-0.823,-0.8071,-0.7686,-0.7562,-0.7476,-0.7449,-0.7776,-0.8038,-0.8187,-0.8451,-0.8598,-0.863,-0.8689,-0.8888,-0.9125,-0.9376,-0.9547,-0.9706,-1.0067,-1.0203,-1.0208,-1.0405,-1.0562,-1.0756,0.0,0.0,0.0,0.0,0.0,0.0,-2.6369,-2.5478,-2.4736,-2.4819,-2.3967,-2.3172,-2.2645,-2.1787,-2.1006,0.0,0.0,0.0,0.0,0.0,0.0,0.0,0.0,-1.7043,-1.7448,0.0,0.0,-1.8121,-1.7046,0.0,0.0,0.0,0.0,0.0,-1.1426,-1.1645,-1.2254,-1.3891,-1.53,0.0,0.0,-1.5638,-1.4471,0.0,0.0,0.0,0.0,-0.1036,0.0637,0.242,0.3859,0.492,0.4675,0.5281,0.6081,0.5882,0.616,0.67,0.7578,0.8679,1.0171,1.2586,1.3978,1.4713,1.4455,1.319,1.0871,0.6623,0.4071,0.1795,-0.0881,-0.2265,-0.3295,-0.4116,-0.5119,-0.6137,-0.7136,-0.756,-0.7966,-0.8526,-0.864,-0.869,-0.8658,-0.8685,-0.8717,-0.874,-0.8457,-0.8302,-0.8286,-0.8307,-0.8216,-0.7949,-0.8082,-0.7952,-0.746,-0.7341,-0.7189,-0.7081,-0.7527,-0.7726,-0.7703,-0.7965,-0.8047,-0.7954,-0.7987,-0.8182,-0.8479,-0.8829,-0.9029,-0.921,-0.9768,-0.9896,-0.9803,-1.0296,-1.0328,-1.0225,0.0,0.0,0.0,0.0,0.0,0.0,-2.6132,-2.5555,-2.4941,-2.4357,-2.386,-2.3144,-2.2008,-2.1005,-2.054,0.0,0.0,0.0,0.0,0.0,0.0,0.0,0.0,0.0,0.0,0.0,0.0,-1.9162,-1.8326,0.0,0.0,0.0,0.0,0.0,0.0,-1.1082,-1.2103,-1.3294,0.0,0.0,0.0,0.0,0.0,0.0,0.0,0.0,0.0,-0.2385,-0.075,0.1065,0.2756,0.4222,0.4763,0.5942,0.6976,0.6414,0.6819,0.7714,0.8811,1.0312,1.2016,1.3939,1.5185,1.5618,1.4357,1.2112,0.9429,0.626,0.3352,0.0956,-0.0349,-0.1625,-0.2692,-0.3392,-0.4458,-0.5562,-0.6707,-0.7146,-0.7661,-0.85,-0.8248,-0.8145,-0.8478,-0.8259,-0.8216,-0.8598,-0.8196,-0.8027,-0.8203,-0.8315,-0.829,-0.8099,-0.7878,-0.7617,-0.7307,-0.7025,-0.7006,-0.7285,-0.7195,-0.7444,-0.7957,-0.7814,-0.7727,-0.7731,-0.7922,-0.8079,-0.8269,-0.8668,-0.9011,-0.9311,-0.9544,-0.9878,-1.0155,-0.9426,-0.975,-1.046,0.0,0.0,0.0,0.0,0.0,0.0,-2.6457,-2.5663,-2.4952,-2.4443,-2.3672,-2.3123,-2.2949,-2.1704,-2.0693,-2.0306,-1.9657,0.0,0.0,0.0,0.0,0.0,0.0,0.0,0.0,0.0,-2.0251,-2.0206,-1.9157,0.0,0.0,0.0,0.0,0.0,0.0,-1.2449,-1.3159,-1.4118,0.0,0.0,0.0,0.0,0.0,0.0,0.0,0.0,0.0,0.0,-0.2755,-0.1062,0.064,0.2147,0.2787,0.4114,0.5579,0.646,0.7538,0.8685,0.9723,1.1162,1.2701,1.4259,1.4484,1.3999,1.2877,1.048,0.7622,0.4608,0.2457,0.0635,-0.0996,-0.1915,-0.2713,-0.3507,-0.4426,-0.5333,-0.6209,-0.66,-0.7057,-0.7738,-0.7646,-0.7668,-0.7999,-0.8089,-0.819,-0.835,-0.8015,-0.782,-0.7886,-0.7902,-0.7829,-0.7623,-0.7526,-0.7305,-0.7008,-0.6831,-0.686,-0.7062,-0.7089,-0.7249,-0.7526,-0.7433,-0.7335,-0.7241,-0.7563,-0.7787,-0.7949,-0.8414,-0.8829,-0.9122,-0.9116,-0.9291,-0.9531,-0.9052,-0.9174,-0.9561,0.0,0.0,0.0,0.0,0.0,-2.6994,-2.6041,-2.5345,-2.4729,-2.4164,-2.3377,-2.295,-2.3192,-2.1983,-2.083,-2.0067,-1.969,0.0,0.0,0.0,0.0,0.0,0.0,0.0,0.0,0.0,-2.1033,-2.0913,-1.9871,-1.884,0.0,0.0,-1.5133,-1.4279,0.0,0.0,0.0,0.0,0.0,0.0,0.0,0.0,0.0,0.0,0.0,0.0,0.0,0.0,0.0,0.0,0.0,-0.0308,0.0505,0.1877,0.3649,0.5795,0.7521,0.9019,1.0098,1.1534,1.2901,1.3783,1.3364,1.2319,1.0905,0.8514,0.5816,0.3124,0.1543,0.0138,-0.1511,-0.2242,-0.2884,-0.3677,-0.4478,-0.5207,-0.5838,-0.6304,-0.6766,-0.7141,-0.723,-0.7305,-0.7499,-0.7752,-0.7906,-0.7907,-0.7694,-0.7507,-0.7413,-0.7361,-0.7275,-0.7086,-0.7047,-0.6865,-0.6595,-0.6595,-0.6654,-0.6813,-0.6915,-0.7027,-0.7204,-0.7138,-0.7106,-0.7073,-0.733,-0.7559,-0.7824,-0.8252,-0.8571,-0.8839,-0.8854,-0.8935,-0.9048,-0.8823,-0.8829,-0.8979,0.0,0.0,0.0,0.0,0.0,-2.63,-2.4506,-2.438,-2.4166,-2.3237,-2.2932,-2.2628,-2.2169,-2.146,-2.0862,-2.0531,-1.9997,0.0,0.0,0.0,0.0,0.0,0.0,0.0,-2.1899,-2.2149,-2.1935,-2.1196,-2.0525,-1.9904,-1.9316,-1.657,-1.5302,-1.5212,0.0,0.0,0.0,0.0,0.0,0.0,0.0,0.0,-1.778,0.0,0.0,0.0,0.0,0.0,0.0,0.0,0.0,0.0,0.0,-0.0365,0.148,0.4227,0.6543,0.8495,0.985,1.1441,1.2657,1.2476,1.2075,1.1066,0.8509,0.6225,0.4084,0.2189,0.0597,-0.0753,-0.1641,-0.2404,-0.3105,-0.3706,-0.4478,-0.5173,-0.5649,-0.6401,-0.6897,-0.6891,-0.7021,-0.7091,-0.7116,-0.7159,-0.7212,-0.7218,-0.7204,-0.7053,-0.6728,-0.6715,-0.6688,-0.6611,-0.6415,-0.6253,-0.6105,-0.6248,-0.6418,-0.6616,-0.6612,-0.6812,-0.7204,-0.6979,-0.7106,-0.7493,-0.7297,-0.7493,-0.8019,-0.8139,-0.8306,-0.8544,-0.8856,-0.9017,-0.8982,-0.8706,-0.8825,-0.9053,0.0,0.0,0.0,0.0,0.0,0.0,-2.5336,-2.455,-2.3789,-2.2993,-2.2994,-2.2818,-2.2106,-2.1776,-2.1337,-2.063,-1.998,0.0,0.0,0.0,0.0,0.0,0.0,-2.1601,-2.1882,-2.2073,-2.2152,-2.2152,-2.1913,-2.1528,-2.1011,-1.9813,-1.8691,-1.7572,-1.6457,-1.5951,0.0,0.0,0.0,0.0,0.0,-2.0651,-2.0024,0.0,0.0,0.0,0.0,0.0,0.0,0.0,0.0,0.0,0.0,0.0,0.0,0.1694,0.4601,0.7234,0.7536,0.9233,1.0617,0.9411,0.881,0.7965,0.6026,0.421,0.25,0.0891,-0.0304,-0.1298,-0.2124,-0.2877,-0.3474,-0.3764,-0.448,-0.5174,-0.5645,-0.6003,-0.6208,-0.6224,-0.6121,-0.6295,-0.6898,-0.6862,-0.6858,-0.6994,-0.6915,-0.6839,-0.685,-0.6416,-0.619,-0.626,-0.6194,-0.6076,-0.5904,-0.5813,-0.5909,-0.6266,-0.6112,-0.6273,-0.6646,-0.6745,-0.6839,-0.6966,-0.7265,-0.7559,-0.7824,-0.8074,-0.8404,-0.8705,-0.8673,-0.8738,-0.8823,-0.8617,-0.8744,-0.9044,0.0,0.0,0.0,0.0,0.0,0.0,-2.5326,-2.4321,-2.3537,-2.321,-2.3184,-2.2951,-2.2304,-2.1858,-2.1268,-2.0446,-1.9785,0.0,0.0,0.0,0.0,0.0,-2.1198,-2.1463,-2.1721,-2.1868,-2.2155,-2.2588,-2.2611,-2.2563,-2.245,-2.1769,-2.0786,-1.9565,-1.8557,-1.7906,0.0,0.0,0.0,0.0,-2.2548,-2.2461,-2.1755,0.0,0.0,0.0,0.0,0.0,0.0,0.0,0.0,0.0,0.0,0.0,0.0,0.0,0.193,0.4738,0.578,0.7343,0.8392,0.725,0.6464,0.5566,0.3996,0.2537,0.1172,-0.0084,-0.1034,-0.19,-0.2768,-0.3405,-0.3904,-0.4101,-0.4614,-0.5089,-0.5378,-0.564,-0.5875,-0.6008,-0.5729,-0.5822,-0.6555,-0.647,-0.6383,-0.6505,-0.6563,-0.6561,-0.654,-0.6137,-0.5965,-0.6098,-0.6036,-0.5927,-0.5849,-0.5763,-0.5871,-0.6145,-0.612,-0.624,-0.6515,-0.6642,-0.6773,-0.6905,-0.7167,-0.7466,0.0,-0.8047,-0.8306,-0.8571,-0.8511,-0.8544,-0.8571,-0.8511,-0.8673,-0.8958,0.0,0.0,0.0,0.0,0.0,0.0,-2.4777,-2.3908,-2.3453,-2.3812,-2.3461,-2.3026,-2.2654,-2.17,-2.0816,-2.0078,-1.9505,0.0,0.0,0.0,0.0,-2.0756,-2.1087,-2.1324,-2.1402,-2.1651,-2.2036,-2.2598,-2.2794,-2.3134,-2.3592,-2.266,-2.1919,-2.1332,-2.0018,-1.9201,0.0,0.0,0.0,0.0,-2.4415,-2.39,0.0,0.0,0.0,0.0,0.0,0.0,0.0,0.0,0.0,0.0,0.0,0.0,0.0,0.0,0.0,0.0,0.0,0.5449,0.5877,0.5523,0.4706,0.367,0.2327,0.1144,0.0,-0.0782,-0.1621,-0.249,-0.3378,-0.3901,-0.4319,-0.4577,-0.4837,-0.4987,-0.4955,-0.5339,-0.5754,-0.6025,-0.5609,-0.5519,-0.6046,-0.5981,-0.5868,-0.5836,-0.6165,-0.6209,-0.5894,-0.5876,-0.5954,-0.6103,-0.589,-0.5817,-0.5883,-0.6013,-0.6098,-0.6201,-0.6459,-0.6612,-0.6675,-0.6675,-0.6872,-0.7138,-0.6979,-0.7302,-0.7954,-0.7987,-0.8079,-0.8236,-0.8414,-0.8409,-0.8269,-0.8447,-0.8641,-0.8802,0.0,0.0,0.0,0.0,0.0,0.0,0.0,0.0,0.0,0.0,-2.3407,-2.272,-2.2674,-2.1781,-2.0886,0.0,0.0,0.0,0.0,0.0,0.0,-2.1363,-2.1146,-2.1166,-2.1542,-2.2253,-2.2601,-2.2517,-2.3327,-2.3772,-2.3842,-2.4207,-2.4263,-2.4031,-2.3109,-2.2115,0.0,0.0,0.0,0.0,-2.6041,-2.581,0.0,0.0,0.0,0.0,-1.7445,-1.5266,0.0,0.0,0.0,0.0,0.0,0.0,0.0,0.0,-0.2206,-0.1147,-0.031,0.0,0.2335,0.1148,0.101,0.1011,0.0,0.0056,-0.0448,-0.1258,-0.1959,-0.2521,-0.2856,-0.3741,-0.4294,-0.3932,-0.4546,-0.5118,-0.5261,-0.5124,-0.4911,-0.4614,-0.4529,-0.4636,-0.5009,-0.5465,-0.5642,-0.5389,-0.5685,-0.5844,-0.5739,-0.5714,-0.5871,-0.6322,-0.5898,-0.569,-0.5829,-0.5767,-0.5851,-0.6112,-0.6249,-0.6312,-0.6309,-0.6576,-0.6642,-0.6613,-0.6975,-0.7302,-0.7624,-0.7884,-0.8079,-0.8236,-0.8414,-0.8576,-0.8635,-0.8544,-0.8705,-0.8952,0.0,0.0,0.0,0.0,0.0,0.0,0.0,0.0,0.0,0.0,-2.4067,-2.3377,-2.3145,-2.2003,-2.0914,0.0,0.0,0.0,0.0,-2.0171,-2.065,-2.1686,-2.167,-2.1846,-2.2313,-2.2801,-2.3173,-2.342,-2.3996,-2.4484,-2.4889,-2.5465,-2.5753,-2.5739,-2.4903,-2.4365,-2.4165,-2.5183,0.0,-2.6446,-2.7008,0.0,0.0,0.0,0.0,0.0,-1.7925,-1.5661,0.0,-1.1106,-0.9413,-0.8019,0.0,0.0,0.0,0.0,-0.3189,-0.2461,-0.2432,-0.1014,0.0306,-0.0503,-0.0587,-0.0447,-0.0308,-0.0784,-0.1287,-0.1539,0.0,-0.2965,-0.3077,-0.3935,-0.4519,-0.4236,-0.4601,-0.4905,-0.4844,-0.4599,-0.4272,-0.3859,-0.3895,-0.4016,-0.4261,-0.4681,-0.4879,-0.4755,-0.5039,-0.5281,-0.5364,-0.5472,-0.5749,-0.6243,-0.5815,-0.5719,-0.5933,-0.5697,-0.5773,-0.6107,-0.6134,-0.6214,-0.6284,-0.6478,-0.6515,-0.6416,-0.6876,-0.7171,-0.7396,-0.7819,-0.8018,-0.8095,-0.8372,-0.8511,-0.8551,-0.8597,-0.8738,-0.8926,0.0,0.0,0.0,0.0,0.0,0.0,0.0,0.0,0.0,0.0,0.0,0.0,0.0,0.0,0.0,0.0,0.0,0.0,0.0,-2.05,-2.1016,-2.1874,-2.2137,-2.2423,-2.2759,-2.2941,-2.3421,-2.4214,-2.4375,-2.4975,-2.5984,-2.6384,-2.6693,-2.6893,-2.6201,-2.6177,-2.6617,-2.647,-2.6937,-2.779,-2.752,0.0,0.0,0.0,0.0,0.0,0.0,0.0,0.0,-1.1296,-0.9618,-0.8231,-0.7423,0.0,0.0,0.0,0.0,0.0,-0.3078,-0.1958,-0.0847,-0.1044,-0.1325,-0.1378,-0.0897,0.0,0.0,0.0,0.0,-0.3212,-0.3347,-0.4036,-0.4559,-0.458,-0.4579,-0.4444,-0.4044,-0.3932,-0.3705,-0.3287,-0.3415,-0.3626,-0.3719,-0.3913,-0.4055,-0.4115,-0.4414,-0.4685,-0.4816,-0.5098,-0.5492,-0.5976,-0.5683,-0.5695,-0.6103,-0.5797,-0.5807,-0.6179,-0.6153,-0.6222,-0.6383,-0.6383,-0.6383,-0.6383,-0.6749,-0.7012,-0.7204,-0.7727,-0.7919,-0.7897,-0.8292,-0.8361,-0.824,-0.8612,-0.877,-0.8835,0.0,0.0,0.0,0.0,0.0,0.0,0.0,0.0,0.0,0.0,0.0,0.0,0.0,0.0,0.0,0.0,0.0,0.0,0.0,-2.0319,-2.1147,-2.2025,-2.1485,-2.1059,-2.0839,-2.1731,-2.2424,-2.2895,-2.3517,-2.4559,-2.5935,-2.6614,-2.7307,-2.797,-2.8121,-2.751,-2.642,-2.733,-2.7773,-2.7858,-2.7579,0.0,0.0,0.0,0.0,0.0,0.0,0.0,0.0,-1.1304,-0.9768,-0.8587,-0.7706,0.0,0.0,0.0,0.0,0.0,-0.2679,-0.1933,-0.149,-0.2677,-0.2735,-0.2486,-0.2503,-0.2569,0.0,0.0,0.0,0.0,-0.2305,-0.3212,-0.3748,-0.3211,-0.362,-0.3793,-0.3197,-0.3213,-0.2977,-0.2077,-0.2841,-0.3428,-0.3444,-0.3885,-0.4033,-0.3704,-0.4041,-0.4204,-0.4009,-0.4452,-0.4977,-0.5488,-0.5289,-0.5463,-0.6103,-0.5931,-0.6066,-0.6525,-0.641,-0.6316,-0.6247,-0.635,-0.635,-0.6247,-0.6712,-0.6913,-0.6979,-0.7536,-0.77,-0.7679,-0.8089,-0.8228,-0.824,-0.8457,-0.8641,-0.8861,0.0,0.0,0.0,0.0,0.0,0.0,0.0,0.0,0.0,0.0,0.0,0.0,0.0,0.0,0.0,0.0,0.0,0.0,-1.9364,-1.9996,-2.0361,-2.0373,-2.0194,-2.0649,-2.1892,-2.2214,-2.2709,-2.3357,-2.3992,-2.5084,-2.6609,-2.7328,-2.8101,-2.8867,-2.8198,-2.7646,-2.724,-2.7385,-2.7429,-2.7326,0.0,0.0,0.0,0.0,0.0,0.0,0.0,0.0,0.0,0.0,-1.0012,-0.862,-0.7839,0.0,0.0,0.0,0.0,0.0,-0.2807,-0.2228,-0.1918,-0.2684,-0.2827,-0.2836,-0.2936,-0.3447,-0.3652,0.0,0.0,-0.2928,-0.2315,-0.285,-0.3301,-0.3105,-0.3467,-0.3673,-0.3283,-0.3065,-0.2681,-0.2037,-0.255,-0.2965,-0.2932,-0.3246,-0.3475,-0.3552,-0.3674,-0.3797,-0.3848,-0.4264,-0.4703,-0.511,-0.5045,-0.5373,-0.6135,-0.5815,-0.5865,-0.6324,-0.6379,-0.6367,-0.6322,-0.6558,-0.6596,-0.6491,-0.6891,-0.7073,-0.7106,-0.7629,-0.776,-0.7647,-0.8051,-0.8054,-0.7898,-0.8419,-0.876,-0.9023,0.0,0.0,0.0,0.0,0.0,0.0,0.0,0.0,0.0,0.0,0.0,0.0,0.0,0.0,0.0,0.0,0.0,0.0,-1.8967,-1.9192,-1.9144,-1.8681,-1.8786,-1.9818,-2.1884,-2.1865,-2.2303,-2.3291,-2.3785,-2.5,-2.6904,-2.7709,-2.8487,-2.9198,-2.796,-2.7722,-2.8191,-2.7392,-2.713,-2.7183,0.0,0.0,0.0,0.0,0.0,0.0,0.0,0.0,0.0,0.0,0.0,0.0,0.0,0.0,0.0,-0.4725,-0.4004,-0.3248,-0.2777,-0.2337,-0.2041,-0.2165,-0.2504,-0.2845,-0.2884,-0.384,-0.4368,-0.3222,-0.35,-0.3648,-0.2569,-0.2465,-0.2682,-0.3099,-0.3133,-0.3083,-0.3006,-0.2671,-0.2368,-0.2084,-0.2311,-0.2541,-0.2606,-0.2733,-0.2987,-0.3401,-0.3374,-0.3495,-0.3871,-0.4166,-0.4467,-0.4832,-0.487,-0.5234,-0.5959,-0.565,-0.5708,-0.6142,-0.6234,-0.6313,-0.6347,-0.6619,-0.6725,-0.6725,-0.6975,-0.7101,-0.7171,-0.7629,-0.7696,-0.7585,-0.796,-0.7901,-0.773,-0.8324,-0.8682,-0.8955,0.0,0.0,0.0,0.0,0.0,0.0,0.0,0.0,0.0,0.0,0.0,0.0,0.0,0.0,0.0,0.0,0.0,0.0,-1.7878,-1.7564,-1.7572,-1.7951,-1.7522,-1.7548,-1.8179,-1.8831,-1.9845,-2.1218,-2.1569,-2.321,-2.6024,-2.7189,-2.8011,-2.847,-2.817,-2.8405,-2.8947,-2.771,-2.7624,-2.8099,-2.5808,0.0,0.0,0.0,0.0,0.0,0.0,0.0,0.0,0.0,0.0,0.0,0.0,0.0,-0.5324,-0.4481,-0.3633,-0.2798,-0.2075,-0.1811,-0.1699,-0.1607,-0.2105,-0.2601,-0.2559,-0.3372,-0.3967,-0.3307,-0.3241,-0.3123,-0.265,-0.1829,-0.1566,-0.2576,-0.1965,-0.1398,-0.144,-0.1643,-0.173,-0.1642,-0.1981,-0.2415,-0.2915,-0.2866,-0.291,-0.3191,-0.3204,-0.34,-0.38,-0.395,-0.421,-0.4616,-0.4809,-0.503,-0.5277,-0.5605,-0.5915,-0.6176,-0.6019,-0.6036,-0.623,-0.623,-0.6432,-0.6696,-0.6712,-0.6811,-0.6946,-0.7171,-0.7306,-0.7418,-0.7643,-0.7902,-0.8137,-0.8064,-0.8149,-0.8367,0.0,0.0,0.0,0.0,0.0,0.0,0.0,0.0,0.0,0.0,0.0,-2.4583,-2.3745,0.0,0.0,0.0,0.0,0.0,-1.8384,-1.7539,-1.6957,-1.667,-1.6291,-1.6065,-1.6005,-1.7403,-1.8717,-1.9878,-2.1725,-2.3571,-2.5417,-2.6038,-2.6957,-2.8044,-2.7271,-2.7247,-2.7764,-2.7287,-2.6944,-2.6641,-2.5548,-2.42,0.0,0.0,0.0,0.0,0.0,0.0,0.0,0.0,-0.9987,-0.8785,-0.7806,-0.6606,-0.536,-0.437,-0.3772,-0.3321,-0.2609,-0.226,-0.1956,-0.1547,-0.1628,-0.1991,-0.2702,-0.3475,-0.3987,-0.379,-0.38,-0.3522,-0.247,-0.1687,-0.1284,-0.1641,-0.1265,-0.0996,-0.1141,-0.1332,-0.1495,-0.1578,-0.185,-0.2153,-0.2455,-0.2491,-0.2569,-0.2802,-0.3055,-0.336,-0.3716,-0.3978,-0.4222,-0.4479,-0.464,-0.4864,-0.5185,-0.5428,-0.5723,-0.6032,-0.6157,-0.6209,-0.6214,-0.6412,-0.6639,-0.681,-0.6829,-0.7007,-0.7265,-0.7363,-0.7478,-0.7599,-0.7614,-0.7875,-0.8227,-0.8479,-0.8496,-0.8515,0.0,0.0,0.0,0.0,0.0,0.0,0.0,0.0,-2.5187,0.0,0.0,0.0,0.0,-2.3436,0.0,0.0,0.0,0.0,-1.82,-1.7232,-1.6388,-1.573,-1.5308,-1.4939,-1.4605,-1.5876,-1.7122,-1.8317,-2.0799,-2.291,-2.4614,-2.4913,-2.5939,-2.744,-2.64,-2.6455,-2.7279,-2.6672,-2.6351,-2.6159,-2.5511,-2.4069,0.0,0.0,0.0,0.0,0.0,0.0,0.0,0.0,-0.9488,-0.8354,-0.7378,-0.6368,-0.5321,-0.441,-0.3931,-0.356,-0.2797,-0.2451,-0.2145,-0.149,0.0,0.0,-0.2265,-0.3007,-0.3547,-0.348,-0.3465,-0.3166,-0.2107,-0.1312,-0.0821,-0.0771,-0.0538,-0.0471,-0.0706,-0.0875,-0.111,-0.1412,-0.158,-0.1783,-0.2154,-0.2249,-0.242,-0.2721,-0.3001,-0.3339,-0.3696,-0.3963,-0.4151,-0.4325,-0.4497,-0.4702,-0.4987,-0.5194,-0.5451,-0.5732,-0.6012,-0.6226,-0.6375,-0.6449,-0.6688,-0.6996,-0.6872,-0.7047,-0.7396,-0.7396,-0.7493,-0.7642,-0.7618,-0.7824,-0.8179,-0.8491,-0.8589,-0.8626,0.0,0.0,0.0,0.0,0.0,0.0,0.0,0.0,-2.4082,-2.4281,-2.4079,0.0,0.0,0.0,0.0,0.0,0.0,0.0,-1.7029,-1.6328,-1.579,-1.5311,-1.4582,-1.4152,-1.4001,-1.4014,-1.4796,-1.6401,-1.835,-2.0718,-2.3486,-2.3899,-2.4976,-2.6539,-2.5748,-2.6337,-2.7811,-2.5967,-2.5995,-2.7131,-2.5743,-2.3775,-2.1584,0.0,0.0,0.0,0.0,0.0,0.0,0.0,-0.883,-0.7711,-0.6713,-0.5878,-0.5179,-0.464,-0.4022,-0.3318,-0.2438,-0.2266,-0.2114,-0.14,-0.1138,-0.1066,-0.0998,-0.18,-0.2474,-0.2152,-0.199,-0.1799,-0.1546,-0.0659,0.0,0.0,0.0303,0.0403,0.0067,-0.0169,-0.0505,-0.1042,-0.1109,-0.1379,-0.212,-0.2186,-0.2425,-0.3031,-0.3099,-0.3308,-0.3759,-0.3809,-0.391,-0.4196,-0.4384,-0.4491,-0.4491,-0.4904,-0.521,-0.5402,-0.5526,-0.5983,-0.6695,-0.6285,-0.6493,-0.7186,-0.6763,-0.6821,-0.7204,-0.7204,-0.733,-0.7502,-0.7587,-0.7763,-0.7991,-0.7998,-0.8248,-0.8646,0.0,0.0,0.0,0.0,0.0,0.0,0.0,0.0,-2.4746,-2.4114,-2.4033,0.0,0.0,0.0,0.0,0.0,0.0,0.0,-1.7188,-1.6227,-1.5524,-1.504,-1.449,-1.428,-1.443,-1.4384,-1.505,-1.6466,-1.7908,-1.9919,-2.2443,-2.2612,-2.3292,-2.4361,-2.4348,-2.4199,-2.4,-2.4199,-2.4311,-2.438,-2.4604,-2.3532,-2.1654,0.0,0.0,0.0,0.0,0.0,0.0,0.0,0.0,0.0,-0.6174,-0.5164,-0.4299,-0.4138,-0.3564,-0.2985,-0.2793,-0.2397,-0.1904,-0.1467,-0.0832,-0.0231,0.0065,-0.0601,-0.131,-0.1496,-0.1463,-0.1284,-0.093,-0.0227,0.0394,0.0704,0.084,0.084,0.0605,0.0404,-0.0034,-0.0806,-0.0673,-0.0808,-0.1513,-0.1552,-0.1773,-0.2221,-0.2598,-0.2974,-0.3292,-0.3493,-0.3705,-0.3903,-0.407,-0.427,-0.4491,-0.4715,-0.5074,-0.5616,-0.565,-0.5949,-0.6476,-0.6323,-0.6586,-0.7175,-0.6714,-0.6916,-0.7531,-0.7461,-0.7591,-0.7847,-0.7723,-0.7867,-0.8164,-0.8443,-0.8612,-0.8742,0.0,0.0,0.0,0.0,0.0,0.0,-2.559,-2.5379,-2.4993,-2.4098,-2.4189,-2.4106,0.0,0.0,0.0,-2.0598,-1.9337,0.0,-1.7096,-1.6247,-1.5618,-1.5279,-1.4495,-1.4046,-1.4046,-1.4157,-1.4763,-1.5869,-1.6934,-1.8772,-2.1252,-2.1476,-2.2194,-2.3314,-2.3241,-2.3012,-2.268,-2.2929,-2.2948,-2.2873,-2.3469,-2.2724,-2.1157,0.0,0.0,0.0,0.0,0.0,0.0,0.0,0.0,0.0,-0.579,-0.4834,-0.3977,-0.389,-0.3463,-0.2982,-0.268,-0.2166,-0.1551,-0.0865,-0.0203,0.0415,0.0985,0.0591,-0.0064,-0.0574,-0.0478,-0.0256,-0.0163,0.0393,0.0956,0.124,0.1311,0.1244,0.1143,0.0908,0.047,-0.0202,-0.0168,-0.0336,-0.1042,-0.1225,-0.1457,-0.1791,-0.232,-0.2691,-0.2819,-0.3145,-0.3443,-0.3649,-0.3854,-0.4103,-0.4386,-0.4553,-0.4987,-0.5699,-0.5699,-0.5977,-0.6481,-0.6345,-0.6625,-0.7185,-0.7049,-0.7229,-0.7619,-0.7661,-0.7745,-0.7884,-0.7795,-0.7953,-0.8244,-0.8554,-0.874,-0.8854,0.0,0.0,-2.6946,-2.7092,0.0,0.0,-2.5278,-2.5241,-2.5079,-2.4314,-2.4547,-2.4512,0.0,0.0,0.0,-1.9893,-1.9169,-1.8242,-1.6854,-1.6287,-1.5919,-1.5714,-1.4508,-1.3668,-1.3314,-1.3634,-1.4197,-1.4948,-1.5785,-1.7483,-1.9963,-2.0426,-2.1414,-2.284,-2.2269,-2.2318,-2.2746,-2.1895,-2.1773,-2.2164,-2.2298,-2.1535,-2.0288,-1.9749,0.0,0.0,0.0,0.0,0.0,0.0,0.0,0.0,-0.5531,-0.4657,-0.3898,-0.3704,-0.3377,-0.2919,-0.2119,-0.1565,-0.0984,0.0145,0.0691,0.1165,0.1964,0.1858,0.1388,0.0677,0.091,0.1144,0.0775,0.1279,0.1748,0.1748,0.1715,0.1715,0.1715,0.1449,0.1045,0.0572,0.0438,0.0067,-0.0706,-0.1073,-0.1359,-0.1679,-0.2187,-0.2445,-0.2439,-0.2833,-0.3171,-0.3388,-0.37,-0.3963,-0.417,-0.4397,-0.4898,-0.5669,-0.5699,-0.6004,-0.658,-0.6472,-0.6695,-0.7233,-0.7564,-0.7652,-0.7516,-0.7759,-0.7837,-0.7739,-0.7839,-0.8012,-0.8236,-0.8388,-0.8694,-0.9019,0.0,0.0,-2.5551,-2.6338,0.0,0.0,-2.6813,-2.6649,-2.6247,-2.5247,-2.5295,-2.4929,-2.3676,-2.286,0.0,-2.0,-1.8983,-1.7833,-1.65,-1.631,-1.5858,-1.497,-1.4417,-1.4106,-1.4129,-1.4035,-1.4395,-1.5292,-1.5848,-1.7059,-1.8851,-1.9224,-1.9719,-2.03,-2.0535,-2.0344,-1.9851,-2.0214,-2.0332,-2.0322,-2.0857,-2.0638,-1.9951,-1.9346,-1.811,0.0,0.0,0.0,0.0,0.0,0.0,0.0,-0.5397,-0.4007,-0.2781,-0.242,-0.1546,-0.081,-0.113,-0.0619,0.0109,0.0546,0.1819,0.3163,0.3926,0.4035,0.3646,0.25,0.2421,0.2536,0.242,0.2557,0.2721,0.2824,0.2621,0.2452,0.2452,0.2362,0.1892,0.0843,0.0891,0.0585,-0.0472,-0.0726,-0.1072,-0.1644,-0.2051,-0.236,-0.2624,-0.2895,-0.3077,-0.3232,-0.3466,-0.3701,-0.3961,-0.4313,-0.4812,-0.5464,-0.5612,-0.5973,-0.6467,-0.6951,-0.7201,-0.729,-0.7751,-0.7757,-0.7446,-0.7636,-0.7877,-0.8054,-0.7771,-0.7985,-0.8388,-0.8143,-0.8463,-0.902,0.0,0.0,0.0,0.0,0.0,0.0,0.0,0.0,-2.7487,-2.6325,-2.6004,-2.5341,-2.3934,-2.2751,0.0,0.0,-1.8823,-1.7775,-1.6799,-1.6221,-1.5337,-1.4037,-1.3917,-1.3721,-1.3443,-1.3375,-1.3621,-1.4246,-1.4604,-1.5867,-1.8039,-1.8227,-1.8655,-1.9225,-1.9507,-1.9367,-1.8975,-1.933,-1.9347,-1.9168,-1.9497,-1.9377,-1.8939,-1.8583,-1.7763,-1.6676,-1.5302,0.0,0.0,0.0,0.0,0.0,0.0,0.0,-0.2494,-0.1677,-0.0718,0.0038,-0.0075,0.0415,0.117,0.2,0.339,0.4664,0.5153,0.5328,0.5224,0.4681,0.4118,0.37,0.36,0.3735,0.382,0.3703,0.3528,0.342,0.3422,0.3145,0.2624,0.1819,0.1593,0.1065,0.0,-0.0341,-0.0772,-0.151,-0.1766,-0.2059,-0.2447,-0.27,-0.2955,-0.3181,-0.359,-0.3897,-0.4077,-0.4487,-0.4974,-0.5547,-0.5701,-0.6197,-0.6948,-0.7106,-0.7216,-0.737,-0.7803,-0.7884,-0.7715,-0.7953,-0.8116,-0.8178,-0.8028,-0.8207,-0.8468,-0.8276,-0.8447,-0.8772,0.0,0.0,0.0,0.0,0.0,0.0,0.0,0.0,0.0,-2.7296,-2.6681,-2.5741,-2.4166,-2.2719,-2.1283,0.0,0.0,0.0,-1.7178,-1.5932,-1.4594,-1.3242,-1.3164,-1.2893,-1.223,-1.2317,-1.2518,-1.2798,-1.2978,-1.4365,-1.6909,-1.7144,-1.7834,-1.8826,-1.8965,-1.9113,-1.9243,-1.9018,-1.8862,-1.8693,-1.8548,-1.8313,-1.8065,-1.7997,-1.7491,-1.6701,-1.6136,-1.4761,-1.3018,-1.2011,0.0,0.0,0.0,0.0,-0.2599,-0.1073,-0.0109,0.0607,0.1167,0.1684,0.243,0.3816,0.494,0.5822,0.6225,0.6349,0.6427,0.6747,0.5703,0.4731,0.4613,0.4838,0.4932,0.4615,0.4471,0.4429,0.4403,0.3905,0.3323,0.2767,0.2231,0.1501,0.0401,0.0,-0.0529,-0.134,-0.1555,-0.1839,-0.2272,-0.2605,-0.2937,-0.3192,-0.3791,-0.4147,-0.4269,-0.468,-0.5174,-0.5702,-0.5895,-0.6463,-0.7354,-0.7035,-0.7116,-0.7525,-0.7869,-0.8052,-0.8102,-0.8365,-0.8429,-0.8345,-0.8404,-0.8496,-0.8544,-0.8468,-0.8506,-0.8571,0.0,0.0,0.0,0.0,0.0,0.0,0.0,0.0,0.0,0.0,-2.7224,-2.6052,-2.3807,-2.2714,-2.1459,-1.9747,-1.8942,-1.8072,-1.6926,0.0,0.0,-1.3064,-1.2326,-1.1805,-1.155,-1.1447,-1.1591,-1.2043,-1.2077,-1.2905,-1.4503,-1.5494,-1.688,-1.8568,-1.8989,-1.9564,-2.0168,-1.9452,-1.9308,-1.9472,-1.8717,-1.8401,-1.839,-1.8649,-1.7735,-1.6248,-1.5809,-1.4558,-1.2962,-1.1877,-1.0431,0.0,0.0,0.0,-0.2815,-0.0275,0.1161,0.2089,0.284,0.3522,0.4284,0.5365,0.5861,0.6468,0.7789,0.769,0.749,0.805,0.6859,0.5725,0.5828,0.594,0.6004,0.5947,0.5639,0.5365,0.5192,0.4741,0.3987,0.2772,0.2487,0.1865,0.0438,-0.0073,-0.058,-0.1342,-0.1736,-0.2179,-0.2684,-0.303,-0.3204,-0.3194,-0.3791,-0.4118,-0.4115,-0.4649,-0.5174,-0.5706,-0.6144,-0.649,-0.6806,-0.6883,-0.7265,-0.7941,-0.8096,-0.8274,-0.8447,-0.8672,-0.8801,-0.8865,-0.8717,-0.8717,-0.871,-0.8369,-0.849,-0.8786,0.0,0.0,0.0,0.0,0.0,0.0,0.0,0.0,0.0,0.0,0.0,-2.5845,-2.3987,-2.222,-2.0783,-1.9766,-1.8479,-1.7152,-1.572,-1.4354,-1.313,-1.2159,-1.1384,-1.0779,-1.0389,-1.0306,-1.0339,-1.0555,-1.0571,-1.1154,-1.2289,-1.3116,-1.4932,-1.7533,-1.8211,-1.8892,-1.9467,-1.9172,-1.919,-1.9427,-1.8887,-1.8558,-1.8377,-1.8669,-1.792,-1.6696,-1.6545,-1.5549,-1.4161,-1.2964,-1.1714,-1.0233,-0.7816,0.0,0.0,0.0,0.0734,0.2459,0.3911,0.4846,0.5652,0.6615,0.7241,0.7863,0.8898,0.8753,0.8455,0.8689,0.8081,0.7392,0.7009,0.7043,0.7023,0.6851,0.6626,0.6391,0.6054,0.5427,0.4642,0.3722,0.2951,0.2075,0.095,0.0263,-0.0447,-0.1229,-0.1617,-0.2053,-0.2592,-0.287,-0.318,-0.3529,-0.3881,-0.4183,-0.448,-0.4842,-0.5225,-0.5643,-0.6081,-0.6445,-0.6708,-0.6778,-0.7171,-0.7857,-0.8079,-0.8306,-0.8511,-0.8802,-0.8958,-0.9005,-0.8902,-0.8893,-0.8882,-0.8706,-0.8678,-0.8651,0.0,0.0,0.0,0.0,0.0,0.0,0.0,0.0,0.0,0.0,0.0,-2.536,-2.3898,0.0,0.0,0.0,-1.8117,-1.638,-1.4699,-1.3713,-1.2604,-1.1266,-1.0491,-0.9844,-0.9336,-0.9227,-0.9123,-0.9011,-0.908,-0.9512,-1.0322,-1.1085,-1.2941,-1.5714,-1.7193,-1.8031,-1.8371,-1.8798,-1.9084,-1.9212,-1.8847,-1.8594,-1.8439,-1.8674,-1.8106,-1.7194,-1.7206,-1.646,-1.5241,-1.4035,-1.2807,-1.1398,-0.9182,-0.6958,0.0,0.0,0.0,0.2975,0.4849,0.6018,0.6937,0.7819,0.8639,0.9378,0.9963,0.9852,0.9577,0.9538,0.9374,0.9075,0.8423,0.8255,0.8115,0.7824,0.758,0.7257,0.6753,0.5938,0.5124,0.4421,0.3292,0.2235,0.1372,0.054,-0.0268,-0.107,-0.1465,-0.1948,-0.2503,-0.2855,-0.3244,-0.3773,-0.4044,-0.4371,-0.4779,-0.5109,-0.5422,-0.5683,-0.6083,-0.6379,-0.6642,-0.6708,-0.704,-0.7601,-0.8014,-0.8339,-0.8608,-0.8926,-0.9081,-0.9081,-0.9113,-0.9081,-0.8985,-0.8985,-0.8829,-0.8576,0.0,0.0,0.0,0.0,0.0,0.0,0.0,0.0,0.0,0.0,0.0,-2.4613,-2.3198,-2.1461,-2.0294,-2.0018,-1.8153,-1.6233,-1.4448,-1.3267,-1.2033,-1.0686,-0.9762,0.0,-0.8555,-0.8363,-0.8087,-0.7704,-0.7954,-0.8291,-0.8762,-0.9928,-1.1287,-1.2847,-1.6009,-1.7299,-1.7189,-1.8596,-1.9171,-1.9042,-1.839,-1.8373,-1.8697,-1.8919,-1.833,-1.7388,-1.732,-1.664,-1.5622,-1.4598,-1.3279,-1.1859,-1.0503,-0.8316,-0.5744,0.0,0.0,0.0,0.5875,0.7183,0.8274,0.9105,1.0014,1.077,1.1156,1.11,1.0968,1.0904,1.0732,1.0549,1.0286,0.9727,0.9242,0.9036,0.8487,0.7795,0.698,0.6125,0.5234,0.4224,0.3331,0.2393,0.1414,0.0667,-0.0039,-0.0862,-0.1332,-0.1936,-0.264,-0.3236,-0.3645,-0.3806,-0.4344,-0.4687,-0.4709,-0.5463,-0.5855,-0.5888,-0.6218,-0.6387,-0.6416,-0.6749,-0.7007,-0.7265,-0.7912,-0.8436,-0.8802,-0.9145,-0.9274,-0.9306,-0.9414,-0.928,-0.8985,-0.8985,-0.8926,-0.877,0.0,0.0,0.0,0.0,0.0,0.0,0.0,0.0,0.0,0.0,0.0,0.0,0.0,-2.17,-2.0561,-1.9989,-1.7434,-1.5287,-1.395,-1.2368,-1.1049,-1.0005,-0.9199,-0.8487,-0.7942,-0.7847,-0.768,-0.7399,-0.7544,-0.774,-0.8025,-0.8758,-0.9336,-0.9934,-1.4446,-1.6545,-1.6851,-1.8331,-1.899,-1.9004,-1.868,-1.8634,-1.8775,-1.8941,-1.8351,-1.746,-1.7493,-1.7062,-1.6357,-1.5307,-1.4523,-1.3707,-1.1816,-0.9785,-0.73,-0.3186,-0.0442,0.1866,0.4472,0.5919,0.7141,0.911,1.0316,1.1181,1.1634,1.1498,1.1312,1.1436,1.1065,1.0812,1.1183,1.0578,0.9943,0.9712,0.9122,0.8551,0.8106,0.6936,0.5882,0.5192,0.3973,0.2789,0.1847,0.1026,0.0204,-0.0644,-0.1245,-0.1855,-0.2463,-0.3064,-0.3589,-0.3971,-0.4326,-0.4698,-0.5098,-0.5635,-0.5888,-0.5892,-0.6251,-0.6387,-0.642,-0.6646,-0.6937,-0.7232,-0.7694,-0.8079,-0.8468,-0.892,-0.9113,-0.9113,-0.9151,-0.9177,-0.9177,-0.9177,-0.9145,-0.9087,0.0,0.0,0.0,-2.5818,0.0,-2.5301,-2.5682,-2.5581,-2.5252,-2.4622,0.0,0.0,0.0,0.0,-2.0986,-1.9336,-1.6799,-1.4782,-1.3669,-1.2169,-1.0878,-0.9902,-0.9133,-0.8399,-0.7725,-0.7583,-0.7344,-0.6994,-0.7164,-0.7292,-0.7364,-0.7859,-0.8162,-0.8493,-1.2465,-1.4472,-1.4984,-1.677,-1.7665,-1.7934,-1.7945,-1.8077,-1.8197,-1.8105,-1.7711,-1.722,-1.705,-1.6933,-1.6722,-1.5968,-1.5477,-1.4883,-1.3043,-1.0644,-0.7703,-0.3608,-0.1579,0.0,0.2986,0.4635,0.6146,0.8857,1.0323,1.1343,1.2164,1.2147,1.1946,1.2117,1.1796,1.1594,1.1967,1.1549,1.1002,1.0439,0.9702,0.9123,0.8764,0.7435,0.6315,0.5776,0.4318,0.3067,0.2228,0.126,0.0376,-0.0453,-0.111,-0.1778,-0.2446,-0.3024,-0.3717,-0.4482,-0.4692,-0.5006,-0.5517,-0.5899,-0.6057,-0.6057,-0.635,-0.6515,-0.6515,-0.6679,-0.6937,-0.7204,-0.7563,-0.7857,-0.8172,-0.856,-0.8759,-0.8829,-0.8894,-0.9022,-0.9119,-0.9119,-0.9119,-0.9087,-2.6322,-2.577,-2.5565,-2.6,-2.561,-2.5539,-2.6499,-2.5972,-2.5381,-2.5239,0.0,0.0,0.0,0.0,0.0,-1.813,-1.6357,-1.491,-1.3707,-1.2677,-1.1592,-1.0467,-0.9571,-0.8749,-0.7922,-0.7558,-0.7062,-0.642,-0.6721,-0.6814,-0.674,-0.7233,-0.7849,-0.8552,-1.0104,-1.1068,-1.1611,-1.3978,-1.5264,-1.5803,-1.612,-1.6539,-1.6901,-1.64,-1.6396,-1.6594,-1.6015,-1.6197,-1.6648,-1.6523,-1.601,-1.5207,-1.4098,-1.0807,-0.6943,-0.4716,-0.2903,-0.1025,0.0,0.0,0.0,0.8368,1.0012,1.1264,1.27,1.2921,1.2906,1.3048,1.3031,1.2883,1.2723,1.2687,1.2311,1.1188,1.03,0.951,0.8823,0.7571,0.6491,0.5788,0.4369,0.3157,0.2444,0.139,0.0421,-0.0253,-0.0926,-0.1666,-0.2566,-0.3209,-0.4054,-0.5246,-0.5411,-0.5673,-0.5993,-0.6271,-0.6403,-0.6432,-0.6626,-0.6721,-0.6716,-0.6852,-0.7016,-0.7204,-0.7531,-0.7792,-0.7987,-0.8139,-0.8306,-0.8511,-0.8705,-0.8802,-0.8802,-0.877,-0.8802,-0.877,-2.7505,-2.8039,-2.8487,-2.8024,-2.8105,-2.8115,-2.7864,-2.712,-2.6345,0.0,0.0,0.0,-2.4654,-2.3264,-2.14,-1.8888,-1.6977,-1.5543,-1.4673,-1.2942,-1.1668,-1.1006,-1.0056,-0.9067,-0.8063,-0.7435,-0.6999,-0.6749,-0.6613,-0.6703,-0.7057,-0.7168,-0.7446,-0.7955,-0.8679,-0.9624,-1.0795,-1.3282,-1.4506,-1.4788,-1.4885,-1.5409,-1.6128,-1.5976,-1.5947,-1.5986,-1.616,-1.6137,-1.606,-1.6225,-1.5925,-1.5122,-1.3124,-1.0813,-0.8436,-0.6455,-0.505,-0.3447,-0.0441,0.0,0.0,0.0,0.0,0.0,1.0726,1.145,1.203,1.28,1.2407,1.2006,1.2288,1.1964,1.1603,1.1286,1.0726,1.0198,0.9695,0.8264,0.701,0.6275,0.4745,0.3387,0.2333,0.1497,0.0569,-0.0518,-0.1034,-0.1706,-0.2629,-0.3646,-0.4492,-0.5049,-0.5159,-0.5519,-0.622,-0.6347,-0.6557,-0.6841,-0.6837,-0.6798,-0.6704,-0.6844,-0.6944,-0.7012,-0.7237,-0.7461,-0.7652,-0.8042,-0.8236,-0.8306,-0.8339,-0.8441,-0.8576,-0.8404,-0.8474,-0.8544,-2.8027,-2.8562,-2.9188,-2.9195,-2.8694,-2.8265,-2.8213,-2.754,-2.671,0.0,0.0,0.0,-2.5287,-2.3123,-2.106,-1.9471,-1.7419,-1.5906,-1.5136,-1.3585,-1.2371,-1.1661,-1.069,-0.9563,-0.8259,-0.7684,-0.7206,-0.6791,-0.6747,-0.6903,-0.721,-0.7389,-0.7683,-0.8069,-0.8467,-0.9192,-1.0198,-1.1849,-1.296,-1.3657,-1.3969,-1.4435,-1.4915,-1.4898,-1.4999,-1.5163,-1.5071,-1.5154,-1.5389,-1.5611,-1.537,-1.4653,-1.2934,-1.1111,-0.9286,-0.7708,-0.6365,-0.4814,-0.2237,-0.0968,0.0347,0.3485,0.0,0.0,0.9967,1.0997,1.1775,1.3104,1.2772,1.2294,1.246,1.2087,1.1611,1.1341,1.0927,1.0358,0.9628,0.8281,0.7027,0.6146,0.4712,0.3369,0.2296,0.1334,0.0411,-0.0492,-0.116,-0.1973,-0.3034,-0.3823,-0.4534,-0.5126,-0.5194,-0.5538,-0.6172,-0.6386,-0.6559,-0.6698,-0.6841,-0.6856,-0.679,-0.6964,-0.7082,-0.715,-0.7268,-0.7377,-0.7513,-0.7793,-0.7936,-0.7982,-0.7982,-0.8117,-0.8284,-0.8236,-0.8304,-0.8398,0.0,-2.8252,-2.8802,-2.9589,-2.8279,-2.7313,-2.8035,-2.7605,-2.6832,0.0,-2.6772,-2.6949,-2.543,-2.2916,-2.1003,-2.0185,-1.7977,-1.6315,-1.5595,-1.4541,-1.3424,-1.2337,-1.1378,-1.0132,-0.8546,-0.8134,-0.752,-0.6647,-0.6974,-0.7138,-0.7171,-0.7759,-0.8213,-0.8565,-0.8942,-0.9384,-0.9871,-1.024,-1.1132,-1.2359,-1.3122,-1.3438,-1.3494,-1.3468,-1.3765,-1.4086,-1.3368,-1.3723,-1.456,-1.479,-1.4507,-1.3927,-1.3131,-1.1516,-0.9665,-0.8448,-0.7019,-0.5456,-0.3684,-0.2587,-0.1179,0.1979,0.3653,0.0,0.9498,1.0721,1.155,1.3388,1.3407,1.3027,1.2804,1.2417,1.192,1.1277,1.0798,1.0105,0.9035,0.7885,0.6745,0.5654,0.4386,0.3215,0.228,0.1141,0.0189,-0.0371,-0.1339,-0.243,-0.3525,-0.3853,-0.4366,-0.5229,-0.5387,-0.562,-0.602,-0.6401,-0.6472,-0.632,-0.6685,-0.6817,-0.6833,-0.7044,-0.7214,-0.7411,-0.7415,-0.7438,-0.7473,-0.7476,-0.7558,-0.7733,-0.77,-0.7816,-0.8019,-0.8138,-0.8215,-0.8297,-2.8968,-2.9724,-3.023,-2.8999,-2.9151,-2.9196,-2.8462,-2.8085,-2.7643,-2.6883,-2.6979,-2.6765,-2.579,-2.4279,-2.3012,-2.22,-1.9549,-1.7885,-1.7781,-1.5839,-1.4127,-1.2908,-1.1852,-1.0611,-0.9157,-0.8172,-0.7431,-0.693,-0.6841,-0.6843,-0.6979,-0.7782,-0.844,-0.8899,-0.9056,-0.9474,-1.0124,-1.0257,-1.0555,-1.0996,-1.1428,-1.1825,-1.2182,-1.2471,-1.2635,-1.2759,-1.3131,-1.3304,-1.3413,-1.3886,-1.3694,-1.3097,-1.2355,-1.1093,-0.9656,-0.8389,-0.7163,-0.5833,-0.4181,-0.3304,-0.2282,0.0081,0.1389,0.0,0.6498,0.8045,0.9308,1.1343,1.1861,1.1905,1.1774,1.149,1.108,1.0521,1.009,0.9604,0.8974,0.8057,0.6968,0.5651,0.4432,0.3215,0.2091,0.1221,0.0325,-0.0555,-0.1912,-0.2915,-0.35,-0.4208,-0.4713,-0.4884,-0.5448,-0.5898,-0.6255,-0.6301,-0.6436,-0.6543,-0.6474,-0.6407,-0.6423,-0.6611,-0.6726,-0.6774,-0.6777,-0.6955,-0.726,-0.7261,-0.7515,-0.7913,-0.7653,-0.7778,-0.8132,-0.7951,-0.7943,-0.8069,-2.9362,-2.9691,-3.0062,-2.9705,-2.9434,-2.9272,-2.935,-2.8613,-2.7997,-2.7866,-2.7503,-2.686,-2.5868,-2.5026,-2.3967,-2.2575,-2.1129,-1.9719,-1.8398,-1.6985,-1.5347,-1.3423,-1.2288,-1.0921,-0.9294,-0.8539,-0.7742,-0.6957,-0.6937,-0.6996,-0.7057,-0.7972,-0.8507,-0.8764,-0.9205,-0.9582,-0.9917,-1.005,-1.0153,-1.0296,-1.0861,-1.1227,-1.1449,-1.1391,-1.155,-1.1863,-1.1978,-1.2316,-1.2826,-1.3407,-1.3166,-1.2512,-1.2014,-1.0696,-0.914,-0.8075,-0.6859,-0.559,-0.4344,-0.361,-0.2841,-0.1419,-0.0052,0.0,0.0,0.6145,0.7712,0.9119,0.9886,1.0234,1.0039,0.9622,0.9455,0.9954,0.9246,0.8687,0.8724,0.7851,0.6645,0.5068,0.3998,0.2928,0.1664,0.0875,-0.0144,-0.1383,-0.2408,-0.3172,-0.368,-0.4216,-0.4617,-0.4879,-0.53,-0.5676,-0.6051,-0.6097,-0.6138,-0.6251,-0.6296,-0.6294,-0.6294,-0.6522,-0.6663,-0.6767,-0.6757,-0.6915,-0.7208,-0.7192,-0.7533,-0.796,-0.7759,-0.7845,-0.8136,-0.7977,-0.8009,-0.8205,-2.9634,-2.9341,-2.9468,-3.0216,-2.9281,-2.8766,-2.9715,-2.877,-2.81,-2.845,-2.7823,-2.7087,-2.6385,-2.5892,-2.4995,-2.349,-2.304,-2.1729,-1.9157,-1.8221,-1.676,-1.4444,-1.3055,-1.1554,-0.9862,-0.9208,-0.8316,-0.7108,-0.7167,-0.722,-0.7229,-0.808,-0.8509,-0.8555,-0.9216,-0.9552,-0.9576,-0.9767,-0.9849,-0.9859,-1.0563,-1.0863,-1.0834,-1.0526,-1.0697,-1.1083,-1.0758,-1.1343,-1.234,-1.2826,-1.2466,-1.1774,-1.1446,-1.0081,-0.8414,-0.756,-0.64,-0.5175,-0.4293,-0.3736,-0.3204,-0.2398,-0.1167,0.0386,0.0,0.0,0.0,0.6886,0.7714,0.8167,0.7907,0.7592,0.7774,0.9057,0.8415,0.7879,0.8339,0.7411,0.6153,0.4649,0.3736,0.2703,0.1404,0.0402,-0.0748,-0.2209,-0.2704,-0.3186,-0.3863,-0.4134,-0.4515,-0.495,-0.5123,-0.5424,-0.5788,-0.575,-0.5757,-0.5827,-0.5999,-0.6103,-0.6103,-0.6331,-0.6521,-0.6703,-0.6723,-0.6859,-0.7092,-0.7187,-0.7459,-0.7908,-0.7835,-0.7971,-0.8171,-0.8112,-0.8215,-0.8443,-2.996,-2.9691,-2.9496,-2.8807,-2.8613,-2.8512,-2.8279,-2.8014,-2.7885,-2.8049,-2.7367,-2.7291,-2.8419,-2.7656,-2.7178,-2.75,-2.5782,-2.3893,-2.1962,-1.988,-1.8136,-1.6769,-1.4714,-1.3124,-1.2066,-1.0422,-0.8986,-0.7783,-0.7395,-0.722,-0.73,-0.7828,-0.8272,-0.8679,-0.8826,-0.9131,-0.9511,-0.9652,-0.9599,-0.9387,-0.9731,-0.9964,-1.0154,-1.0248,-1.0256,-1.0193,-1.0379,-1.0862,-1.1452,-1.1532,-1.1031,-1.0358,-0.9906,-0.8871,-0.7657,-0.6846,-0.6007,-0.511,-0.4183,-0.3889,-0.3566,-0.2401,-0.2154,-0.1546,0.0885,0.0,0.3011,0.4828,0.0,0.5539,0.549,0.0,0.0,0.6856,0.7456,0.7835,0.7644,0.6685,0.5758,0.5074,0.42,0.308,0.1622,0.0148,-0.1181,-0.2304,-0.2547,-0.2988,-0.3789,-0.4318,-0.469,-0.4806,-0.5202,-0.5474,-0.5726,-0.532,-0.5258,-0.5531,-0.5454,-0.5398,-0.5437,-0.5634,-0.5828,-0.6015,-0.5999,-0.6272,-0.6679,-0.7046,-0.7345,-0.7584,-0.7751,-0.8118,-0.8528,-0.8413,-0.8359,-0.8429,-3.1241,-3.0612,-3.0044,-2.9742,-2.9175,-2.8799,-2.8904,-2.898,-2.8755,-2.7977,-2.7844,-2.785,-2.8076,-2.8099,-2.7816,-2.7037,-2.7379,-2.6235,-2.2989,-2.2063,-2.0604,-1.8306,-1.6162,-1.4351,-1.2959,-1.1304,-0.9784,-0.8412,-0.7904,-0.7491,-0.7179,-0.754,-0.7723,-0.7803,-0.8147,-0.8447,-0.8629,-0.8882,-0.9092,-0.9233,-0.9192,-0.947,-0.9919,-0.9723,-0.9674,-0.9738,-1.0275,-1.0624,-1.0914,-1.133,-1.0788,-0.9962,-0.9882,-0.8773,-0.7468,-0.7117,-0.6418,-0.5601,-0.4853,-0.4633,-0.4353,-0.3342,-0.2887,-0.2328,-0.0975,0.0186,0.1097,0.1564,0.0,0.0,0.0,0.0,0.0,0.0,0.5614,0.6015,0.6096,0.5559,0.5023,0.469,0.3841,0.27,0.1175,-0.0198,-0.1346,-0.2093,-0.2888,-0.3584,-0.4071,-0.4608,-0.5041,-0.527,-0.5269,-0.5472,-0.5814,-0.5311,-0.5217,-0.5514,-0.5463,-0.5401,-0.5321,-0.5518,-0.5712,-0.5902,-0.606,-0.637,-0.6791,-0.7065,-0.7334,-0.7514,-0.7711,-0.8005,-0.8296,-0.8231,-0.8291,-0.8402,-3.2434,-3.1478,-3.0569,-3.0418,-2.9714,-2.9264,-2.9486,-2.9383,-2.8958,-2.8031,-2.793,-2.792,-2.7811,-2.8359,-2.8324,-2.7304,-2.8526,-2.7842,-2.4328,-2.3705,-2.2556,-2.0447,-1.7941,-1.5995,-1.4742,-1.277,-1.099,-0.9386,-0.8607,-0.7897,-0.7257,-0.7365,-0.7301,-0.7068,-0.7505,-0.7799,-0.7976,-0.8384,-0.8671,-0.8867,-0.896,-0.9209,-0.95,-0.9309,-0.9309,-0.9445,-0.9931,-1.0086,-1.0188,-1.0765,-1.0297,-0.953,-0.9589,-0.8604,-0.7407,-0.7262,-0.6672,-0.5933,-0.5341,-0.5159,-0.4963,-0.4236,-0.3638,-0.3067,-0.238,-0.1312,-0.0582,-0.0941,-0.0447,0.0,0.0,0.0,0.0962,0.2516,0.0,0.3585,0.4038,0.3848,0.3797,0.4056,0.3326,0.225,0.0825,-0.0347,-0.1301,-0.1953,-0.2979,-0.3795,-0.4166,-0.4649,-0.5108,-0.545,-0.5232,-0.5346,-0.5768,-0.5198,-0.5084,-0.5363,-0.5404,-0.5365,-0.5207,-0.5365,-0.5556,-0.5825,-0.6025,-0.6331,-0.6753,-0.7026,-0.7215,-0.7369,-0.7684,-0.7838,-0.7855,-0.8023,-0.8134,-0.8174,-3.3256,-3.2124,-3.0896,-2.9984,-2.9852,-2.9745,-2.9377,-2.8431,-2.7867,-2.8141,-2.7235,-2.7063,-2.8421,-2.8701,-2.9141,-3.0002,-2.9358,-2.8277,-2.6791,-2.4428,-2.333,-2.3823,-2.0304,-1.832,-1.8322,-1.5305,-1.2762,-1.0846,-0.9457,-0.8398,-0.7655,-0.7365,-0.7099,-0.6896,-0.693,-0.7276,-0.7846,-0.8452,-0.8453,-0.812,-0.9106,-0.9097,-0.8592,-0.9099,-0.9343,-0.9365,-0.9148,-0.9041,-0.9064,-0.9215,-0.9071,-0.8776,-0.8462,-0.7972,-0.7397,-0.6888,-0.6374,-0.5872,-0.5263,-0.5182,-0.5198,-0.4767,-0.4513,-0.4082,-0.3009,-0.2488,-0.2142,-0.182,-0.2252,-0.2992,-0.4048,-0.3536,-0.2474,-0.1061,-0.0113,0.0,0.0,0.1449,0.1891,0.3418,0.2815,0.182,0.0809,-0.0049,-0.0934,-0.1917,-0.2497,-0.3149,-0.3875,-0.4281,-0.4714,-0.5126,-0.497,-0.5085,-0.5411,-0.4824,-0.4678,-0.5032,-0.501,-0.5018,-0.5018,-0.5018,-0.5249,-0.5598,-0.5637,-0.587,-0.6335,-0.6753,-0.6903,-0.698,-0.7569,-0.7569,-0.7296,-0.7868,-0.7868,-0.7557,-3.2726,-3.2261,-3.1665,-3.1099,-3.0068,-2.9184,-2.8826,-2.8949,-2.8825,-2.8109,-2.7935,-2.7824,-2.7693,-2.8184,-2.8488,-2.8419,-2.8971,-2.8473,-2.6538,-2.5152,-2.4267,-2.3954,-2.0937,-1.8905,-1.8196,-1.5792,-1.3471,-1.1285,-0.9928,-0.877,-0.7825,-0.7116,-0.6598,-0.6247,-0.6089,-0.6325,-0.6834,-0.7176,-0.7455,-0.7721,-0.8344,-0.8343,-0.8026,-0.8422,-0.8513,-0.8477,-0.8457,-0.8473,-0.8514,-0.8842,-0.8694,-0.8408,-0.8436,-0.8074,-0.7567,-0.7267,-0.6867,-0.6394,-0.5798,-0.5596,-0.5438,-0.4961,-0.4815,-0.4639,-0.3993,-0.3675,-0.3552,-0.3737,-0.4181,-0.4746,-0.545,-0.5398,-0.4976,-0.4228,-0.3229,-0.2465,0.0,-0.2156,-0.1628,-0.0382,0.0377,0.0622,0.009,-0.0237,-0.0982,-0.2355,-0.2962,-0.3526,-0.4194,-0.4548,-0.4869,-0.5225,-0.507,-0.511,-0.5416,-0.5029,-0.496,-0.5199,-0.5206,-0.5285,-0.5404,-0.5404,-0.5637,-0.6067,-0.6219,-0.6486,-0.6914,-0.7176,-0.7134,-0.6942,-0.7407,-0.7257,-0.6911,-0.7646,-0.7716,-0.7458,-3.1799,-3.1574,-3.1291,-3.0853,-2.9544,-2.8485,-2.8372,-2.8663,-2.8597,-2.7786,-2.7613,-2.7384,-2.6893,-2.7266,-2.752,-2.7496,-2.7791,-2.7538,-2.6555,-2.4924,-2.4079,-2.4246,-2.1478,-1.9592,-1.8834,-1.6635,-1.4285,-1.1783,-1.0419,-0.8984,-0.7513,-0.6971,-0.6289,-0.5589,-0.5509,-0.567,-0.5986,-0.6328,-0.6695,-0.7069,-0.7381,-0.7348,-0.7111,-0.7288,-0.7527,-0.7795,-0.7902,-0.7871,-0.782,-0.8157,-0.8077,-0.7825,-0.7981,-0.7779,-0.7408,-0.7233,-0.6957,-0.6575,-0.6052,-0.5834,-0.5663,-0.5251,-0.51,-0.4983,-0.4791,-0.4714,-0.4783,-0.5138,-0.5841,-0.654,-0.7031,-0.7395,-0.7399,-0.676,-0.6053,-0.5445,0.0,-0.5298,-0.497,-0.334,-0.1515,-0.038,-0.0381,-0.0733,-0.1345,-0.2161,-0.3134,-0.3824,-0.4193,-0.4452,-0.4731,-0.5134,-0.5056,-0.5144,-0.5416,-0.5152,-0.5082,-0.5199,-0.5283,-0.5359,-0.5479,-0.5559,-0.5792,-0.618,-0.6409,-0.6644,-0.6914,-0.7176,-0.7134,-0.6942,-0.7253,-0.7173,-0.6954,-0.7469,-0.7462,-0.719,-3.0526,-3.0124,-2.9747,-2.9237,-2.836,-2.7785,-2.8002,-2.7548,-2.7227,-2.7274,-2.636,-2.5824,-2.6118,-2.6028,-2.633,-2.7286,-2.598,-2.559,-2.6721,-2.3727,-2.2739,-2.4606,-2.191,-2.0292,-2.0187,-1.7808,-1.5178,-1.2282,-1.0894,-0.9039,-0.6869,-0.6866,-0.6209,-0.5032,-0.5207,-0.5251,-0.529,-0.5896,-0.6149,-0.6168,-0.6257,-0.6165,-0.5891,-0.5805,-0.6377,-0.7281,-0.7408,-0.7223,-0.6975,-0.7197,-0.7165,-0.7048,-0.7127,-0.7076,-0.6928,-0.6795,-0.6606,-0.6345,-0.5981,-0.5843,-0.5769,-0.5621,-0.5341,-0.5156,-0.5401,-0.5595,-0.5827,-0.6043,-0.7239,-0.8399,-0.8829,-0.9589,-0.9831,-0.8768,-0.8633,-0.8218,-0.6944,-0.8039,-0.8033,-0.545,-0.3086,-0.1438,-0.0764,-0.1573,-0.1978,-0.1615,-0.311,-0.4035,-0.3929,-0.4039,-0.4338,-0.4772,-0.4935,-0.5097,-0.5364,-0.515,-0.5037,-0.503,-0.5203,-0.5321,-0.5321,-0.5521,-0.5712,-0.5941,-0.6219,-0.6338,-0.6377,-0.6753,-0.6903,-0.6903,-0.7142,-0.7289,-0.7401,-0.7381,-0.714,-0.6816,-2.88,-2.7854,-2.7143,-2.696,-2.7525,-2.7839,-2.7284,-2.7128,-2.6986,-2.6814,-2.6167,-2.5652,-2.5535,-2.5313,-2.532,-2.5681,-2.4591,-2.3863,-2.3891,-2.1873,-2.0926,-2.1534,-2.0281,-1.9173,-1.8305,-1.7168,-1.519,-1.2297,-1.0772,-0.9365,-0.8039,-0.6855,-0.6064,-0.5639,-0.4983,-0.4701,-0.4736,-0.5121,-0.5374,-0.5518,-0.5227,-0.4971,-0.4746,-0.4976,-0.5222,-0.5571,-0.6237,-0.6404,-0.6359,-0.6625,-0.6504,-0.6311,-0.6544,-0.6436,-0.6233,-0.6157,-0.5839,-0.5509,-0.5409,-0.4984,-0.4714,-0.5368,-0.5315,-0.5275,-0.5986,-0.6339,-0.667,-0.7163,-0.8187,-0.9298,-1.0182,-1.15,-1.2224,-1.148,-1.1146,-1.0851,-1.0576,-1.0991,-1.0636,-0.8828,-0.7754,-0.6154,-0.3505,-0.365,-0.3974,-0.4089,-0.4606,-0.477,-0.4294,-0.4305,-0.4396,-0.4583,-0.4704,-0.4844,-0.4944,-0.5149,-0.5284,-0.536,-0.548,-0.5595,-0.5747,-0.5786,-0.5944,-0.6219,-0.6412,-0.6602,-0.6753,-0.7022,-0.7022,-0.6942,-0.7292,-0.7399,-0.7312,-0.7313,-0.7152,-0.6942,-2.7539,-2.6446,-2.556,-2.5175,-2.5796,-2.6269,-2.5967,-2.5981,-2.5886,-2.5508,-2.5037,-2.4709,-2.4597,-2.4476,-2.4374,-2.4368,-2.3247,-2.252,-2.2497,-2.0626,-1.976,-2.038,-1.9622,-1.8687,-1.7616,-1.718,-1.5423,-1.2254,-1.114,-0.9734,-0.7984,-0.695,-0.6246,-0.5866,-0.4891,-0.4459,-0.4499,-0.4477,-0.4472,-0.4452,-0.4252,-0.4009,0.0,-0.3942,-0.4162,-0.4417,-0.4932,-0.5411,-0.58,-0.5848,-0.5708,-0.5534,-0.5632,-0.5514,-0.5351,-0.5432,-0.522,-0.4935,-0.4948,-0.4644,-0.4486,-0.499,-0.5084,-0.528,-0.6163,-0.6869,-0.7489,-0.7885,-0.8972,-1.0068,-1.078,-1.2026,-1.2985,-1.3092,-1.2867,-1.2666,-1.2486,-1.2573,-1.2058,-1.043,-0.9875,-0.8782,-0.6584,-0.6028,-0.5501,-0.4791,-0.5388,-0.5398,-0.4567,-0.4407,-0.4359,-0.4465,-0.4602,-0.4767,-0.4883,-0.5037,-0.5178,-0.5431,-0.5385,-0.5571,-0.5902,-0.5902,-0.6096,-0.6451,-0.6641,-0.6828,-0.7008,-0.7134,-0.7184,-0.7164,-0.7485,-0.7577,-0.7465,-0.7547,-0.7292,-0.6923,-2.6608,-2.5498,-2.4533,-2.3846,-2.3835,-2.3969,-2.4177,-2.4368,-2.4375,-2.4016,-2.3584,-2.3354,-2.3483,-2.347,-2.3398,-2.3231,-2.1972,-2.1354,-2.1742,-1.9737,-1.8977,-2.0005,-1.9364,-1.861,-1.7748,-1.7547,-1.5866,-1.2617,-1.1903,-1.0273,-0.7823,-0.7288,-0.6676,-0.6024,-0.4973,-0.4488,-0.4362,-0.3934,-0.3559,-0.3302,-0.3348,-0.3172,-0.2863,-0.2898,-0.3143,-0.3533,-0.3664,-0.4348,-0.517,-0.4935,-0.4827,-0.4783,-0.4623,-0.4512,-0.4491,-0.4708,-0.4651,-0.4495,-0.4515,-0.4534,-0.4541,-0.4578,-0.4757,-0.5154,-0.5974,-0.7047,-0.791,-0.8118,-0.9341,-1.046,-1.0777,-1.1711,-1.279,-1.3922,-1.3936,-1.3652,-1.3245,-1.3227,-1.2712,-1.1198,-1.0672,0.0,-0.961,-0.8395,-0.6849,-0.4978,-0.5976,-0.6083,-0.4838,-0.4472,-0.4344,-0.4455,-0.4626,-0.4786,-0.4989,-0.4903,-0.5012,-0.5258,-0.5235,-0.5439,-0.5864,-0.5941,-0.6173,-0.6563,-0.6788,-0.6947,-0.7113,-0.7188,-0.7309,-0.7501,-0.7749,-0.7821,-0.7786,-0.7854,-0.7567,-0.6997,-2.5855,-2.4466,-2.3334,-2.3317,-2.3065,-2.26,-2.1785,-2.2697,-2.3547,-2.3792,-2.2917,-2.2305,-2.2369,-2.2328,-2.2273,-2.2249,-2.0915,-2.0049,-1.9968,-1.8792,-1.8135,-1.817,-1.8712,-1.8832,-1.8437,-1.7958,-1.6764,-1.4749,-1.3164,-1.1599,-1.0072,-0.8462,-0.7443,-0.6835,-0.5719,-0.4748,-0.3909,-0.3467,-0.3132,-0.2814,-0.2639,-0.2227,-0.1744,-0.2191,-0.2191,-0.2105,-0.2848,-0.3607,-0.4226,-0.4133,-0.4198,-0.4294,-0.4048,-0.4098,-0.4245,-0.4187,-0.4061,-0.3971,-0.4085,-0.391,-0.3831,-0.4321,-0.4556,-0.4814,-0.5351,-0.6014,-0.6713,-0.7348,-0.8398,-0.9467,-1.0409,-1.135,-1.2609,-1.4427,-1.39,-1.3186,-1.3058,-1.337,-1.3389,-1.2839,-1.2109,-1.1593,-1.1381,-1.0231,-0.8837,-0.7186,-0.7618,-0.7093,-0.5125,-0.4903,-0.4843,-0.4825,-0.4751,-0.4754,-0.4846,-0.5216,-0.531,-0.5135,-0.5681,-0.5842,-0.5676,-0.6064,-0.6257,-0.6377,-0.6563,-0.6848,-0.7196,-0.7301,-0.7564,-0.7885,-0.7926,-0.8039,-0.8163,-0.7982,-0.7951,-0.792,-2.4265,-2.3297,-2.2367,-2.2068,-2.2128,-2.1874,-2.0861,-2.1113,-2.1521,-2.1693,-2.1452,-2.1237,-2.1137,-2.1286,-2.114,-2.0591,-1.9578,-1.8872,-1.8678,-1.7822,-1.744,-1.7752,-1.835,-1.8521,-1.818,-1.8126,-1.709,-1.498,-1.3891,-1.2451,-1.0673,-0.9391,-0.8493,-0.7835,-0.6044,-0.4519,-0.326,-0.2777,-0.239,-0.212,-0.1864,-0.1578,-0.1299,-0.1465,-0.1626,-0.1817,-0.2183,-0.2687,-0.3166,-0.3263,-0.3505,-0.3716,-0.3341,-0.3411,-0.3633,-0.3691,-0.3655,-0.3676,-0.3843,-0.3772,-0.3731,-0.4024,-0.4274,-0.4508,-0.4727,-0.5471,-0.6272,-0.6905,-0.7897,-0.909,-1.0595,-1.1741,-1.2664,-1.3259,-1.3247,-1.2958,-1.2366,-1.2582,-1.2718,-1.2503,-1.1985,-1.1646,-1.1673,-1.094,-0.989,-0.8524,-0.862,-0.7904,-0.586,-0.5353,-0.4971,-0.464,-0.4599,-0.4553,-0.4544,-0.4841,-0.4992,-0.5071,-0.53,-0.5607,-0.5951,-0.606,-0.6331,-0.676,-0.6872,-0.7157,-0.7525,-0.7652,-0.7813,-0.8012,-0.8012,-0.8167,-0.8458,-0.8331,-0.8473,-0.8673,-2.2749,-2.216,-2.1443,-2.0793,-2.103,-2.098,-2.0028,-1.9576,-1.9425,-1.9679,-1.999,-2.0131,-2.0004,-2.0245,-2.0065,-1.9233,-1.8522,-1.803,-1.7812,-1.7255,-1.7183,-1.7664,-1.8157,-1.8276,-1.7989,-1.814,-1.7213,-1.5079,-1.4547,-1.3164,-1.1027,-1.0224,-0.9296,-0.8212,-0.5958,-0.4123,-0.271,-0.22,-0.1757,-0.1372,-0.1269,-0.1145,-0.0992,-0.0986,-0.1223,-0.1584,-0.1635,-0.1918,-0.2276,-0.2464,-0.2843,-0.3199,-0.2803,-0.2886,-0.3133,-0.3226,-0.3351,-0.3513,-0.3614,-0.3689,-0.3736,-0.3727,-0.3937,-0.4183,-0.4183,-0.4911,-0.5771,-0.6379,-0.7368,-0.8676,-1.0577,-1.1472,-1.1876,-1.176,-1.2114,-1.2136,-1.1338,-1.1485,-1.1644,-1.1538,-1.1495,-1.1564,-1.1837,-1.1521,-1.0859,-0.9812,-0.9447,-0.8488,-0.6714,-0.5821,-0.5172,-0.4789,-0.4518,-0.4416,-0.4433,-0.4518,-0.4675,-0.4946,-0.5002,-0.5408,-0.6145,-0.6022,-0.6405,-0.7142,-0.7181,-0.745,-0.7865,-0.8,-0.8077,-0.8114,-0.8155,-0.8426,-0.8802,-0.8721,-0.8948,-0.9224,-2.1947,-2.1189,-2.0407,-1.9962,-1.9544,-1.9029,-1.8326,-1.7989,-1.8197,-1.9284,-1.9117,-1.8992,-1.9253,-1.9212,-1.9121,-1.902,-1.8344,-1.778,-1.7478,-1.7648,-1.7659,-1.7361,-1.8031,-1.8462,-1.8624,-1.8005,-1.7242,-1.6334,-1.5329,-1.3922,-1.2111,-1.1136,-0.941,-0.6984,-0.5166,-0.3683,-0.2511,-0.2083,-0.1454,-0.0746,-0.1137,-0.094,-0.043,-0.0955,-0.088,-0.0541,-0.1185,-0.1563,-0.1795,-0.187,-0.2327,-0.2823,-0.266,-0.2868,-0.314,-0.2854,-0.3074,-0.3374,-0.3215,-0.3355,-0.3525,-0.3458,-0.359,-0.3775,-0.3824,-0.4066,-0.452,-0.5369,-0.6384,-0.7721,-0.9653,-0.9112,-0.9008,-1.0945,-1.0482,-0.9868,-0.9949,-1.0352,-1.0645,-1.062,-1.1456,-1.2216,-1.2632,-1.2596,-1.2225,-1.1517,-1.0184,-0.8811,-0.747,-0.6392,-0.5874,-0.5923,-0.4899,-0.4529,-0.4921,-0.4823,-0.4765,-0.4743,-0.5406,-0.5683,-0.5676,-0.6067,-0.6486,-0.6949,-0.7064,-0.7423,-0.7992,-0.818,-0.8367,-0.8573,-0.8745,-0.9083,-0.9465,-0.9024,-0.9155,-0.9476,-2.0532,-2.012,-1.9512,-1.8537,-1.8402,-1.8105,-1.7082,-1.6664,-1.6576,-1.6827,-1.7481,-1.7895,-1.7875,-1.7902,-1.7696,-1.7122,-1.6617,-1.6256,-1.6036,-1.6123,-1.6269,-1.638,-1.6907,-1.7157,-1.7086,-1.6801,-1.6162,-1.5192,-1.426,-1.3117,-1.1721,-1.0565,-0.8544,-0.5887,-0.4284,-0.2904,-0.1721,-0.1065,-0.0471,-0.0079,-0.0239,-0.0199,-0.0157,-0.0395,-0.0542,-0.0714,-0.1009,-0.1267,-0.1493,-0.1763,-0.221,-0.2656,-0.2424,-0.2569,-0.2788,-0.2548,-0.276,-0.3072,-0.2998,-0.3079,-0.3155,-0.3024,-0.309,-0.3188,-0.3041,-0.3639,-0.4356,-0.4816,-0.5971,-0.7152,-0.8005,-0.8282,-0.837,-0.8317,-0.858,-0.8597,-0.8079,-0.8613,-0.9205,-0.9598,-1.0601,-1.1474,-1.2077,-1.2075,-1.1974,-1.1814,-1.0712,-0.9413,-0.7929,-0.7253,-0.6566,-0.5838,-0.5425,-0.5075,-0.4837,-0.5064,-0.4997,-0.4701,-0.5253,-0.5605,-0.5789,-0.5983,-0.6483,-0.7253,-0.7324,-0.7731,-0.8434,-0.8348,-0.8437,-0.8601,-0.8538,-0.8841,-0.9191,-0.8901,-0.9109,-0.9548,-1.8942,-1.862,-1.8104,-1.6878,-1.6847,-1.6687,-1.5764,-1.5404,-1.5083,-1.4732,-1.5572,-1.6222,-1.6358,-1.6422,-1.6146,-1.5391,-1.5109,-1.4914,-1.4773,-1.4898,-1.5087,-1.5331,-1.5548,-1.5522,-1.5155,-1.4973,-1.4403,-1.344,-1.2668,-1.1718,-1.059,-0.9096,-0.7203,-0.4959,-0.3546,-0.2223,-0.1054,-0.0319,0.0198,0.0517,0.0445,0.0322,0.0199,0.004,-0.0275,-0.0635,-0.0761,-0.0957,-0.1223,-0.159,-0.1891,-0.2136,-0.2088,-0.2263,-0.2446,-0.2236,-0.2492,-0.2809,-0.2689,-0.2745,-0.2783,-0.256,-0.2532,-0.2532,-0.2378,-0.3083,-0.3864,-0.4228,-0.5159,-0.5995,-0.6224,-0.684,-0.7114,-0.647,-0.6878,-0.7211,-0.6903,-0.7482,-0.8196,-0.8887,-1.0159,-1.1195,-1.1801,-1.187,-1.189,-1.19,-1.0902,-0.9773,-0.8527,-0.7836,-0.7002,-0.6047,-0.5732,-0.5403,-0.5015,-0.5062,-0.4993,-0.4866,-0.5124,-0.5434,-0.5902,-0.6093,-0.6659,-0.748,-0.7504,-0.7862,-0.8405,-0.8299,-0.835,-0.853,-0.8513,-0.8789,-0.916,-0.8882,-0.9206,-0.9774,-1.7228,-1.6611,-1.6021,-1.5105,-1.4609,-1.435,-1.433,-1.414,-1.3889,-1.3575,-1.3372,-1.3692,-1.4796,-1.4797,-1.4601,-1.4248,-1.4216,-1.4155,-1.403,-1.4393,-1.4504,-1.4235,-1.4104,-1.3736,-1.3143,-1.2554,-1.1981,-1.1452,-1.0701,-0.9808,-0.8776,-0.6697,-0.5265,-0.4364,-0.3096,-0.1819,-0.0568,-0.0163,0.0366,0.0977,0.057,0.0529,0.0651,0.0163,0.0,-0.0078,-0.0471,-0.0734,-0.0942,-0.1139,-0.1181,-0.1214,-0.1672,-0.1989,-0.2156,-0.197,-0.2269,-0.2625,-0.2214,-0.2296,-0.2436,-0.2097,-0.192,-0.1848,-0.1965,-0.2286,-0.2722,-0.345,-0.3722,-0.3994,-0.4454,-0.4258,-0.4561,-0.6067,-0.5542,-0.5429,-0.6812,-0.7336,-0.7882,-0.8624,-1.0415,-1.1758,-1.2133,-1.242,-1.2414,-1.1928,-1.0618,-0.97,-0.9401,-0.7929,-0.708,-0.7005,-0.5697,-0.5233,-0.5675,-0.4758,-0.4657,-0.528,-0.5079,-0.5315,-0.5941,-0.6595,-0.7067,-0.7414,-0.748,-0.7624,-0.784,-0.8034,-0.8233,-0.8445,-0.8846,-0.9252,-0.955,-0.9141,-0.9533,-1.021,-1.6308,-1.574,-1.5109,-1.4416,-1.4004,-1.368,-1.3397,-1.2985,-1.2663,-1.2563,-1.2126,-1.1878,-1.2014,-1.286,-1.3205,-1.2732,-1.271,-1.2647,-1.2565,-1.2679,-1.267,-1.2487,-1.2322,-1.1883,-1.1143,-1.0809,-1.0213,-0.9411,-0.8719,-0.7412,-0.5569,-0.4763,-0.3739,-0.2461,-0.157,-0.0765,0.0043,0.0629,0.1,0.121,0.11,0.1139,0.1123,0.0666,0.0407,0.0196,-0.0236,-0.0497,-0.0626,-0.0767,-0.068,-0.0559,-0.0686,-0.0991,-0.127,-0.1143,-0.1327,-0.1528,-0.118,-0.1204,-0.1285,-0.1108,-0.1115,-0.1184,-0.1246,-0.176,-0.2406,-0.3012,-0.2984,-0.2903,-0.3056,-0.2805,-0.285,-0.3708,-0.3436,-0.3583,-0.4902,-0.5649,-0.6552,-0.7919,-0.9342,-1.0558,-1.1316,-1.1495,-1.1402,-1.1028,-0.9851,-0.8986,-0.8714,-0.786,-0.7121,-0.6548,-0.6146,-0.5769,-0.5385,-0.5149,-0.5038,-0.4961,-0.5123,-0.5553,-0.618,-0.6525,-0.6898,-0.7258,-0.7281,-0.7478,-0.7811,-0.7861,-0.8077,-0.8401,-0.8405,-0.8635,-0.8948,-0.87,-0.9032,-0.9589,-1.525,-1.4585,-1.3946,-1.3449,-1.2931,-1.2549,-1.2372,-1.1926,-1.1588,-1.1478,-1.1064,-1.0592,-1.0147,-1.0856,-1.1314,-1.1231,-1.1262,-1.1261,-1.1249,-1.1204,-1.1096,-1.091,-1.0574,-1.0029,-0.9329,-0.8865,-0.8231,-0.7434,-0.6442,-0.5109,-0.355,-0.3015,-0.223,-0.1216,-0.0518,0.0086,0.0609,0.103,0.1279,0.1451,0.1426,0.1501,0.1597,0.122,0.0982,0.0786,0.0314,0.0115,0.0,-0.0185,-0.0073,0.0142,0.0107,-0.0069,-0.0296,-0.0369,-0.055,-0.068,-0.0411,-0.0282,-0.0246,-0.0308,-0.0404,-0.0503,-0.0732,-0.1028,-0.1396,-0.1818,-0.1569,-0.1314,-0.136,-0.096,-0.0856,-0.1477,-0.1498,-0.1908,-0.3262,-0.4368,-0.5646,-0.732,-0.8431,-0.9458,-1.0438,-1.0525,-1.0412,-1.0193,-0.8908,-0.8002,-0.7672,-0.7279,-0.6824,-0.6246,-0.603,-0.5706,-0.5201,-0.5134,-0.5058,-0.4947,-0.5342,-0.5789,-0.63,-0.6525,-0.6791,-0.7103,-0.7208,-0.739,-0.7612,-0.7915,-0.8082,-0.8192,-0.8268,-0.848,-0.8701,-0.8545,-0.8968,-0.9533,-1.4128,-1.3338,-1.2659,-1.2341,-1.1608,-1.1149,-1.1298,-1.0999,-1.065,-1.0381,-1.0134,-0.9755,-0.9094,-0.8946,-0.9122,-0.967,-0.9877,-0.996,-0.9968,-0.9892,-0.9707,-0.9463,-0.8876,-0.8271,-0.7684,-0.683,-0.6087,-0.5477,-0.3948,-0.2953,-0.2523,-0.151,-0.0843,-0.0436,0.0178,0.0666,0.1047,0.1047,0.1308,0.1654,0.1477,0.1673,0.198,0.1763,0.1677,0.1579,0.1101,0.0904,0.0863,0.0458,0.0596,0.0877,0.0694,0.0742,0.0753,0.0288,0.0102,0.0031,0.0199,0.0518,0.0683,0.0311,0.0286,0.0196,-0.0367,-0.0137,0.014,-0.0035,0.0321,0.0649,0.0598,0.1143,0.1323,0.0578,0.0251,-0.0411,-0.1939,-0.3484,-0.5089,-0.6798,-0.7605,-0.8459,-0.9527,-0.9489,-0.9321,-0.9279,-0.7831,-0.6751,-0.629,-0.6251,-0.616,-0.598,-0.5431,-0.515,-0.5178,-0.4765,-0.4741,-0.5133,-0.5611,-0.6018,-0.63,-0.6525,-0.6721,-0.6929,-0.7226,-0.7289,-0.725,-0.802,-0.8108,-0.7876,-0.8441,-0.8672,-0.8707,-0.8702,-0.9238,-0.9908,-1.3618,-1.3008,-1.2413,-1.1993,-1.1357,-1.085,-1.0738,-1.0368,-1.0051,-0.9809,-0.9343,-0.8835,-0.8379,-0.8153,-0.7969,-0.7831,-0.8351,-0.8609,-0.8505,-0.8354,-0.8152,-0.7996,-0.7359,-0.6751,-0.6212,-0.5493,-0.4541,-0.3326,-0.2545,-0.1734,-0.0934,-0.0671,-0.0134,0.0712,0.085,0.1073,0.1336,0.1738,0.1737,0.1467,0.1662,0.1863,0.2062,0.1742,0.1768,0.1896,0.1393,0.1113,0.0923,0.0615,0.0679,0.0938,0.1088,0.1138,0.1077,0.0981,0.1024,0.1194,0.1487,0.1615,0.1625,0.1326,0.0961,0.0634,0.0503,0.0721,0.0981,0.1084,0.1855,0.2465,0.2449,0.2926,0.3071,0.232,0.1593,0.0519,-0.1338,-0.246,-0.3833,-0.5927,-0.6321,-0.686,-0.7959,-0.8017,-0.7758,-0.7193,-0.6613,-0.5857,-0.483,-0.4607,-0.4619,-0.4853,-0.474,-0.4695,-0.4741,-0.4286,-0.4223,-0.4577,-0.5176,-0.575,-0.63,-0.6525,-0.6666,-0.6817,-0.6962,-0.7051,-0.713,-0.7395,-0.7679,-0.803,-0.8178,-0.8435,-0.8736,-0.8885,-0.915,-0.9454,-1.3081,-1.2557,-1.2017,-1.1465,-1.0907,-1.04,-0.9992,-0.9695,-0.9392,-0.9089,-0.867,-0.825,-0.7757,-0.7277,-0.6912,-0.663,-0.729,-0.7603,-0.7389,-0.7131,-0.6874,-0.6535,-0.5908,-0.5337,-0.4892,-0.4112,-0.3098,-0.1822,-0.102,-0.0403,0.009,0.0448,0.0897,0.1436,0.157,0.166,0.1794,0.2064,0.2019,0.1748,0.1772,0.1961,0.2135,0.179,0.1942,0.2267,0.1751,0.1636,0.1658,0.1209,0.1185,0.1328,0.142,0.1465,0.1502,0.1723,0.1837,0.1931,0.2063,0.2304,0.2447,0.2035,0.1644,0.1375,0.1495,0.1746,0.2003,0.2318,0.302,0.3527,0.3374,0.3697,0.3734,0.2956,0.2096,0.0962,-0.0624,-0.1773,-0.3002,-0.4574,-0.4882,-0.5284,-0.6089,-0.6182,-0.6051,-0.561,-0.5279,-0.4694,-0.3851,-0.3449,-0.3505,-0.4039,-0.391,-0.3869,-0.4019,-0.3897,-0.4088,-0.4543,-0.4968,-0.5512,-0.6138,-0.6212,-0.6453,-0.6798,-0.7017,-0.7226,-0.743,-0.7772,-0.7953,-0.814,-0.8408,-0.8594,-0.8742,-0.9132,-0.9359,-0.9478,-1.265,-1.2155,-1.1582,-1.1025,-1.0478,-0.9954,-0.9354,-0.9061,-0.8751,-0.8327,-0.8025,-0.7642,-0.7026,-0.644,-0.6012,-0.5783,-0.6387,-0.6648,-0.636,-0.6096,-0.5667,-0.514,-0.4529,-0.4024,-0.3623,-0.2749,-0.1797,-0.0698,0.0222,0.0718,0.0807,0.1525,0.1884,0.1973,0.2198,0.2333,0.2333,0.2334,0.2288,0.2287,0.2056,0.214,0.2408,0.2062,0.2289,0.2659,0.2233,0.2285,0.2524,0.1864,0.1705,0.1797,0.1718,0.1756,0.1934,0.2404,0.2513,0.2477,0.2407,0.2785,0.308,0.2548,0.2324,0.2305,0.25,0.2785,0.3118,0.3414,0.3869,0.4167,0.385,0.3981,0.3872,0.3094,0.2225,0.1171,-0.004,-0.1209,-0.225,-0.3169,-0.3483,-0.379,-0.4245,-0.4291,-0.4291,-0.4247,-0.3846,-0.3357,-0.2913,-0.2512,-0.2573,-0.3157,-0.2969,-0.2985,-0.3191,-0.3523,-0.3958,-0.4504,-0.4789,-0.5257,-0.5825,-0.5908,-0.6261,-0.6842,-0.719,-0.7513,-0.7836,-0.8365,-0.8407,-0.8259,-0.8827,-0.8971,-0.8861,-0.9504,-0.9689,-0.9695,-1.2976,-1.228,-1.1501,-1.1061,-1.0407,-0.9728,-0.9155,-0.8742,-0.8289,-0.7714,-0.7176,-0.6598,-0.5935,-0.5747,-0.5553,-0.516,-0.5256,-0.5322,-0.5247,-0.4877,-0.4381,-0.3748,-0.3522,-0.3063,-0.2331,-0.1452,-0.0622,0.0178,0.0537,0.0897,0.13,0.1885,0.2332,0.2734,0.2778,0.2868,0.3048,0.2872,0.2782,0.2774,0.2684,0.2783,0.2974,0.3089,0.3223,0.3294,0.2958,0.2751,0.2619,0.2034,0.1882,0.1916,0.2078,0.2108,0.2214,0.2623,0.2849,0.3016,0.3118,0.3157,0.3167,0.2935,0.311,0.333,0.3203,0.3636,0.4042,0.3911,0.4399,0.4844,0.4786,0.4528,0.4127,0.3419,0.2658,0.1592,-0.0124,-0.0545,-0.1148,-0.2472,-0.2527,-0.2549,-0.2815,-0.264,-0.2506,-0.2506,-0.2282,-0.1925,-0.1435,-0.1524,-0.1586,-0.1652,-0.2148,-0.2472,-0.2603,-0.3026,-0.3333,-0.3604,-0.4316,-0.4909,-0.5404,-0.5994,-0.6457,-0.6802,-0.7034,-0.7354,-0.7744,-0.787,-0.8209,-0.8646,-0.914,-0.9295,-0.9304,-1.0137,-1.0204,-0.9922,-1.1977,-1.1687,-1.1187,-1.0451,-0.9908,-0.9299,-0.8484,-0.8203,-0.7825,-0.7099,-0.6753,-0.6289,-0.5509,-0.5356,-0.5124,-0.4693,-0.4395,-0.4269,-0.4391,-0.4232,-0.3855,-0.3194,-0.2907,-0.2267,-0.1148,-0.0357,0.0359,0.0942,0.1569,0.2016,0.2241,0.2735,0.305,0.3272,0.3272,0.3227,0.3183,0.3094,0.2915,0.2689,0.2795,0.2897,0.2951,0.3048,0.3356,0.3676,0.3223,0.3191,0.328,0.272,0.2425,0.2282,0.2399,0.2379,0.2431,0.2826,0.3139,0.3365,0.3521,0.3561,0.3569,0.3493,0.3826,0.4156,0.4161,0.4503,0.4811,0.4737,0.4851,0.4888,0.4579,0.4196,0.3766,0.3282,0.2487,0.1684,0.084,0.0382,-0.0086,-0.0737,-0.0825,-0.0876,-0.0939,-0.1075,-0.112,-0.0985,-0.112,-0.0986,-0.0538,-0.0852,-0.1012,-0.0927,-0.1766,-0.2206,-0.2161,-0.2669,-0.3098,-0.3409,-0.4092,-0.4726,-0.5323,-0.5726,-0.6308,-0.6947,-0.7006,-0.7496,-0.826,-0.8258,-0.8659,-0.9261,-0.955,-0.9831,-1.0097,-1.0555,-1.0592,-1.0483,-1.1068,-1.1011,-1.0777,-0.9851,-0.9437,-0.8905,-0.7966,-0.771,-0.7365,-0.656,-0.6409,-0.6057,-0.5201,-0.5046,-0.4823,-0.4339,-0.3894,-0.367,-0.3669,-0.3632,-0.3353,-0.2774,-0.2182,-0.1323,-0.0179,0.0538,0.1121,0.157,0.2465,0.2911,0.2911,0.3496,0.3721,0.3678,0.3721,0.363,0.3451,0.3361,0.3184,0.3005,0.3093,0.3197,0.3327,0.3278,0.3629,0.41,0.3626,0.3668,0.3912,0.3547,0.3144,0.2844,0.2924,0.2889,0.2884,0.3105,0.345,0.3722,0.3802,0.3904,0.404,0.4078,0.4419,0.4798,0.4952,0.5213,0.5398,0.5321,0.5146,0.4891,0.4388,0.3947,0.3524,0.3176,0.258,0.2103,0.1866,0.1496,0.1165,0.0911,0.0825,0.0832,0.0805,0.0493,0.0269,0.0314,0.009,0.0045,0.0134,-0.0179,-0.0437,-0.0585,-0.1563,-0.1962,-0.1768,-0.2368,-0.2879,-0.3255,-0.3934,-0.4613,-0.5243,-0.5613,-0.6278,-0.7066,-0.7118,-0.7744,-0.8709,-0.8698,-0.9164,-0.9869,-1.0081,-1.0361,-1.0719,-1.097,-1.0977,-1.0947,-1.1025,-1.0629,-1.0153,-0.9769,-0.9317,-0.8753,-0.7927,-0.7484,-0.6949,-0.6054,-0.5789,-0.5362,-0.454,-0.4779,-0.4705,-0.4002,-0.4053,-0.3839,-0.3102,-0.2897,-0.2556,-0.2085,-0.0841,0.009,0.0628,0.1076,0.1615,0.2154,0.2644,0.2911,0.2913,0.3807,0.4123,0.3903,0.4123,0.4255,0.421,0.3764,0.3944,0.4482,0.4036,0.4253,0.4821,0.4648,0.469,0.4896,0.4578,0.4323,0.4128,0.4327,0.4012,0.3572,0.381,0.3849,0.375,0.3549,0.3878,0.4268,0.388,0.4068,0.4411,0.4608,0.4957,0.5267,0.5267,0.5583,0.5744,0.5359,0.5255,0.5135,0.4899,0.441,0.3916,0.3524,0.3532,0.322,0.2286,0.2767,0.2842,0.182,0.2083,0.2274,0.21,0.2194,0.2015,0.1345,0.1705,0.1615,0.0718,0.0616,0.0213,-0.0572,-0.1274,-0.1533,-0.1335,-0.2005,-0.2525,-0.2866,-0.3769,-0.4506,-0.5054,-0.6016,-0.661,-0.6933,-0.7426,-0.8065,-0.8808,-0.8708,-0.9335,-1.0288,-1.0756,-1.0795,-1.0695,-1.151,-1.1403,-1.0879,-1.012,-0.9971,-0.9638,-0.9094,-0.875,-0.8312,-0.76,-0.7134,-0.6655,-0.6004,-0.5595,-0.5091,-0.447,-0.4428,-0.421,-0.3691,-0.3387,-0.3008,-0.2593,-0.2008,-0.164,-0.1463,-0.0357,0.0448,0.0942,0.1703,0.2331,0.2825,0.3449,0.3762,0.3762,0.43,0.4391,0.4168,0.4255,0.43,0.4297,0.3944,0.4034,0.4435,0.4036,0.4168,0.4565,0.4659,0.4837,0.5006,0.5056,0.502,0.494,0.5027,0.4696,0.4223,0.4244,0.4268,0.4292,0.435,0.455,0.481,0.4893,0.4932,0.5007,0.5201,0.5473,0.5709,0.5867,0.6025,0.6087,0.5899,0.5833,0.573,0.5489,0.5307,0.5182,0.5051,0.4868,0.466,0.4331,0.4218,0.3999,0.3597,0.3426,0.3217,0.2808,0.2756,0.2496,0.1893,0.1847,0.1759,0.1407,0.0936,0.0414,-0.0204,-0.0716,-0.1218,-0.165,-0.2058,-0.2493,-0.2984,-0.3555,-0.4236,-0.501,-0.5791,-0.6555,-0.7281,-0.7616,-0.8269,-0.9106,-0.9271,-0.9867,-1.0748,-1.0874,-1.1147,-1.1445,-1.1415,-1.1401,-1.1423,-0.9428,-0.9388,-0.9196,-0.87,-0.8373,-0.802,-0.7514,-0.703,-0.6521,-0.5969,-0.5508,-0.4981,-0.4474,-0.418,-0.3818,-0.3365,-0.2827,-0.2343,-0.1931,-0.1059,-0.0583,-0.0762,0.0179,0.0942,0.1436,0.2285,0.2956,0.3405,0.4076,0.4433,0.4433,0.4659,0.4701,0.452,0.452,0.452,0.452,0.4302,0.4344,0.4476,0.4257,0.4346,0.4656,0.4748,0.4968,0.5235,0.5416,0.5484,0.5502,0.5669,0.5383,0.4973,0.4897,0.4745,0.4726,0.5132,0.5274,0.5336,0.5698,0.5734,0.5683,0.5792,0.5941,0.6099,0.6335,0.6451,0.644,0.6347,0.6361,0.6314,0.6131,0.6135,0.6233,0.6322,0.611,0.5906,0.5863,0.5405,0.4991,0.481,0.4396,0.3992,0.3521,0.3266,0.2925,0.241,0.2193,0.2015,0.1788,0.1034,0.0405,0.0,-0.0436,-0.1061,-0.1807,-0.2016,-0.2419,-0.2939,-0.3491,-0.4154,-0.5007,-0.5805,-0.6655,-0.7508,-0.7843,-0.8566,-0.9542,-0.9652,-1.0201,-1.1015,-1.1089,-1.1427,-1.177,-1.1543,-1.1636,-1.1807,-0.8999,-0.8911,-0.8852,-0.8615,-0.8207,-0.7854,-0.7722,-0.7116,-0.6524,-0.5972,-0.5471,-0.4983,-0.4438,-0.4042,-0.3566,-0.3023,-0.2575,-0.1929,-0.1164,0.0045,0.0493,0.0045,0.0897,0.166,0.2199,0.2869,0.3449,0.3894,0.4433,0.4705,0.4705,0.4924,0.501,0.501,0.501,0.501,0.501,0.501,0.501,0.4966,0.4792,0.4973,0.5371,0.5099,0.528,0.5688,0.5688,0.5657,0.5699,0.621,0.6168,0.5889,0.5889,0.5468,0.5057,0.5874,0.6021,0.5953,0.6157,0.6354,0.6477,0.6334,0.63,0.6374,0.6563,0.6753,0.6826,0.6641,0.6652,0.6724,0.6716,0.6814,0.6959,0.7068,0.7054,0.6877,0.6451,0.6245,0.5877,0.5271,0.489,0.4617,0.4321,0.3946,0.3486,0.3022,0.2985,0.2623,0.1748,0.0854,0.0282,0.0,-0.0589,-0.1139,-0.1612,-0.1848,-0.2193,-0.2601,-0.3569,-0.4338,-0.5046,-0.6195,-0.7006,-0.7529,-0.8132,-0.9019,-0.9964,-0.9773,-1.0235,-1.1066,-1.1524,-1.1542,-1.1393,-1.2052,-1.2103,-1.1884,-0.8955,-0.8775,-0.858,-0.8178,-0.7825,-0.7548,-0.7317,-0.6834,-0.635,-0.596,-0.5282,-0.4644,-0.4162,-0.3502,-0.2981,-0.2726,-0.203,-0.125,-0.0402,0.0807,0.1345,0.0987,0.1615,0.2198,0.2689,0.3227,0.381,0.4478,0.4746,0.5013,0.5193,0.5238,0.5191,0.501,0.501,0.5099,0.528,0.5099,0.5191,0.5463,0.5282,0.5282,0.5416,0.5455,0.5589,0.5722,0.608,0.6186,0.6204,0.6555,0.6495,0.6283,0.6464,0.6151,0.5779,0.6025,0.6255,0.6406,0.6267,0.6438,0.6719,0.6715,0.6602,0.6641,0.7138,0.7057,0.6937,0.7128,0.7196,0.7203,0.7211,0.7318,0.745,0.7333,0.7171,0.7028,0.6905,0.6376,0.5966,0.5793,0.5304,0.4795,0.4349,0.3952,0.3423,0.2753,0.2342,0.1872,0.143,0.0873,0.0356,0.0,-0.0432,-0.0911,-0.1369,-0.1873,-0.2418,-0.2975,-0.3552,-0.4325,-0.5243,-0.6,-0.6932,-0.7957,-0.8577,-0.9181,-0.9737,-1.0014,-1.0486,-1.1024,-1.1108,-1.1208,-1.1312,-1.1488,-1.1557,-1.1606,-0.856,-0.8424,-0.8245,-0.7944,-0.7683,-0.7459,-0.7279,-0.6877,-0.6411,-0.6011,-0.5368,-0.469,-0.4153,-0.3289,-0.269,-0.2551,-0.1459,-0.0478,0.0221,0.1339,0.1885,0.1705,0.2287,0.2735,0.3002,0.3674,0.4302,0.4837,0.5235,0.5526,0.5753,0.5615,0.5526,0.5523,0.5253,0.528,0.5508,0.5544,0.5591,0.5727,0.5769,0.5727,0.5683,0.5813,0.5899,0.603,0.6296,0.6476,0.6567,0.6748,0.6704,0.6612,0.6836,0.6634,0.6295,0.6351,0.6454,0.6513,0.6307,0.6444,0.6673,0.6769,0.6676,0.6714,0.7173,0.7134,0.7088,0.727,0.7328,0.7343,0.7396,0.7426,0.749,0.7518,0.7364,0.7154,0.6988,0.6442,0.5996,0.5706,0.5091,0.4508,0.4006,0.3568,0.3092,0.2487,0.1966,0.1557,0.1298,0.0864,0.0432,0.0,-0.0471,-0.0988,-0.1524,-0.2272,-0.2836,-0.3226,-0.3834,-0.4604,-0.5514,-0.6228,-0.7113,-0.8125,-0.8555,-0.9141,-0.9759,-1.0053,-1.0445,-1.0868,-1.1132,-1.1214,-1.1197,-1.1347,-1.1459,-1.1492,-0.7984,-0.79,-0.79,-0.7856,-0.7635,-0.7459,-0.7462,-0.7061,-0.6611,-0.6147,-0.5528,-0.4914,-0.4233,-0.3305,-0.2605,-0.2353,-0.0887,0.0222,0.0655,0.1643,0.2199,0.2199,0.2869,0.3227,0.327,0.4168,0.4792,0.5055,0.5725,0.6098,0.6259,0.5866,0.5916,0.6256,0.5689,0.5597,0.5774,0.6213,0.6118,0.5808,0.6207,0.6302,0.6127,0.6171,0.6257,0.6432,0.6428,0.6567,0.6836,0.6836,0.6836,0.6836,0.7054,0.6873,0.6661,0.6741,0.6638,0.6482,0.6392,0.6428,0.6524,0.6656,0.6652,0.6673,0.6911,0.7061,0.7184,0.7184,0.718,0.7188,0.7256,0.7128,0.71,0.7457,0.736,0.7076,0.6661,0.6299,0.5857,0.521,0.4486,0.3843,0.3409,0.2942,0.2549,0.215,0.1764,0.1415,0.1257,0.0786,0.0353,-0.0079,-0.0668,-0.1295,-0.196,-0.2882,-0.3398,-0.3475,-0.4272,-0.5076,-0.591,-0.6711,-0.7458,-0.8102,-0.8327,-0.8988,-0.9912,-0.9994,-1.0244,-1.0627,-1.1315,-1.1324,-1.0996,-1.1424,-1.1566,-1.1461,-0.7984,-0.7852,-0.7764,-0.7591,-0.7367,-0.7146,-0.6972,-0.67,-0.6322,-0.5827,-0.5285,-0.4658,-0.3816,-0.3264,-0.2574,-0.1688,-0.0447,0.0403,0.0669,0.1656,0.2199,0.2199,0.305,0.3585,0.376,0.4164,0.4701,0.5327,0.546,0.5654,0.5816,0.5744,0.5877,0.6123,0.6005,0.608,0.6254,0.6169,0.6213,0.6251,0.6343,0.6387,0.6343,0.6571,0.6659,0.6704,0.6476,0.6653,0.7054,0.7054,0.7054,0.7054,0.7095,0.7031,0.6943,0.6734,0.692,0.7198,0.6945,0.6956,0.7155,0.7335,0.7019,0.6785,0.7274,0.7292,0.7184,0.7184,0.6949,0.6609,0.6288,0.6181,0.6152,0.6071,0.5998,0.5959,0.5841,0.5496,0.5084,0.4614,0.3969,0.337,0.2981,0.2277,0.1793,0.1644,0.1127,0.0786,0.0746,0.0353,-0.0118,-0.0668,-0.1178,-0.1806,-0.2589,-0.331,-0.3836,-0.4127,-0.4884,-0.5606,-0.6351,-0.6875,-0.7383,-0.788,-0.8403,-0.8866,-0.925,-0.9785,-1.012,-1.0401,-1.0705,-1.0696,-1.0492,-1.0739,-1.0835,-1.088,-0.7386,-0.7196,-0.7058,-0.685,-0.6718,-0.6612,-0.6552,-0.643,-0.6165,-0.5684,-0.5241,-0.4583,-0.362,-0.3057,-0.2301,-0.1175,-0.0177,0.0489,0.0697,0.1642,0.2243,0.2334,0.3139,0.381,0.4253,0.452,0.4879,0.5416,0.5502,0.5712,0.5998,0.6022,0.6204,0.6526,0.6329,0.639,0.6612,0.6697,0.6741,0.6741,0.7007,0.7054,0.6922,0.6922,0.6922,0.6922,0.6786,0.683,0.6966,0.7051,0.7054,0.6966,0.7051,0.7095,0.7037,0.6789,0.681,0.6915,0.671,0.6771,0.6881,0.6892,0.684,0.6857,0.7102,0.7027,0.6848,0.6729,0.6402,0.6093,0.5938,0.5576,0.5304,0.5384,0.5155,0.4964,0.4964,0.4663,0.4265,0.3834,0.3295,0.2761,0.2238,0.1457,0.1032,0.1118,0.0539,0.0156,0.0155,-0.0195,-0.0668,-0.1218,-0.1767,-0.2433,-0.3255,-0.3966,-0.4492,-0.4867,-0.5374,-0.6015,-0.6739,-0.7189,-0.7661,-0.8121,-0.851,-0.8864,-0.9181,-0.9552,-0.9882,-1.0161,-1.0285,-1.0237,-1.0165,-1.0283,-1.0357,-1.0517,-0.6622,-0.646,-0.6328,-0.6148,-0.6155,-0.6159,-0.6254,-0.6276,-0.6059,-0.5537,-0.5178,-0.4579,-0.3543,-0.2752,-0.1812,-0.0722,0.0088,0.0574,0.0722,0.1714,0.2334,0.2513,0.3186,0.3944,0.4705,0.4879,0.5146,0.5505,0.568,0.5955,0.6287,0.6352,0.6624,0.6956,0.6659,0.67,0.7013,0.736,0.736,0.7187,0.7588,0.7635,0.7415,0.7187,0.7095,0.7095,0.7051,0.6922,0.6836,0.7054,0.701,0.6881,0.701,0.7051,0.7051,0.6836,0.6648,0.6482,0.6492,0.6428,0.6379,0.6332,0.6534,0.678,0.6654,0.6552,0.6347,0.6119,0.5777,0.55,0.5559,0.4991,0.4596,0.4898,0.45,0.415,0.415,0.3829,0.3405,0.2939,0.2471,0.1934,0.1343,0.0667,0.0335,0.0471,-0.0038,-0.0386,-0.049,-0.0812,-0.1255,-0.1719,-0.2349,-0.3059,-0.3841,-0.4594,-0.5162,-0.5522,-0.5879,-0.6351,-0.6987,-0.7521,-0.7914,-0.8256,-0.854,-0.8834,-0.9173,-0.934,-0.9607,-0.9893,-0.9933,-0.9916,-0.9901,-0.994,-1.0116,-1.0432,-0.6411,-0.6379,-0.636,-0.6278,-0.6257,-0.6257,-0.6128,-0.6145,-0.5968,-0.5484,-0.5008,-0.4431,-0.3662,-0.2193,-0.1066,-0.0477,0.0442,0.0977,0.0955,0.1905,0.2469,0.2513,0.3186,0.3944,0.4705,0.475,0.5149,0.5994,0.6038,0.6091,0.6153,0.6308,0.6532,0.6821,0.6972,0.7275,0.7724,0.758,0.7496,0.7415,0.7275,0.7183,0.7143,0.7095,0.7095,0.7098,0.6925,0.6836,0.6836,0.7054,0.7098,0.7054,0.6881,0.6969,0.7051,0.6836,0.681,0.6895,0.7108,0.6797,0.6511,0.7003,0.6767,0.6316,0.6059,0.6083,0.6035,0.5581,0.5279,0.4894,0.4268,0.4162,0.4135,0.4016,0.3715,0.3511,0.3511,0.305,0.25,0.2021,0.132,0.0761,0.0494,0.0216,-0.0072,-0.0318,-0.0481,-0.0753,-0.121,-0.1419,-0.175,-0.2281,-0.2947,-0.3526,-0.404,-0.4831,-0.5347,-0.5587,-0.6207,-0.6599,-0.6874,-0.7629,-0.7845,-0.7632,-0.8214,-0.8462,-0.8581,-0.9138,-0.9394,-0.9419,-0.9656,-0.9598,-0.9443,-0.9781,-1.0275,-1.0895,-0.6087,-0.5958,-0.5891,-0.57,-0.5679,-0.5706,-0.5773,-0.567,-0.5476,-0.5053,-0.4567,-0.3942,-0.3094,-0.1614,-0.0619,-0.0428,0.0616,0.1195,0.1028,0.194,0.2557,0.2735,0.3405,0.4119,0.4835,0.5146,0.5589,0.6254,0.5905,0.5861,0.6083,0.6299,0.6609,0.6966,0.7234,0.7544,0.79,0.776,0.772,0.768,0.7411,0.7231,0.7095,0.7095,0.701,0.6925,0.6836,0.6795,0.6795,0.6881,0.6925,0.6922,0.6969,0.6966,0.6925,0.6836,0.6652,0.6524,0.6567,0.637,0.6153,0.6137,0.5856,0.5532,0.5149,0.4981,0.4851,0.4761,0.4504,0.4137,0.3554,0.3273,0.3085,0.2895,0.2541,0.2283,0.2283,0.1877,0.1488,0.1153,0.0625,0.0216,0.014,-0.0319,-0.0705,-0.0926,-0.1224,-0.1549,-0.1895,-0.2113,-0.2425,-0.2931,-0.3622,-0.4151,-0.4579,-0.5279,-0.5631,-0.5598,-0.6525,-0.6958,-0.6998,-0.7593,-0.7944,-0.8021,-0.8416,-0.8558,-0.857,-0.8768,-0.8884,-0.8957,-0.8961,-0.9024,-0.9228,-0.9876,-1.0215,-1.0423]},{"header":{"parameterUnit":"m.s-1","parameterCategory":1,"la1":30.6,"la2":28.766,"lo1":-90.7593,"lo2":-88.6598,"dy":0.0162,"dx":0.0183,"nx":116,"ny":114,"refTime":"2024-05-01T12:00:00:Z","depth":0,"parameterNumber":3,"parameterNumberName":"V-component_of_WINDS"},"data":[0.0,0.0,0.0,0.0,0.0,0.0,0.0,0.0,0.0,0.0,0.0,0.0,0.0,0.0,0.0,0.0,0.0,0.0,0.0,0.0,0.0,0.0,0.0,0.0,0.0,0.0,0.0,0.0,0.0,0.0,0.0,0.0,0.0,0.0,0.0,0.0,0.0,0.0,0.0,0.0,0.0,0.0,0.0,0.0,0.0,0.0,0.0,0.0,0.0,0.0,0.0,0.0,0.0,0.0,0.0,0.0,0.0,0.0,0.0,0.0,0.0,0.0,0.0,0.0,0.0,0.0,0.0,0.0,0.0,0.0,0.0,0.0,0.0,0.0,0.0,0.0,0.0,0.0,0.0,0.0,0.0,0.0,0.0,0.0,0.0,0.0,0.0,0.0,0.0,0.0,0.0,0.0,0.0,0.0,0.0,0.0,0.0,0.0,0.0,0.0,0.0,0.0,0.0,0.0,0.0,0.0,0.0,0.0,0.0,0.0,0.0,0.0,0.0,0.0,0.0,0.0,0.0,0.0,0.0,0.0,0.0,0.0,0.0,0.0,0.0,0.0,0.0,0.0,0.0,0.0,0.0,0.0,0.0,0.0,0.0,0.0,0.0,0.0,0.0,0.0,0.0,0.0,0.0,0.0,0.0,0.0,0.0,0.0,0.0,0.0,0.0,0.0,0.0,0.0,0.0,0.0,0.0,0.0,0.0,0.0,0.0,0.0,0.0,0.0,0.0,0.0,0.0,0.0,0.0,0.0,0.0,0.0,0.0,0.0,0.0,0.0,0.0,0.0,0.0,0.0,0.0,0.0,0.0,0.0,0.0,0.0,0.0,0.0,0.0,0.0,0.0,0.0,0.0,0.0,0.0,0.0,0.0,0.0,0.0,0.0,0.0,0.0,0.0,0.0,0.0,0.0,0.0,0.0,0.0,0.0,0.0,0.0,0.0,0.0,0.0,0.0,0.0,0.0,0.0,0.0,0.0,0.0,0.0,0.0,0.0,0.0,0.0,0.0,0.0,0.0,0.0,0.0,0.0,0.0,0.0,0.0,0.0,0.0,0.0,0.0,0.0,0.0,0.0,0.0,0.0,0.0,0.0,0.0,0.0,0.0,0.0,0.0,0.0,0.0,0.0,0.0,0.0,0.0,0.0,0.0,0.0,0.0,0.0,0.0,0.0,0.0,0.0,0.0,0.0,0.0,0.0,0.0,0.0,0.0,0.0,0.0,0.0,0.0,0.0,0.0,0.0,0.0,0.0,0.0,0.0,0.0,0.0,0.0,0.0,0.0,0.0,0.0,0.0,0.0,0.0,0.0,0.0,0.0,0.0,0.0,0.0,0.0,0.0,0.0,0.0,0.0,0.0,0.0,0.0,0.0,0.0,0.0,0.0,0.0,0.0,0.0,0.0,0.0,0.0,0.0,0.0,0.0,0.0,0.0,0.0,0.0,0.0,0.0,0.0,0.0,0.0,0.0,0.0,0.0,0.0,0.0,0.0,0.0,0.0,0.0,0.0,0.0,0.0,0.0,0.0,0.0,0.0,0.0,0.0,0.0,0.0,0.0,0.0,0.0,0.0,0.0,0.0,0.0,0.0,0.0,0.0,0.0,0.0,0.0,0.0,0.0,0.0,0.0,0.0,0.0,0.0,0.0,0.0,0.0,0.0,0.0,0.0,0.0,0.0,0.0,0.0,0.0,0.0,0.0,0.0,0.0,0.0,0.0,0.0,0.0,0.0,0.0,0.0,0.0,0.0,0.0,0.0,0.0,0.0,0.0,0.0,0.0,0.0,0.0,0.0,0.0,0.0,0.0,0.0,0.0,0.0,0.0,0.0,0.0,0.0,0.0,0.0,0.0,0.0,0.0,0.0,0.0,0.0,0.0,0.0,0.0,0.0,0.0,0.0,0.0,0.0,0.0,0.0,0.0,0.0,0.0,0.0,0.0,0.0,0.0,0.0,0.0,0.0,0.0,0.0,0.0,0.0,0.0,0.0,0.0,0.0,0.0,0.0,0.0,0.0,0.0,0.0,0.0,0.0,0.0,0.0,0.0,0.0,0.0,0.0,0.0,0.0,0.0,0.0,0.0,0.0,0.0,0.0,0.0,0.0,0.0,0.0,0.0,0.0,0.0,0.0,0.0,0.0,0.0,0.0,0.0,0.0,0.0,0.0,0.0,0.0,0.0,0.0,0.0,0.0,0.0,0.0,0.0,0.0,0.0,0.0,0.0,0.0,0.0,0.0,0.0,0.0,0.0,0.0,0.0,0.0,0.0,0.0,0.0,0.0,0.0,0.0,0.0,0.0,0.0,0.0,0.0,0.0,0.0,0.0,0.0,0.0,0.0,0.0,0.0,0.0,0.0,0.0,0.0,0.0,0.0,0.0,0.0,0.0,0.0,0.0,0.0,0.0,0.0,0.0,0.0,0.0,0.0,0.0,0.0,0.0,0.0,0.0,0.0,0.0,0.0,0.0,0.0,0.0,0.0,0.0,0.0,0.0,0.0,0.0,0.0,0.0,0.0,0.0,0.0,0.0,0.0,0.0,0.0,0.0,0.0,0.0,0.0,0.0,0.0,0.0,0.0,0.0,0.0,0.0,0.0,0.0,0.0,0.0,0.0,0.0,0.0,0.0,0.0,0.0,0.0,0.0,0.0,0.0,0.0,0.0,0.0,0.0,0.0,0.0,0.0,0.0,0.0,0.0,0.0,0.0,0.0,0.0,0.0,0.0,0.0,0.0,0.0,0.0,0.0,0.0,0.0,0.0,0.0,0.0,0.0,0.0,0.0,0.0,0.0,0.0,0.0,0.0,0.0,0.0,0.0,0.0,0.0,0.0,0.0,0.0,0.0,0.0,0.0,0.0,0.0,0.0,0.0,0.0,0.0,0.0,0.0,0.0,0.0,0.0,0.0,0.0,0.0,0.0,0.0,0.0,0.0,0.0,0.0,0.0,0.0,0.0,0.0,0.0,0.0,0.0,0.0,0.0,0.0,0.0,0.0,0.0,0.0,0.0,0.0,0.0,0.0,0.0,0.0,0.0,0.0,0.0,0.0,0.0,0.0,0.0,0.0,0.0,0.0,0.0,0.0,0.0,0.0,0.0,0.0,0.0,0.0,0.0,0.0,0.0,0.0,0.0,0.0,0.0,0.0,0.0,0.0,0.0,0.0,0.0,0.0,0.0,0.0,0.0,0.0,0.0,0.0,0.0,0.0,0.0,0.0,0.0,0.0,0.0,0.0,0.0,0.0,0.0,0.0,0.0,0.0,0.0,0.0,0.0,0.0,0.0,0.0,0.0,0.0,0.0,0.0,0.0,0.0,0.0,0.0,0.0,0.0,0.0,0.0,0.0,0.0,0.0,0.0,0.0,0.0,0.0,0.0,0.0,0.0,0.0,0.0,0.0,0.0,0.0,0.0,0.0,0.0,0.0,0.0,0.0,0.0,0.0,0.0,0.0,0.0,0.0,0.0,0.0,0.0,0.0,0.0,0.0,0.0,0.0,0.0,0.0,0.0,0.0,0.0,0.0,0.0,0.0,0.0,0.0,0.0,0.0,0.0,0.0,0.0,0.0,0.0,0.0,0.0,0.0,0.0,0.0,0.0,0.0,0.0,0.0,0.0,0.0,0.0,0.0,0.0,0.0,0.0,0.0,0.0,0.0,0.0,0.0,0.0,0.0,0.0,0.0,0.0,0.0,0.0,0.0,0.0,0.0,0.0,0.0,0.0,0.0,0.0,0.0,0.0,0.0,0.0,0.0,0.0,0.0,0.0,0.0,0.0,0.0,0.0,0.0,0.0,0.0,0.0,0.0,0.0,0.0,0.0,0.0,0.0,0.0,0.0,0.0,0.0,0.0,0.0,0.0,0.0,0.0,0.0,0.0,0.0,0.0,0.0,0.0,0.0,0.0,0.0,0.0,0.0,0.0,0.0,0.0,0.0,0.0,0.0,0.0,0.0,0.0,0.0,0.0,0.0,0.0,0.0,0.0,0.0,0.0,0.0,0.0,0.0,0.0,0.0,0.0,0.0,0.0,0.0,0.0,0.0,0.0,0.0,0.0,0.0,0.0,0.0,0.0,0.0,0.0,0.0,0.0,0.0,0.0,0.0,0.0,0.0,0.0,0.0,0.0,0.0,0.0,0.0,0.0,0.0,0.0,0.0,0.0,0.0,0.0,0.0,0.0,0.0,0.0,0.0,0.0,0.0,0.0,0.0,0.0,0.0,0.0,0.0,0.0,0.0,0.0,0.0,0.0,0.0,0.0,0.0,0.0,0.0,0.0,0.0,0.0,0.0,0.0,0.0,0.0,0.0,0.0,0.0,0.0,0.0,0.0,0.0,0.0,0.0,0.0,0.0,0.0,0.0,0.0,0.0,0.0,0.0,0.0,0.0,0.0,0.0,0.0,0.0,0.0,0.0,0.0,0.0,0.0,0.0,0.0,0.0,0.0,0.0,0.0,0.0,0.0,0.0,0.0,0.0,0.0,0.0,0.0,0.0,0.0,0.0,0.0,0.0,0.0,0.0,0.0,0.0,0.0,0.0,0.0,0.0,0.0,0.0,0.0,0.0,0.0,0.0,0.0,0.0,0.0,0.0,0.0,0.0,0.0,0.0,0.0,0.0,0.0,0.0,0.0,0.0,0.0,0.0,0.0,0.0,0.0,0.0,0.0,0.0,0.0,0.0,0.0,0.0,0.0,0.0,0.0,0.0,0.0,0.0,0.0,0.0,0.0,0.0,0.0,0.0,0.0,0.0,0.0,0.0,0.0,0.0,0.0,0.0,0.0,0.0,0.0,0.0,0.0,0.0,0.0,0.0,0.0,0.0,0.0,0.0,0.0,0.0,0.0,0.0,0.0,0.0,0.0,0.0,0.0,0.0,0.0,0.0,0.0,0.0,0.0,0.0,0.0,0.0,0.0,0.0,0.0,0.0,0.0,0.0,0.0,0.0,0.0,0.0,0.0,0.0,0.0,0.0,0.0,0.0,0.0,0.0,0.0,0.0,0.0,0.0,0.0,0.0,0.0,0.0,0.0,0.0,0.0,0.0,0.0,0.0,0.0,0.0,0.0,0.0,0.0,0.0,0.0,0.0,0.0,0.0,0.0,0.0,0.0,0.0,0.0,0.0,0.0,0.0,0.0,0.0,0.0,0.0,0.0,0.0,0.0,0.0,0.0,0.0,0.0,0.0,0.0,0.0,0.0,0.0,0.0,0.0,0.0,0.0,0.0,0.0,0.0,0.0,0.0,0.0,0.0,0.0,0.0,0.0,0.0,0.0,0.0,0.0,0.0,0.0,0.0,0.0,0.0,0.0,0.0,0.0,0.0,0.0,0.0,0.0,0.0,0.0,0.0,0.0,0.0,0.0,0.0,0.0,0.0,0.0,0.0,0.0,0.0,0.0,0.0,0.0,0.0,0.0,0.0,0.0,0.0,0.0,0.0,0.0,0.0,0.0,0.0,0.0,0.0,0.0,0.0,0.0,0.0,0.0,0.0,0.0,0.0,0.0,0.0,0.0,0.0,0.0,0.0,0.0,0.0,0.0,0.0,0.0,0.0,0.0,0.0,0.0,0.0,0.0,0.0,0.0,0.0,0.0,0.0,0.0,0.0,0.0,0.0,0.0,0.0,0.0,0.0,0.0,0.0,0.0,0.0,0.0,0.0,0.0,0.0,0.0,0.0,0.0,0.0,0.0,0.0,0.0,0.0,0.0,0.0,0.0,0.0,0.0,0.0,0.0,0.0,0.0,0.0,0.0,0.0,0.0,0.0,0.0,0.0,0.0,0.0,0.0,0.0,0.0,0.0,0.0,0.0,0.0,0.0,0.0,0.0,0.0,0.0,0.0,0.0,0.0,0.0,0.0,0.0,0.0,0.0,0.0,0.0,0.0,0.0,0.0,0.0,0.0,0.0,0.0,0.0,0.0,0.0,0.0,0.0,0.0,0.0,0.0,0.0,0.0,0.0,0.0,0.0,0.0,0.0,0.0,0.0,0.0,0.0,0.0,0.0,0.0,0.0,0.0,0.0,0.0,0.0,0.0,0.0,0.0,0.0,0.0,0.0,0.0,0.0,0.0,0.0,0.0,0.0,0.0,0.0,0.0,0.0,0.0,0.0,0.0,1.1386,1.0479,0.0,0.0,0.0,0.0,0.0,0.0,0.0,0.0,0.0,0.0,0.0,0.0,0.0,0.0,0.0,0.0,0.0,0.0,0.0,0.0,0.0,0.0,0.0,0.8633,0.831,0.7375,0.7267,0.7433,0.7884,0.0,0.0,0.0,1.3806,1.515,1.5912,1.6179,1.6932,1.8285,1.763,1.7981,1.932,1.9209,1.8615,1.7536,0.0,0.0,0.0,0.0,0.0,0.0,0.0,0.0,0.0,0.0,0.0,0.0,0.0,0.0,0.0,0.0,0.0,0.0,0.0,0.0,0.0,0.0,0.0,0.0,0.0,0.0,0.0,0.0,0.0,0.0,0.0,0.0,0.0,0.0,0.0,0.0,0.0,0.0,0.0,0.0,0.0,0.0,0.0,0.0,0.0,0.0,0.0,0.0,0.0,0.0,0.0,0.0,0.0,0.0,0.0,0.0,0.0,0.0,0.0,0.0,0.0,0.0,0.0,0.0,0.0,0.0,0.0,0.0,0.0,0.0,1.2328,1.1669,0.0,0.0,0.0,0.0,0.0,0.0,0.0,0.0,0.0,0.0,0.0,0.0,0.0,0.0,0.0,0.0,0.0,0.0,0.0,0.0,0.0,1.0692,1.0148,0.9944,0.9589,0.8982,0.8794,0.8874,0.9203,1.0471,0.0,1.2933,1.4812,1.6023,1.6458,1.7024,1.7931,1.9127,1.8642,1.8956,2.0067,2.0993,2.0403,1.8575,1.7652,0.0,0.0,0.0,0.0,0.0,0.0,0.0,0.0,0.0,0.0,0.0,0.0,0.0,0.0,0.0,0.0,0.0,0.0,0.0,0.0,0.0,0.0,0.0,0.0,0.0,0.0,0.0,0.0,0.0,0.0,0.0,0.0,0.0,0.0,0.0,0.0,0.0,0.0,0.0,0.0,0.0,0.0,0.0,0.0,0.0,0.0,0.0,0.0,0.0,0.0,0.0,0.0,0.0,0.0,0.0,0.0,0.0,0.0,0.0,0.0,0.0,0.0,0.0,1.3963,1.3917,1.4228,1.4389,1.4363,1.4178,1.338,1.2983,1.2816,1.1798,0.0,0.0,0.0,0.0,0.0,0.0,0.0,0.0,0.0,0.0,0.0,0.0,0.0,0.0,0.0,0.0,0.0,0.0,0.0,1.1391,1.1583,1.1072,1.0502,0.9952,0.9936,1.0043,1.0182,1.1432,1.2827,1.4446,1.5938,1.7203,1.8239,1.832,1.8896,2.0021,2.0752,2.1497,2.2269,2.1755,2.0932,1.9918,1.8924,1.811,1.737,0.0,0.0,0.0,0.0,0.0,0.0,0.0,0.0,0.0,0.0,0.0,0.0,0.0,0.0,0.0,0.0,0.0,0.0,0.0,0.0,0.0,0.0,0.0,0.0,0.0,0.0,0.0,0.0,0.0,0.0,0.0,0.0,0.0,0.0,0.0,0.0,0.0,0.0,0.0,0.0,0.0,1.2777,1.3316,0.0,0.0,0.0,0.0,0.0,0.0,0.0,0.0,0.0,0.0,0.0,0.0,0.0,1.6743,1.6941,1.5929,1.5465,1.555,1.5389,1.5214,1.5058,1.5142,1.5104,1.5018,1.4917,0.0,1.3904,1.2586,0.0,0.0,0.0,0.0,0.0,0.0,0.0,0.0,0.0,0.0,0.0,0.0,0.0,0.0,0.0,0.0,0.0,0.0,0.0,0.0,0.0,1.2528,1.1847,1.1598,1.124,1.1194,1.1604,1.2705,1.3992,1.5422,1.7026,1.8192,1.882,1.932,1.9905,2.053,2.1888,2.25,2.2349,2.2054,2.16,2.1009,1.9992,1.8735,1.7253,1.5963,0.0,0.0,0.0,0.0,0.0,0.0,0.0,0.0,0.0,0.0,0.0,0.0,0.0,0.0,0.0,0.0,0.0,0.0,0.0,0.0,0.0,0.0,0.0,0.0,0.0,0.0,0.0,0.0,0.0,0.0,0.0,0.0,0.0,0.0,0.0,0.0,0.0,0.0,0.0,1.4096,1.4489,1.5014,1.4935,1.4941,0.0,0.0,0.0,0.0,0.0,0.0,0.0,0.0,0.0,1.6252,1.6632,1.6876,1.6929,1.6252,1.6071,1.6287,1.5953,1.5739,1.5703,1.5792,1.5899,1.593,1.5884,1.5933,1.5879,1.4544,1.4288,1.4535,0.0,0.0,0.0,0.0,0.8113,0.7408,0.0,0.0,0.0,0.0,0.0,0.0,0.0,0.0,0.0,0.0,0.0,0.0,1.5065,1.4137,1.3322,1.2958,1.2532,1.2436,1.2841,1.409,1.5401,1.6583,1.8308,1.9328,1.9479,2.0401,2.1151,2.1631,2.2934,2.3319,2.2811,2.2506,2.2172,2.1778,2.07,1.9315,1.7646,1.6881,1.5875,1.4655,0.0,0.0,0.0,0.0,0.0,0.0,0.0,0.0,0.0,0.0,0.0,0.0,0.0,0.0,0.0,0.0,0.0,0.0,0.0,0.0,0.0,0.0,0.0,0.0,0.0,0.0,0.0,0.0,0.0,0.0,0.0,0.0,0.0,0.0,0.0,0.0,0.0,1.5933,1.6191,1.6603,1.6225,1.5932,0.0,0.0,0.0,0.0,0.0,0.0,1.4735,1.5866,1.6337,1.5999,1.6658,1.7073,1.7205,1.6698,1.6613,1.6965,1.6516,1.6379,1.656,1.6624,1.6765,1.6968,1.6907,1.7035,1.7216,1.615,1.553,1.5132,1.3898,1.3086,1.235,1.0319,0.9167,0.8547,0.0,0.0,0.0,0.0,0.0,0.0,0.0,0.0,0.0,0.0,0.0,1.6233,1.6543,1.5863,1.489,1.3649,1.3709,1.372,1.3549,1.5455,1.7116,1.8331,1.9855,2.0725,2.0798,2.18,2.2836,2.3934,2.4139,2.4412,2.4739,2.3449,2.2611,2.2125,2.0912,2.0183,1.9689,1.76,1.6968,1.7188,1.4407,0.0,0.0,0.0,0.0,0.0,0.0,0.0,0.0,0.0,0.0,0.0,0.0,0.0,0.0,0.0,0.0,0.0,0.0,0.0,0.0,0.0,0.0,0.0,0.0,0.0,0.0,0.0,0.0,0.0,0.0,0.0,0.0,0.0,0.0,0.0,0.0,0.0,0.0,1.7825,1.7602,0.0,0.0,0.0,0.0,1.6487,1.5436,1.4807,1.4864,1.5258,1.569,1.6186,1.6588,1.7198,1.8035,1.7462,1.7323,1.7645,1.7429,1.7501,1.7815,1.7694,1.7831,1.8224,1.8201,1.7763,1.7002,1.6666,1.6417,1.6138,1.5168,1.3998,1.2693,1.1099,1.0027,0.9247,0.0,0.0,0.0,1.3082,1.419,1.5107,1.5289,1.6765,1.788,1.8034,1.8057,1.8114,1.8232,1.7055,1.6081,1.564,1.5148,1.5127,1.5763,1.6788,1.8237,2.0103,2.079,2.1449,2.2161,2.331,2.3851,2.3768,2.4857,2.4937,2.4047,2.3826,2.353,2.3109,2.1952,2.1511,2.1534,1.9169,1.7877,1.7287,1.6096,1.5272,0.0,0.0,0.0,0.0,0.0,0.0,0.0,0.0,0.0,0.0,0.0,0.0,0.0,0.0,0.0,0.0,0.0,0.0,0.0,0.0,0.0,0.0,0.0,0.0,0.0,0.0,0.0,0.0,0.0,0.0,0.0,0.0,0.0,0.0,0.0,0.0,0.0,1.8041,1.799,0.0,1.7492,1.6939,1.6594,1.6542,1.5838,1.5603,1.6029,1.6198,1.659,1.7223,1.7571,1.8004,1.8483,1.8414,1.8509,1.878,1.8727,1.878,1.8992,1.8927,1.8877,1.8804,1.8906,1.8561,1.7905,1.769,1.7031,1.6038,1.5225,1.4629,1.4013,1.2072,1.104,1.048,0.0,1.321,0.0,1.3912,1.491,1.5851,1.6361,1.7984,1.9233,1.9392,1.9906,2.0003,1.9393,1.8614,1.78,1.7042,1.6698,1.6819,1.7418,1.8639,1.9953,2.1403,2.1912,2.2678,2.373,2.4582,2.4801,2.4347,2.5574,2.5509,2.4166,2.4199,2.4068,2.3796,2.2739,2.2414,2.2565,2.0909,1.9537,1.8408,1.7714,1.7149,1.6532,0.0,0.0,0.0,0.0,0.0,0.0,0.0,0.0,0.0,0.0,0.0,0.0,0.0,0.0,0.0,0.0,0.0,0.0,0.0,0.0,0.0,0.0,0.0,0.0,0.0,0.0,0.0,0.0,0.0,0.0,0.0,0.0,0.0,0.0,1.8695,1.8805,1.8813,1.8796,1.8651,1.8276,1.7535,1.709,1.7142,1.6452,1.6336,1.7047,1.731,1.7709,1.831,1.8648,1.9004,1.9386,1.9449,1.9657,1.9965,2.0029,2.0105,2.0244,2.0051,1.9866,1.9673,1.9525,1.9107,1.8516,1.838,1.7582,1.6363,1.5584,1.5023,1.4468,1.2756,1.1777,1.115,1.3497,1.4242,1.4982,1.5097,1.5742,1.6615,1.7732,1.9045,2.0173,2.0752,2.1844,2.1877,2.0099,2.0513,2.0044,1.7823,1.837,1.8745,1.856,2.0901,2.2285,2.2258,2.3369,2.441,2.5415,2.562,2.5765,2.5841,2.6369,2.6165,2.5259,2.4573,2.4214,2.4092,2.3236,2.2877,2.2884,2.2743,2.2007,2.0784,1.9244,1.8952,1.919,0.0,0.0,0.0,0.0,0.0,0.0,0.0,0.0,0.0,0.0,0.0,0.0,0.0,0.0,0.0,0.0,0.0,0.0,0.0,0.0,0.0,0.0,0.0,0.0,0.0,0.0,0.0,0.0,0.0,0.0,0.0,0.0,0.0,1.923,1.9764,2.0169,2.0197,2.0181,2.0113,1.9909,1.8403,1.7715,1.8372,1.7267,1.694,1.7797,1.8425,1.897,1.9447,1.9712,2.0182,2.082,2.0608,2.0706,2.1159,2.1304,2.1435,2.154,2.102,2.0818,2.0813,2.0161,1.9482,1.8836,1.8676,1.8116,1.724,1.6364,1.5228,1.401,1.3184,1.2221,1.126,1.4391,1.4996,1.5505,1.5584,1.6421,1.7201,1.7635,1.9504,2.1004,2.1269,2.2856,2.3443,2.2124,2.1727,2.1211,2.0401,1.9703,1.9969,2.1572,2.1928,2.262,2.3829,2.4829,2.5602,2.6108,2.6381,2.6483,2.6446,2.7171,2.6602,2.4812,2.542,2.5321,2.4601,2.4348,2.4498,2.4873,2.4544,2.4276,2.3895,2.1965,2.0791,2.0116,0.0,0.0,0.0,0.0,0.0,0.0,0.0,0.0,0.0,0.0,0.0,0.0,0.0,0.0,0.0,0.0,0.0,0.0,0.0,0.0,0.0,0.0,0.0,0.0,0.0,0.0,0.0,0.0,0.0,0.0,0.0,2.0201,1.9901,2.0033,1.9878,1.9812,1.9892,1.9994,2.0024,1.9998,1.8845,1.8357,1.8945,1.8057,1.8012,1.9125,1.9571,2.016,2.097,2.1116,2.1366,2.1752,2.195,2.2146,2.234,2.2478,2.2651,2.2876,2.2724,2.252,2.2197,2.1486,2.0699,1.9923,1.9349,1.8676,1.7928,1.6859,1.6376,1.6169,1.4817,1.3635,1.2619,1.5125,1.5892,1.6566,1.6657,1.7204,1.79,1.878,2.0316,2.1668,2.2484,2.4103,2.4571,2.2987,2.3176,2.2911,2.156,2.1677,2.2211,2.3092,2.3312,2.4065,2.5573,2.5994,2.6342,2.6634,2.6832,2.6769,2.645,2.6851,2.6381,2.5079,2.5771,2.5905,2.5554,2.5554,2.5584,2.5612,2.5733,2.5468,2.4959,2.4513,2.3519,2.2198,2.1248,2.0474,1.9809,1.8806,1.7577,1.6251,1.5152,0.0,0.0,0.0,0.0,0.0,0.0,0.0,0.0,0.0,0.0,0.0,0.0,0.0,0.0,0.0,0.0,0.0,0.0,0.0,0.0,0.0,0.0,0.0,0.0,2.0765,2.0438,2.0723,2.0341,2.0149,2.0496,2.0721,2.0809,2.0775,1.9732,1.9208,1.9506,1.8804,1.8714,1.9481,2.0025,2.0735,2.1611,2.1513,2.1745,2.2358,2.2366,2.2651,2.3221,2.3347,2.368,2.4148,2.3933,2.3485,2.2886,2.2149,2.1308,2.0448,1.9908,1.9343,1.8722,0.0,0.0,0.0,0.0,1.402,1.3378,1.5824,1.688,1.782,1.7925,1.7948,1.8558,2.0336,2.114,2.2161,2.3826,2.5266,2.5379,2.3343,2.4654,2.4626,2.2003,2.3804,2.475,2.3925,2.5001,2.6134,2.7179,2.6894,2.6888,2.7233,2.7137,2.6833,2.6308,2.6044,2.5801,2.5611,2.5743,2.6007,2.6378,2.6466,2.6142,2.5591,2.639,2.6038,2.5057,2.676,2.6366,2.463,2.2896,2.269,2.3067,2.1276,2.0348,1.9734,1.8313,0.0,0.0,0.0,0.0,0.0,0.0,0.0,0.0,0.0,0.0,0.0,0.0,0.0,0.0,0.0,0.0,0.0,0.0,0.0,0.0,0.0,0.0,0.0,0.0,2.1217,2.0787,2.1257,2.0935,2.0896,2.1566,2.187,2.2015,2.1939,2.0816,2.0089,2.0091,1.9496,1.9238,1.9413,2.0207,0.0,0.0,0.0,2.1748,2.2687,2.2365,2.2781,2.39,2.4143,2.4625,2.5319,2.4818,2.4188,2.3436,2.2613,2.1741,2.0936,2.0494,2.0019,1.9467,1.822,1.7235,1.6305,1.4755,1.4139,1.4028,1.6992,1.7755,1.8309,1.818,1.8286,1.8735,1.9822,2.107,2.2337,2.3604,2.5319,2.6066,2.5169,2.5387,2.5038,2.3636,2.4441,2.531,2.6033,2.7309,2.7837,2.7371,2.7388,2.7812,2.8679,2.7593,2.7226,2.7632,2.6525,2.5652,2.5064,2.5501,2.5458,2.5019,2.5618,2.5826,2.5801,2.6658,2.6959,2.6937,2.7838,2.6859,2.4908,2.5048,2.4618,2.3868,2.3412,2.2823,2.2121,2.1226,1.9759,1.8051,1.6818,1.5873,0.0,0.0,0.0,0.0,0.0,0.0,0.0,0.0,0.0,0.0,0.0,0.0,0.0,0.0,0.0,0.0,0.0,0.0,0.0,2.1747,2.0833,2.0439,2.126,2.1124,2.1153,2.1758,2.2167,2.2491,2.2685,2.1388,2.0584,2.0634,2.0268,2.0099,2.0186,2.1196,2.1866,2.2022,2.227,2.2496,2.2692,2.3617,2.4233,2.454,2.5307,0.0,2.6157,2.6006,2.5893,2.5764,2.4315,2.349,2.308,2.1666,2.0465,1.9457,1.882,1.7937,1.6952,1.6245,1.604,1.6014,1.8145,1.8584,1.8793,1.8755,1.8807,1.9179,2.0161,2.0974,2.2047,2.3601,2.4995,2.5618,2.5024,2.5509,2.5561,2.4672,2.576,2.673,2.7314,2.8201,2.8243,2.7197,2.7437,2.7661,2.7789,2.6879,2.6549,2.6847,2.5833,2.5325,2.5259,2.5564,2.569,2.5731,2.6458,2.6633,2.6426,2.764,2.7981,2.7758,2.8496,2.8088,2.701,2.7079,2.6586,2.5829,2.5612,2.5224,2.4591,2.3471,2.2253,2.0976,1.9631,1.8569,1.7647,0.0,0.0,0.0,0.0,0.0,0.0,0.0,0.0,0.0,0.0,0.0,0.0,0.0,0.0,2.4673,2.4015,0.0,2.2273,2.2384,2.1297,2.0672,2.1364,2.1479,2.1778,2.2515,2.2826,2.3007,2.3052,2.2104,2.1342,2.0974,2.0572,2.0424,2.0537,2.1159,2.1686,2.2088,2.2103,2.2502,2.328,2.3358,2.4094,2.5442,2.5508,2.6061,2.6987,2.694,2.6735,2.6387,2.5074,2.4206,2.3629,2.2012,2.0763,1.9803,1.9296,1.8356,1.7267,1.6885,1.6853,1.6947,1.8935,1.9255,1.9325,1.9362,1.9291,1.9545,2.0544,2.0738,2.1419,2.3205,2.4094,2.4493,2.4274,2.5143,2.5763,2.5783,2.712,2.8067,2.8322,2.8752,2.8485,2.7338,2.7523,2.739,2.6868,2.6207,2.5839,2.5774,2.5103,2.5019,2.5502,2.5559,2.591,2.6519,2.7121,2.7075,2.6666,2.8231,2.8474,2.7959,2.8905,2.9238,2.916,2.9034,2.8587,2.8031,2.7852,2.752,2.6984,2.5532,2.4418,2.3395,2.1979,2.0835,1.9914,1.9502,1.9519,0.0,0.0,0.0,0.0,0.0,0.0,0.0,0.0,2.5272,2.5642,2.5457,2.554,2.5535,2.5194,2.3924,2.2942,2.2996,2.1797,2.0965,2.1356,2.1686,2.2251,2.3167,2.3519,2.3553,2.3239,2.2725,2.2099,2.135,2.0967,2.0794,2.0844,2.1167,2.1553,2.207,2.1818,2.2297,2.3599,2.3045,2.3847,2.6008,2.5684,2.6275,2.7642,2.7585,2.7223,2.6612,2.5455,2.4394,2.337,2.2011,2.1023,2.0261,1.9734,1.8812,1.7686,1.7256,1.72,1.7375,1.8742,1.9515,1.9925,1.969,1.9406,1.9455,2.0235,2.0171,2.0449,2.163,2.2058,2.2735,2.3887,2.4104,2.5163,2.7665,2.7835,2.8321,2.9516,2.9876,2.9622,2.8718,2.8154,2.7944,2.8099,2.6759,2.6055,2.6066,2.5386,2.509,2.5159,2.5164,2.5278,2.5466,2.5491,2.5466,2.5484,2.7039,2.7571,2.7522,2.9032,2.9541,2.9529,3.0887,3.0717,2.9771,3.009,2.9812,2.9093,2.7843,2.6596,2.5326,2.3858,2.3184,2.2736,2.1757,2.1884,2.2344,2.2207,2.2939,2.4074,2.5462,2.571,2.6009,0.0,2.7874,2.7808,2.7674,2.7435,2.7117,2.6732,2.4642,2.2946,2.2765,2.1565,2.0723,2.1021,2.1342,2.198,2.3082,2.3863,2.4033,2.3351,2.3004,2.2598,2.2037,2.2053,2.1876,2.1431,2.2324,2.2595,2.203,2.2206,2.2383,2.2567,2.4038,2.4958,2.5335,2.678,2.7584,2.7774,2.7774,2.7722,2.7549,2.5879,2.4213,2.2583,2.1926,2.1289,2.0699,2.0208,1.9584,1.8784,1.7808,1.7492,1.7612,1.9524,2.0193,2.053,2.0429,2.0085,1.9936,2.0191,1.9971,1.9993,2.0547,2.0765,2.1264,2.2308,2.3813,2.5361,2.6971,2.795,2.8699,2.919,2.97,2.9264,2.7695,2.7615,2.725,2.6457,2.5445,2.497,2.4996,2.4717,2.4576,2.4585,2.4585,2.4871,2.5416,2.5385,2.5601,2.6129,2.7701,2.8541,2.8906,3.0017,3.0911,3.1672,3.2262,3.2397,3.2195,3.1627,3.1059,0.0,2.9196,2.8278,2.7408,2.6054,2.5046,2.4273,2.3699,2.3764,2.4101,2.4405,2.5003,2.5753,2.659,2.7009,2.7569,2.8806,2.916,2.9146,2.8969,2.869,2.8209,2.7294,2.5598,2.413,2.35,2.2407,2.1584,2.1389,2.16,2.1999,2.2553,2.3479,2.3847,2.3291,2.3454,2.3292,2.2556,2.2605,2.2812,2.3232,2.3266,2.3232,2.3171,2.2811,2.3122,2.4135,2.4585,2.5561,2.7072,2.7371,2.7745,2.821,2.8174,2.7814,2.7161,2.6069,2.4738,2.3265,2.2473,2.1832,2.1292,2.0812,2.026,1.9609,1.8621,1.8536,1.8946,2.0214,2.0746,2.0958,2.1023,2.087,2.0606,2.0236,1.9749,1.9452,1.9461,1.9498,1.9927,2.1088,2.3598,2.5492,2.625,2.7835,2.8852,2.8934,2.9332,2.8858,2.726,2.7157,2.6612,2.5548,2.4608,2.4287,2.4613,2.4107,2.3983,2.4199,2.4219,2.4433,2.4804,2.5062,2.536,2.5748,2.7599,2.8708,2.9364,3.0541,3.1729,3.2821,3.2939,3.3352,3.3742,3.2806,3.2188,3.1632,3.0546,2.9884,2.9263,2.789,2.6792,2.593,2.5498,2.5473,2.5694,2.6202,2.6557,2.6906,2.7489,2.794,2.8482,2.9443,2.9943,3.022,3.0246,3.0043,2.9543,2.8493,2.7083,2.5713,2.4641,2.3469,2.2551,2.2118,2.2091,2.2158,2.229,2.3188,2.3602,2.3115,2.3618,2.3608,2.276,2.3131,2.3577,2.3955,2.3938,2.3858,2.3732,2.3227,2.3568,2.4839,2.4967,2.5972,2.7792,2.7538,2.7797,2.8543,2.8484,2.7771,2.6535,2.6318,2.5401,2.3975,2.3248,2.249,2.1779,2.1369,2.0862,2.0278,1.954,1.9539,1.9858,0.0,2.0958,2.1087,2.134,2.1632,2.1467,2.0275,1.938,1.8664,1.822,1.8051,1.8742,2.0787,2.3327,2.5298,2.6314,2.7566,2.8605,2.9244,2.9063,2.8786,2.8467,2.7144,2.6474,2.6551,2.5012,2.4679,2.5641,2.39,2.3446,2.4209,2.4269,2.3835,2.3024,2.401,2.3984,2.3354,2.5759,2.7118,2.786,3.0173,3.1412,3.1913,3.2622,3.3283,3.3785,3.3694,3.339,3.2919,3.2193,3.1535,3.0754,2.9152,2.8488,2.8105,2.712,2.7068,2.734,2.7432,2.7308,2.7432,2.85,2.8512,2.8565,2.9575,3.0395,3.1151,3.1788,3.1711,3.138,3.0883,2.9264,2.7539,2.6083,2.4503,2.3415,2.3266,2.2747,2.2432,2.2565,2.3254,2.3464,2.2868,2.3295,2.3278,2.2479,2.3792,2.4052,2.2716,2.4296,2.4568,2.3082,2.3265,2.341,2.3454,2.5252,2.6191,2.6281,2.7242,2.8037,2.8682,2.8625,2.7619,2.5965,2.6736,2.6043,2.4368,2.4139,2.3288,2.2068,2.1851,2.1385,2.0749,2.0532,2.021,1.9841,0.0,0.0,2.1292,2.1386,2.1859,2.1898,2.0916,1.9878,1.8817,1.772,1.7799,0.0,0.0,0.0,0.0,0.0,2.7139,2.8004,2.9289,2.878,2.8222,2.7724,2.6912,2.601,2.5027,2.3945,2.3315,2.3119,2.2461,2.2273,2.2535,2.2511,2.266,2.2885,2.2732,2.3084,2.3896,2.5771,2.7163,2.8335,3.064,3.1912,3.2477,3.3265,3.405,3.4733,0.0,3.4541,3.4129,3.3821,3.2826,3.1509,3.0438,2.9967,2.9639,2.8909,2.8448,2.8263,2.8546,2.8744,2.8977,2.9478,2.9647,2.9924,3.0849,3.1266,3.1507,3.1635,3.1499,3.1062,3.0131,2.9092,2.797,2.6766,2.5467,2.4384,2.3671,2.3536,2.3308,2.2741,2.3475,2.3715,2.2886,2.3367,2.3653,2.3484,2.3943,2.4292,2.4464,2.4531,2.466,2.4842,2.451,2.4884,2.6039,2.6769,2.7431,2.8001,2.8333,2.831,2.799,2.85,2.836,2.765,2.685,2.608,2.5298,2.4028,2.3115,2.2487,2.2284,2.1897,2.1415,2.1103,2.1088,2.1118,0.0,0.0,0.0,2.1166,2.184,0.0,0.0,0.0,0.0,0.0,0.0,0.0,0.0,0.0,0.0,0.0,0.0,2.7026,2.8452,2.7782,2.7348,2.7403,2.6259,2.5346,2.4713,2.3577,2.3064,2.3198,2.2498,2.2149,2.2131,2.208,2.2023,2.1965,2.1856,2.2182,2.2922,2.4484,2.6031,2.7621,2.98,3.1378,3.2546,3.3648,3.449,0.0,3.5962,3.5935,3.5459,3.5064,3.4202,3.3085,3.1968,3.1168,3.0521,2.9816,2.9135,2.8699,2.8988,2.8809,2.8755,2.9582,2.9682,2.9874,3.1041,3.1557,3.1736,3.1627,3.1707,3.1458,3.0326,2.9938,2.9287,2.7781,2.6911,2.6043,2.4962,2.4462,2.3968,2.331,2.3515,2.3484,2.2933,2.3245,2.3667,2.4121,2.4139,2.4432,2.5099,2.4673,2.4596,2.5004,2.4685,2.5048,2.6164,2.6948,2.7743,2.861,2.8874,2.823,2.683,2.8276,2.8493,2.7713,2.7326,2.6856,2.6238,2.5066,2.4068,2.3219,2.3034,2.2522,2.1838,2.1584,2.16,2.161,0.0,0.0,0.0,0.0,0.0,0.0,0.0,0.0,0.0,0.0,0.0,0.0,0.0,0.0,0.0,0.0,0.0,0.0,2.6777,2.6076,2.6177,2.7394,2.5326,2.4578,2.5501,2.3887,2.3855,2.5541,2.3802,2.2911,2.2802,2.2812,2.1922,2.0341,2.1299,2.1285,2.063,2.2091,2.3835,2.5791,2.7863,2.9953,3.1977,3.3674,3.454,3.5089,3.7062,3.748,3.6953,3.5984,3.5635,3.53,3.3708,3.2154,3.0756,2.9874,2.9205,2.8721,2.8738,2.7687,2.7031,2.8909,2.8737,2.8551,3.0176,3.117,3.1722,3.1716,3.2232,3.2394,3.1348,3.1641,3.1345,2.9147,2.8688,2.8201,2.7001,2.548,2.4406,2.4199,2.3432,2.2928,2.302,2.3005,2.3412,2.4421,2.4408,2.4435,2.4641,2.4717,2.4417,2.3719,2.3935,2.4079,2.4144,2.5898,2.7182,2.7987,2.8778,2.7814,2.546,2.8035,2.8165,2.6438,2.8122,2.8185,2.7115,2.7066,2.5956,2.4261,2.4095,2.3241,2.2113,2.2056,2.1794,2.1437,0.0,0.0,0.0,0.0,0.0,0.0,0.0,0.0,0.0,0.0,0.0,0.0,0.0,0.0,0.0,0.0,0.0,0.0,2.4725,2.465,2.4828,2.5415,2.5006,2.4661,2.4408,2.3874,2.3502,2.332,2.2749,2.2188,2.1623,2.1687,2.1189,2.0234,2.0541,2.0844,2.1177,2.2399,2.3572,2.4817,2.7598,2.9361,3.057,3.2637,3.4227,3.5503,3.6975,3.7924,3.8431,3.809,3.6778,3.5212,3.4674,3.3024,3.1098,3.0235,2.9554,2.8923,2.8236,2.7846,2.7838,2.879,2.8709,2.864,2.9516,2.9567,2.9619,3.0243,3.0267,3.0247,3.0553,3.1059,3.1145,3.0261,2.9459,2.8567,2.7417,2.6327,2.5195,2.391,2.404,2.3962,2.3354,2.3826,2.4622,2.573,2.4567,2.3842,2.3961,2.4024,2.4295,2.4858,2.4931,2.5305,2.5994,2.6539,2.6596,2.6188,2.7663,2.766,2.6418,2.8326,2.8902,2.8333,2.8052,2.777,2.741,2.6658,2.6038,2.545,2.4607,2.4051,2.3606,2.276,2.2337,2.2327,0.0,0.0,0.0,0.0,0.0,0.0,0.0,0.0,0.0,0.0,0.0,0.0,0.0,0.0,0.0,0.0,0.0,0.0,0.0,2.3566,2.3798,2.4241,2.3651,2.3326,2.3303,2.2766,2.2527,2.2596,2.2537,2.1923,2.0808,2.1056,2.045,1.9153,1.9557,1.9934,2.0336,2.1063,2.2259,0.0,0.0,2.7636,2.9217,3.1546,3.3474,3.5154,3.6802,3.8442,3.9824,3.9751,3.804,3.5737,3.4505,3.3229,3.1868,3.0231,2.9267,2.8507,2.7574,2.7326,2.7485,2.8097,2.8509,2.8865,2.9236,2.9317,2.9448,2.9827,2.9757,2.9708,2.9873,3.0993,3.1409,2.9925,2.9764,2.9304,2.7785,2.6443,2.5274,2.4329,2.4228,2.4045,2.3573,2.3908,2.4596,2.5648,2.4783,2.4458,2.4996,2.434,2.4391,2.5316,2.5026,2.5335,2.6311,2.6701,2.6646,2.6181,2.7902,2.804,2.6854,2.8547,2.9082,2.8606,2.8452,2.8338,2.8208,2.7619,2.6879,2.6099,2.5718,2.486,2.3819,2.3829,2.33,2.2819,0.0,0.0,0.0,0.0,0.0,0.0,0.0,0.0,0.0,0.0,1.7497,1.8191,1.923,1.9809,0.0,0.0,0.0,0.0,0.0,0.0,2.2617,2.3095,2.1841,2.1452,2.2118,2.1198,2.1274,2.2467,2.2491,2.1703,2.0127,2.0491,1.9582,1.7661,1.839,1.8796,1.8897,1.9201,2.0639,2.2784,2.372,2.5526,2.7961,0.0,3.2457,3.4411,3.6706,3.8994,4.0896,4.0774,3.9118,3.6676,3.4294,3.3374,3.2704,3.0195,2.8783,2.787,2.7006,2.6594,2.6572,2.7324,2.82,2.893,2.9067,2.948,2.9812,2.966,2.968,2.9647,2.936,3.1067,3.1687,2.9129,2.9827,2.9982,2.7972,2.6162,2.5005,2.4871,2.4143,2.3678,2.3742,2.3887,2.4346,2.5179,2.5354,2.5734,2.6489,2.5066,2.4586,2.5404,2.493,2.5032,2.5798,2.6487,2.6851,2.687,2.8427,2.8436,2.713,2.8772,2.9013,2.8231,2.9045,2.9289,2.9112,2.9037,2.8109,2.6686,2.6898,2.5677,2.3879,2.4842,2.4301,2.3419,0.0,0.0,0.0,0.0,0.0,0.0,0.0,0.0,0.0,1.5333,1.6491,1.7436,0.0,0.0,0.0,0.0,0.0,0.0,0.0,0.0,0.0,2.0079,2.0532,2.0777,2.0759,2.0357,2.0496,2.121,2.1114,2.0411,1.9146,1.8941,1.8093,1.6746,1.7156,1.7687,1.8319,1.9116,2.0129,2.131,2.2849,2.4746,2.6887,2.8987,0.0,0.0,3.713,3.9418,4.0866,4.0153,3.9128,3.7921,3.6751,3.4882,3.2758,3.0852,2.9133,2.7771,2.7322,2.6531,2.6193,2.7699,2.7923,2.7932,2.8479,2.8031,2.764,2.8145,2.7694,2.7677,2.912,3.027,3.0748,3.0011,2.9984,2.9351,2.7335,2.6063,2.5006,2.4187,2.3946,2.3865,2.3937,2.5283,2.6258,2.6469,2.7159,2.6991,2.569,2.4772,2.4681,2.5532,2.6247,2.6347,2.5823,2.5997,2.6053,2.6019,2.7025,2.768,2.8006,2.9025,2.9359,2.9159,2.9268,2.9299,2.9251,2.9189,2.8946,2.8459,2.7007,2.6571,2.6531,2.4673,2.4575,2.5379,0.0,0.0,0.0,0.0,0.0,0.0,1.5601,1.4673,1.4034,1.3983,1.4671,1.5667,1.6951,1.7916,1.8412,0.0,0.0,0.0,0.0,0.0,0.0,1.8746,1.898,1.8982,1.8641,1.8145,1.809,1.8563,0.0,1.8065,1.727,1.7162,1.669,1.5962,1.6644,1.7377,1.8167,1.9067,2.005,2.1095,2.1993,2.3402,2.5171,2.7255,0.0,0.0,3.7318,3.9255,4.0312,3.9858,3.9072,3.8066,3.6742,3.5387,3.3775,3.112,2.9697,2.8731,2.7568,2.7107,2.7127,2.7815,2.8031,2.801,2.7807,2.7546,2.7374,2.7379,2.7272,2.7355,2.7985,2.9138,2.976,2.9063,2.9194,2.8844,2.7271,2.6199,2.518,2.4178,2.4461,2.4747,2.4778,2.5981,2.6967,2.7482,2.753,2.7167,2.632,2.595,2.5745,2.5707,2.6608,2.6922,2.6587,2.6155,2.618,2.6634,2.7455,2.803,2.8435,2.9232,2.9617,2.9608,2.957,2.9531,2.95,2.9401,2.9058,2.849,2.7471,2.6753,2.6249,2.5835,2.5264,2.4884,0.0,0.0,0.0,0.0,0.0,0.0,1.5186,1.4305,1.3466,1.2851,1.3081,1.3957,1.5637,1.6908,1.7626,0.0,0.0,0.0,0.0,0.0,0.0,0.0,0.0,1.6931,1.6485,0.0,0.0,1.6068,1.6,0.0,0.0,0.0,0.0,0.0,1.6056,1.7023,1.8168,1.8902,1.9895,0.0,0.0,2.2025,2.3499,0.0,0.0,0.0,0.0,3.7974,3.892,3.887,3.8322,3.7373,3.5809,3.5073,3.4269,3.1546,3.0278,2.9462,2.8037,2.7736,2.7849,2.794,2.8189,2.8188,2.733,2.727,2.7247,2.6811,2.6841,2.6932,2.6919,2.7994,2.8639,2.796,2.831,2.8267,2.7104,2.6257,2.536,2.433,2.4829,2.5328,2.5504,2.6339,2.7233,2.8147,2.7662,2.726,2.7101,2.7279,2.698,2.6102,2.6959,2.7283,2.7016,2.636,2.6483,2.738,2.797,2.8462,2.8873,2.947,2.9771,2.9816,2.9808,2.9755,2.9692,2.9569,2.908,2.8346,2.7972,2.7097,2.6132,2.6822,2.5971,2.4685,0.0,0.0,0.0,0.0,0.0,0.0,1.4374,1.3552,1.2742,1.2078,1.262,1.3194,1.3652,1.4983,1.6156,0.0,0.0,0.0,0.0,0.0,0.0,0.0,0.0,0.0,0.0,0.0,0.0,1.4938,1.4642,0.0,0.0,0.0,0.0,0.0,0.0,1.6012,1.8199,1.8466,0.0,0.0,0.0,0.0,0.0,0.0,0.0,0.0,0.0,3.4645,3.6164,3.6156,3.6027,3.5669,3.4714,3.3699,3.2821,3.2617,3.0757,2.8789,2.9045,2.8047,2.7147,2.8187,2.8114,2.7675,2.736,2.6654,2.6082,2.6075,2.5247,2.5021,2.6697,2.7061,2.7329,2.788,2.7947,2.749,2.6287,2.5988,2.5454,2.434,2.4385,2.479,2.5523,2.6496,2.7408,2.8232,2.8351,2.7993,2.7147,2.7848,2.7875,2.7015,2.7934,2.7702,2.6126,2.6102,2.6492,2.7307,2.7452,2.8275,2.9695,2.9813,2.9876,2.9895,2.9825,2.9763,2.969,2.9617,2.9474,2.9196,2.8318,2.8286,2.8478,2.6436,2.6339,2.7073,0.0,0.0,0.0,0.0,0.0,0.0,1.3553,1.3218,1.2679,1.1724,1.1964,1.2425,1.2984,1.4095,1.5312,1.648,1.6863,0.0,0.0,0.0,0.0,0.0,0.0,0.0,0.0,0.0,1.3531,1.3597,1.357,0.0,0.0,0.0,0.0,0.0,0.0,1.7987,1.9418,1.9702,0.0,0.0,0.0,0.0,0.0,0.0,0.0,0.0,0.0,0.0,3.4519,3.4769,3.4486,3.3897,3.3105,3.2061,3.1244,3.1752,3.0951,2.9795,2.9164,2.8246,2.7631,2.8289,2.7602,2.682,2.6922,2.6268,2.5629,2.5485,2.5232,2.5285,2.6075,2.616,2.6365,2.7098,2.7557,2.7595,2.703,2.736,2.7044,2.541,2.6233,2.6633,2.5861,2.7528,2.8799,2.9119,2.9274,2.9185,2.8803,2.8616,2.811,2.7255,2.7606,2.7503,2.6855,2.5831,2.6288,2.8191,2.7661,2.8285,2.9907,2.9951,2.9975,3.0018,2.9918,2.9841,2.9798,2.971,2.9569,2.9378,2.8479,2.8278,2.8384,2.7452,2.7123,2.7093,0.0,0.0,0.0,0.0,0.0,1.3312,1.2771,1.2636,1.2296,1.1493,1.1592,1.2043,1.2789,1.3803,1.4858,1.5998,1.6522,0.0,0.0,0.0,0.0,0.0,0.0,0.0,0.0,0.0,1.2889,1.2597,1.2538,1.2619,0.0,0.0,1.4582,1.6104,0.0,0.0,0.0,0.0,0.0,0.0,0.0,0.0,0.0,0.0,0.0,0.0,0.0,0.0,0.0,0.0,0.0,3.1327,3.0836,3.0156,2.9718,3.0708,3.0734,3.0206,2.9119,2.837,2.7904,2.7872,2.7099,2.6344,2.6327,2.582,2.5317,2.5217,2.5226,2.5332,2.5619,2.5625,2.5816,2.6583,2.7311,2.7758,2.7612,2.829,2.8183,2.6536,2.7463,2.7746,2.6478,2.8192,2.9506,2.9769,2.9885,2.9832,2.9593,2.8982,2.8258,2.7399,2.7127,2.7032,2.708,2.5852,2.6441,2.8795,2.8127,2.8582,3.0007,3.0022,3.003,3.0038,2.9956,2.9899,2.9851,2.9756,2.9645,2.9485,2.8848,2.8556,2.848,2.8305,2.7791,2.723,0.0,0.0,0.0,0.0,0.0,1.2229,1.1952,1.1629,1.1397,1.1302,1.1653,1.219,1.2929,1.4003,1.488,1.5366,1.6086,0.0,0.0,0.0,0.0,0.0,0.0,0.0,1.342,1.3079,1.2632,1.2115,1.1436,1.1463,1.2099,1.1442,1.2419,1.4754,0.0,0.0,0.0,0.0,0.0,0.0,0.0,0.0,2.1665,0.0,0.0,0.0,0.0,0.0,0.0,0.0,0.0,0.0,0.0,2.7888,2.8242,2.9839,2.9978,2.9504,2.9018,2.8407,2.7694,2.6831,2.665,2.6471,2.5616,2.52,2.508,2.5335,2.4876,2.4656,2.5455,2.5551,2.5751,2.6579,2.7311,2.7744,2.7612,2.8289,2.8453,2.7509,2.7396,2.7418,2.7392,2.8187,2.906,2.9923,3.0007,2.9661,2.8855,2.8798,2.8403,2.7538,2.6721,2.6298,2.6313,2.6279,2.7122,2.8801,2.8782,2.9216,3.0007,3.008,3.003,2.9916,2.9964,2.9916,2.9799,2.9726,2.97,2.9673,2.9541,2.9492,2.938,2.8587,2.8202,2.7966,0.0,0.0,0.0,0.0,0.0,0.0,1.1983,1.204,1.1991,1.1747,1.2582,1.3174,1.3152,1.4447,1.529,1.5266,1.6107,0.0,0.0,0.0,0.0,0.0,0.0,1.3894,1.3409,1.3132,1.2725,1.2248,1.2115,1.1719,1.1113,1.2411,1.3517,1.4517,1.6385,1.7833,0.0,0.0,0.0,0.0,0.0,2.003,2.1009,0.0,0.0,0.0,0.0,0.0,0.0,0.0,0.0,0.0,0.0,0.0,0.0,2.7702,2.7865,2.7845,2.7643,2.7103,2.6613,2.6669,2.6236,2.5851,2.597,2.5673,2.5385,2.5512,2.5369,2.5299,2.5556,2.5502,2.5526,2.5762,2.642,2.7088,2.7592,2.8396,2.8592,2.7648,2.705,2.7131,2.8192,2.8582,2.9125,2.9996,2.9513,2.933,2.9669,2.8646,2.7636,2.6718,2.6432,2.6319,2.6359,2.6359,2.7217,2.8859,2.8912,2.9357,3.0135,3.0113,3.0072,3.0023,2.9972,2.9899,2.9851,2.9744,2.9673,2.9626,2.9636,2.9617,2.9551,2.9326,2.9167,2.9014,0.0,0.0,0.0,0.0,0.0,0.0,1.1776,1.1797,1.1928,1.2179,1.3084,1.3756,1.3768,1.5128,1.5881,1.5512,1.6346,0.0,0.0,0.0,0.0,0.0,1.4501,1.4106,1.3705,1.3433,1.2953,1.2264,1.2181,1.1559,1.0409,1.185,1.2769,1.329,1.5502,1.6881,0.0,0.0,0.0,0.0,1.9131,1.9828,2.06,0.0,0.0,0.0,0.0,0.0,0.0,0.0,0.0,0.0,0.0,0.0,0.0,0.0,2.6355,2.6533,2.6906,2.6704,2.6414,2.6365,2.6046,2.5773,2.5964,2.5754,2.5559,2.5586,2.5604,2.5574,2.5534,2.5437,2.5365,2.5354,2.6,2.6806,2.7666,2.8191,2.8403,2.8115,2.7396,2.7536,2.9115,2.9034,2.9093,2.9646,2.9453,2.9294,2.9198,2.8567,2.7765,2.6815,2.6809,2.7014,2.737,2.7708,2.8383,2.9384,2.9748,3.0002,3.0164,3.0116,3.0087,3.0057,2.9996,2.9943,0.0,2.9771,2.97,2.9645,2.9683,2.9673,2.9645,2.9683,2.9636,2.9531,0.0,0.0,0.0,0.0,0.0,0.0,1.1521,1.1212,1.1439,1.2628,1.3308,1.3972,1.4747,1.602,1.6595,1.6078,1.6769,0.0,0.0,0.0,0.0,1.5358,1.4765,1.435,1.4199,1.396,1.3306,1.2206,1.1834,1.1065,0.9953,1.0089,1.0573,1.1342,1.3281,1.4568,0.0,0.0,0.0,0.0,1.9032,1.9614,0.0,0.0,0.0,0.0,0.0,0.0,0.0,0.0,0.0,0.0,0.0,0.0,0.0,0.0,0.0,0.0,0.0,2.6935,2.6785,2.5982,2.6023,2.6111,2.5637,2.556,0.0,2.5593,2.5593,2.5563,2.5441,2.5346,2.5298,2.5312,2.594,2.6746,2.7745,2.7792,2.7969,2.8651,2.8198,2.8394,2.9883,2.9398,2.9002,2.9009,2.9639,2.937,2.788,2.8562,2.8626,2.7815,2.7861,2.8275,2.9079,2.9889,3.0311,3.031,3.1054,3.0942,3.0109,3.0109,3.0064,3.0022,3.008,2.9983,2.9816,2.9808,2.9763,2.9699,2.971,2.9692,2.969,2.9701,2.9645,2.9598,0.0,0.0,0.0,0.0,0.0,0.0,0.0,0.0,0.0,0.0,1.4134,1.4931,1.6173,1.6563,1.6913,0.0,0.0,0.0,0.0,0.0,0.0,1.5916,1.5188,1.4547,1.4057,1.4143,1.358,1.2353,1.2208,1.118,0.9392,0.9688,0.9864,1.0016,1.1648,1.3552,0.0,0.0,0.0,0.0,1.9051,1.9493,0.0,0.0,0.0,0.0,2.0929,2.1402,0.0,0.0,0.0,0.0,0.0,0.0,0.0,0.0,2.553,2.5619,2.5857,0.0,2.5714,2.5658,2.5703,2.5742,0.0,2.5664,2.566,2.5614,2.5609,2.5599,2.5564,2.541,2.5322,2.5361,2.5457,2.6025,2.7549,2.7813,2.7673,2.7209,2.7619,2.8077,2.8409,2.8783,2.9027,2.9075,2.8581,2.8409,2.8689,2.8893,2.9181,2.9586,2.9653,2.9793,2.9986,3.0196,3.0638,3.1263,3.1416,3.1024,3.0168,3.013,3.0116,3.0142,3.0061,2.9983,2.9883,2.9815,2.9763,2.9699,2.971,2.9664,2.9626,2.9673,2.9626,2.9512,0.0,0.0,0.0,0.0,0.0,0.0,0.0,0.0,0.0,0.0,1.5075,1.5917,1.7087,1.7424,1.7705,0.0,0.0,0.0,0.0,1.8083,1.7443,1.6943,1.6256,1.5619,1.5015,1.5128,1.4515,1.3183,1.3029,1.1909,0.993,0.9743,0.9533,0.94,1.1055,1.3126,1.5432,1.6589,0.0,1.8176,1.9043,0.0,0.0,0.0,0.0,0.0,2.0803,2.131,0.0,2.2398,2.3371,2.4317,0.0,0.0,0.0,0.0,2.5741,2.6154,2.6157,2.582,2.5506,2.562,2.5618,2.5621,2.5682,2.5672,2.5632,2.5618,0.0,2.5531,2.5518,2.538,2.5303,2.5312,2.5605,2.6304,2.7645,2.8241,2.8372,2.7898,2.7933,2.8133,2.8511,2.8544,2.8392,2.8037,2.7868,2.7983,2.8424,2.8821,2.9404,3.0181,3.0267,3.0484,3.0881,3.0925,3.1149,3.1603,3.1558,3.1064,3.0213,3.0152,3.0164,3.0185,3.0083,3.0014,2.994,2.9832,2.9536,2.9191,2.956,2.9439,2.9102,2.9495,2.9617,2.954,0.0,0.0,0.0,0.0,0.0,0.0,0.0,0.0,0.0,0.0,0.0,0.0,0.0,0.0,0.0,0.0,0.0,0.0,0.0,1.9624,1.9216,1.8476,1.7569,1.6782,1.6122,1.6101,1.5465,1.4192,1.3755,1.2589,1.0763,0.9799,0.9224,0.9063,1.0853,1.2803,1.4868,1.5787,1.7078,1.8525,1.8958,0.0,0.0,0.0,0.0,0.0,0.0,0.0,0.0,2.2718,2.3583,2.4247,2.4567,0.0,0.0,0.0,0.0,0.0,2.6757,2.6353,2.5885,2.5858,2.5825,2.5764,2.5687,0.0,0.0,0.0,0.0,2.5698,2.5642,2.5661,2.5692,2.5649,2.6304,2.7099,2.7892,2.8657,2.9121,2.9131,2.8586,2.8501,2.9237,2.8522,2.7752,2.7131,2.748,2.7811,2.8027,2.8731,2.9453,3.0215,3.0292,3.0727,3.1584,3.1661,3.1719,3.1788,3.1654,3.1102,3.0192,3.0192,3.0192,3.0192,3.0132,3.0072,3.0007,2.9876,2.93,2.8598,2.94,2.9157,2.8501,2.9308,2.9607,2.9588,0.0,0.0,0.0,0.0,0.0,0.0,0.0,0.0,0.0,0.0,0.0,0.0,0.0,0.0,0.0,0.0,0.0,0.0,0.0,2.0587,2.0781,2.0855,1.8391,1.6602,1.5704,1.568,1.5304,1.4516,1.3407,1.2111,1.0676,0.9034,0.8349,0.8585,1.0166,1.1819,1.3498,1.5033,1.6729,1.8351,1.8734,0.0,0.0,0.0,0.0,0.0,0.0,0.0,0.0,2.1948,2.3013,2.4164,2.4439,0.0,0.0,0.0,0.0,0.0,2.6604,2.6805,2.6755,2.6584,2.6578,2.6426,2.5699,2.5515,0.0,0.0,0.0,0.0,2.6678,2.7135,2.7539,2.7646,2.7733,2.7868,2.8061,2.8196,2.832,2.8362,2.8845,2.9233,2.9369,2.8545,2.8249,2.8865,2.7656,2.7513,2.8982,2.9134,2.9545,3.0348,3.0383,3.0788,3.1584,3.1616,3.1949,3.2615,3.1862,3.1044,3.02,3.0199,3.0199,3.02,3.0121,3.0095,3.008,2.9945,2.9379,2.8657,2.9416,2.9174,2.8501,2.9373,2.9645,2.956,0.0,0.0,0.0,0.0,0.0,0.0,0.0,0.0,0.0,0.0,0.0,0.0,0.0,0.0,0.0,0.0,0.0,0.0,2.0585,2.1117,2.1363,2.1189,1.9715,1.8309,1.7027,1.6475,1.5717,1.4773,1.3678,1.237,1.0886,0.9177,0.8491,0.8791,1.0298,1.1699,1.3029,1.4561,1.6238,1.7916,0.0,0.0,0.0,0.0,0.0,0.0,0.0,0.0,0.0,0.0,2.3163,2.409,2.4397,0.0,0.0,0.0,0.0,0.0,2.7278,2.7919,2.8314,2.8193,2.7472,2.6705,2.6282,2.5747,2.5383,0.0,0.0,2.6204,2.6795,2.7116,2.7635,2.8641,2.8757,2.8869,2.9387,2.947,2.9527,2.9598,2.9519,2.9441,2.9444,2.8212,2.7555,2.7919,2.678,2.6803,2.8511,2.8531,2.8877,2.974,2.9751,3.009,3.0841,3.0446,3.0893,3.2158,3.1708,3.1292,3.0903,3.0854,3.0866,3.0868,3.03,3.0038,3.003,2.9901,2.9343,2.8665,2.9406,2.8919,2.7887,2.8652,2.8876,2.8836,0.0,0.0,0.0,0.0,0.0,0.0,0.0,0.0,0.0,0.0,0.0,0.0,0.0,0.0,0.0,0.0,0.0,0.0,2.0608,2.1222,2.1449,2.1208,2.0773,1.9818,1.8282,1.7315,1.6353,1.5343,1.415,1.267,1.0938,0.9575,0.9153,0.9558,1.0873,1.2018,1.3071,1.4297,1.5822,1.7527,0.0,0.0,0.0,0.0,0.0,0.0,0.0,0.0,0.0,0.0,0.0,0.0,0.0,0.0,0.0,2.5186,2.5824,2.6698,2.7575,2.8498,2.9186,2.9138,2.8268,2.7352,2.7152,2.6283,2.5587,2.5776,2.572,2.5956,2.6987,2.7487,2.8173,2.9486,2.9502,2.9645,3.0516,3.0528,3.0514,3.0769,3.0205,2.9794,2.9788,2.8384,2.7553,2.7702,2.6524,2.6548,2.8212,2.7874,2.8005,2.8876,2.8909,2.9123,2.9621,2.9065,2.9711,3.1596,3.1339,3.1204,3.1197,3.114,3.1137,3.1137,3.0361,3.0011,3.0014,2.9901,2.936,2.8682,2.9451,2.8981,2.7874,2.7988,2.796,2.7977,0.0,0.0,0.0,0.0,0.0,0.0,0.0,0.0,0.0,0.0,0.0,0.0,0.0,0.0,0.0,0.0,0.0,0.0,2.0431,2.0701,2.1128,2.1728,2.1068,1.9966,1.8418,1.7637,1.7062,1.6652,1.4651,1.2635,1.0614,0.993,1.0126,1.1071,1.1813,1.2647,1.3575,1.4234,1.5629,1.7431,1.7862,0.0,0.0,0.0,0.0,0.0,0.0,0.0,0.0,0.0,0.0,0.0,0.0,0.0,2.5046,2.525,2.5445,2.5806,2.6736,2.7636,2.8289,2.8294,2.8751,2.9005,2.8185,2.7214,2.6541,2.669,2.6639,2.6889,2.7843,2.9377,3.0526,3.0595,2.9975,2.9791,3.0669,3.0092,2.9891,3.0698,3.0737,3.0686,3.0623,2.9765,2.9544,3.036,2.8119,2.7446,2.9108,2.7669,2.7156,2.7961,2.7988,2.7989,2.7963,2.786,2.9072,3.1589,3.0784,3.0343,3.0284,3.0284,3.0261,3.0204,3.0121,3.0098,3.0087,3.0014,2.9439,2.8685,2.9555,2.975,2.9342,2.7779,2.7184,2.726,0.0,0.0,0.0,0.0,0.0,0.0,0.0,0.0,0.0,0.0,0.0,1.8525,1.9618,0.0,0.0,0.0,0.0,0.0,2.087,2.0902,2.1176,2.1773,2.1619,2.1031,1.9987,1.8622,1.753,1.6753,1.4312,1.2665,1.1718,1.1187,1.1373,1.2158,1.2826,1.3548,1.43,1.4662,1.5713,1.7177,1.7517,1.8319,0.0,0.0,0.0,0.0,0.0,0.0,0.0,0.0,2.3599,2.4218,2.5042,2.5203,2.5218,2.5943,2.6214,2.6334,2.6787,2.7936,2.8879,2.8337,2.9232,2.9875,2.8387,2.6846,2.5906,2.6547,2.621,2.6308,2.7879,2.915,3.0168,3.0679,3.0501,3.0413,3.076,3.0518,3.0432,3.076,3.0804,3.0784,3.0762,2.9975,2.936,2.9104,2.8175,2.7865,2.8469,2.7862,2.7628,2.7885,2.7363,2.7066,2.6987,2.6979,2.7975,2.9985,2.9601,2.969,3.0207,3.0166,3.0417,3.0879,3.0334,3.0053,2.9972,2.9948,2.9718,2.9385,2.9179,2.9009,2.8809,2.8063,2.7466,2.7214,0.0,0.0,0.0,0.0,0.0,0.0,0.0,0.0,1.6513,0.0,0.0,0.0,0.0,2.0016,0.0,0.0,0.0,0.0,2.0616,2.0674,2.0929,2.1404,2.166,2.1584,2.1103,1.9915,1.8563,1.7043,1.453,1.3327,1.3364,1.2797,1.2933,1.3644,1.4,1.4476,1.5004,1.509,1.5833,1.6988,1.7329,1.7973,0.0,0.0,0.0,0.0,0.0,0.0,0.0,0.0,2.3783,2.4349,2.5212,2.5305,2.5306,2.6352,2.6704,2.6815,2.7181,2.8371,2.9297,2.8437,0.0,0.0,2.8778,2.7453,2.6719,2.7358,2.7005,2.7002,2.8359,2.9326,3.0106,3.0732,3.0816,3.0817,3.0832,3.0827,3.082,3.0807,3.0799,3.0808,3.0804,3.0268,2.951,2.8582,2.8259,2.7946,2.7605,2.7331,2.7165,2.7118,2.6516,2.6163,2.611,2.611,2.6795,2.8173,2.8134,2.8827,3.0154,2.9858,3.0166,3.0918,3.0064,2.9783,2.994,2.994,2.9916,2.9817,2.8936,2.8699,2.8762,2.8101,2.7662,2.7569,0.0,0.0,0.0,0.0,0.0,0.0,0.0,0.0,1.5416,1.6532,1.7096,0.0,0.0,0.0,0.0,0.0,0.0,0.0,1.9461,1.9851,2.0256,2.0597,2.1119,2.1433,2.1508,2.1477,2.0272,1.782,1.5535,1.4812,1.5508,1.4753,1.4859,1.5671,1.5281,1.5321,1.5694,1.5487,1.5969,1.6953,1.7405,1.7713,1.8031,0.0,0.0,0.0,0.0,0.0,0.0,0.0,2.4014,2.4458,2.473,2.4962,2.5315,2.6313,2.6711,2.7024,2.7862,2.8798,2.9318,2.8501,2.8962,2.959,2.9514,2.9437,2.9388,2.9394,2.9386,2.9418,2.9491,3.0208,3.0801,3.0898,3.0838,3.0818,3.0898,3.0898,3.0875,3.0803,3.08,3.0809,3.0806,3.0782,3.0392,2.9454,2.8582,2.7694,2.6749,2.5873,2.5404,2.5418,2.5346,2.5308,2.5308,2.5231,2.5608,2.6406,2.6421,2.7701,3.0044,2.9254,2.9289,2.9931,2.9148,2.9254,3.0007,3.0007,2.9956,2.9813,2.8944,2.9099,2.9564,2.7778,2.7623,2.8278,0.0,0.0,0.0,0.0,0.0,0.0,0.0,0.0,1.5127,1.5511,1.6479,0.0,0.0,0.0,0.0,0.0,0.0,0.0,2.0303,2.0309,2.0461,2.0795,2.1182,2.1371,2.1294,2.059,1.9791,1.8941,1.7445,1.6825,1.6951,1.565,1.5271,1.5669,1.5288,1.5195,1.5327,1.5195,1.5675,1.6561,1.6752,1.7254,1.8009,0.0,0.0,0.0,0.0,0.0,0.0,0.0,0.0,0.0,2.5594,2.6414,2.7142,2.7483,2.8509,2.9321,2.8359,2.9238,3.0057,2.8595,2.9344,3.0272,2.9648,2.9017,2.8564,2.8554,2.8517,2.8682,2.938,2.9706,3.0095,3.0734,3.0809,3.0809,3.0834,3.0837,3.082,3.079,3.0832,3.0849,3.0803,3.0253,2.9517,2.8625,2.8279,2.7712,2.681,2.6529,2.6362,2.6314,2.5695,2.5346,2.5308,2.5287,2.5954,2.7299,2.7312,2.7688,2.8332,2.8086,2.8387,2.9049,2.8236,2.867,2.9926,2.9924,2.9891,2.9805,2.9595,2.9233,2.8827,2.8848,2.8615,2.8371,0.0,0.0,0.0,0.0,0.0,0.0,1.3858,1.3959,1.4249,1.484,1.5897,1.6957,0.0,0.0,0.0,1.9804,1.9635,0.0,2.015,2.0243,2.0586,2.1273,2.1439,2.1526,2.1526,2.0842,2.032,1.9995,1.8603,1.7814,1.7636,1.6479,1.5904,1.5836,1.5419,1.534,1.5551,1.5429,1.592,1.6733,1.6741,1.7162,1.7871,0.0,0.0,0.0,0.0,0.0,0.0,0.0,0.0,0.0,2.5984,2.7072,2.8079,2.8821,2.9819,3.0617,3.0253,3.0979,3.1563,3.0495,3.1034,3.1696,3.1137,3.0092,2.9238,2.9233,2.9195,2.9354,2.9902,3.0017,3.02,3.0717,3.0792,3.0795,3.0799,3.0807,3.0797,3.08,3.0839,3.0838,3.0803,3.0327,2.9652,2.8772,2.8676,2.8271,2.7394,2.7339,2.7303,2.7257,2.638,2.5907,2.5861,2.5495,2.611,2.7701,2.7701,2.7822,2.807,2.7761,2.7996,2.8684,2.8537,2.8995,2.9864,2.949,2.9549,2.9815,2.9475,2.917,2.8987,2.9467,2.927,2.8848,0.0,0.0,1.4554,1.4405,0.0,0.0,1.2984,1.2757,1.2986,1.4215,1.5264,1.6224,0.0,0.0,0.0,1.8389,1.892,1.9308,1.9431,1.9935,2.07,2.1778,2.1712,2.1768,2.194,2.1766,2.145,2.1005,1.9235,1.8223,1.7935,1.7254,1.6656,1.6142,1.5665,1.5663,1.6038,1.6018,1.6444,1.7123,1.7109,1.7322,1.7714,1.8256,0.0,0.0,0.0,0.0,0.0,0.0,0.0,0.0,2.602,2.7281,2.8642,3.0164,3.0831,3.1388,3.2881,3.3342,3.3384,3.332,3.3352,3.3358,3.3301,3.2095,3.1004,3.1028,3.0904,3.0819,3.0889,3.0833,3.079,3.079,3.0792,3.0792,3.0792,3.0864,3.0881,3.0815,3.0876,3.0898,3.0812,3.0723,3.036,2.9562,2.943,2.9038,2.8235,2.8139,2.8103,2.8097,2.7191,2.6719,2.6708,2.576,2.6107,2.7707,2.7701,2.8096,2.8789,2.8032,2.802,2.8612,2.9515,2.9855,2.9729,2.8959,2.912,2.9792,2.8877,2.9012,2.9699,2.9616,2.9589,2.9614,0.0,0.0,1.3765,1.3529,0.0,0.0,1.1903,1.1935,1.2204,1.2657,1.3949,1.5127,1.5857,1.6915,0.0,1.8127,1.9024,1.9633,1.9708,2.0643,2.1188,2.1182,2.1374,2.1463,2.1448,2.1509,2.1646,2.1839,2.0285,1.9409,1.9182,1.7731,1.6879,1.6549,1.5972,1.5645,1.5579,1.5971,1.6355,1.6678,1.7041,1.7548,1.8122,1.8682,1.9084,0.0,0.0,0.0,0.0,0.0,0.0,0.0,2.5948,2.8509,3.1008,3.0745,3.2189,3.376,3.3399,3.3354,3.3398,3.3374,3.331,3.3229,3.3167,3.2859,3.2629,3.2678,3.1646,3.0931,3.1626,3.1184,3.0719,3.073,3.0728,3.0723,3.0723,3.1317,3.1506,3.0887,3.1394,3.1557,3.0875,3.0226,2.9766,2.9524,2.8873,2.8398,2.8218,2.8133,2.8094,2.8096,2.7241,2.6757,2.67,2.5774,2.6123,2.7788,2.7739,2.8103,2.8874,2.8541,2.8096,2.7689,2.9183,2.9465,2.892,2.9395,2.9655,2.9668,2.8875,2.9039,2.9616,2.8995,2.9514,3.045,0.0,0.0,0.0,0.0,0.0,0.0,0.0,0.0,1.1421,1.1893,1.3107,1.4228,1.4992,1.593,0.0,0.0,1.8296,1.9103,1.9453,2.0439,2.1159,2.1461,2.2003,2.2172,2.1884,2.188,2.1958,2.2095,2.1199,2.0493,1.9947,1.8508,1.7511,1.6972,1.6587,1.6359,1.6278,1.6583,1.6892,1.7183,1.7401,1.7795,1.8289,1.8623,1.9007,1.9353,1.9323,0.0,0.0,0.0,0.0,0.0,0.0,0.0,3.1248,3.1342,3.2922,3.4648,3.4551,3.4568,3.459,3.4551,3.4423,3.4274,3.4224,3.388,3.3699,3.4114,3.2947,3.1856,3.1907,3.1852,3.1685,3.1285,3.1581,3.1868,3.1887,3.2289,3.2433,3.2038,3.2422,3.2541,3.209,3.1287,3.0771,3.0744,2.9948,2.944,2.9449,2.9388,2.9344,2.934,2.8466,2.7952,2.7907,2.6993,2.7166,2.8369,2.8338,2.8694,2.9365,2.8905,2.8414,2.7991,2.925,2.9552,2.9173,2.917,2.9388,2.9614,2.8825,2.8977,2.9654,2.9222,2.9579,3.0217,0.0,0.0,0.0,0.0,0.0,0.0,0.0,0.0,0.0,1.1271,1.2335,1.3364,1.4235,1.5145,1.5893,0.0,0.0,0.0,1.912,2.012,2.1087,2.1984,2.2801,2.3022,2.2584,2.2626,2.2583,2.2448,2.2367,2.1807,2.0788,1.9463,1.8428,1.7671,1.7493,1.7476,1.7594,1.758,1.786,1.829,1.8187,1.8313,1.8585,1.8841,1.9046,1.9254,1.9705,1.9324,1.8852,2.0239,0.0,0.0,0.0,0.0,3.0475,3.172,3.3281,3.4799,3.5645,3.5878,3.5875,3.5931,3.5715,3.5502,3.5533,3.4896,3.4464,3.5119,3.4077,3.2884,3.2309,3.2612,3.2756,3.2072,3.2585,3.3084,3.3166,3.3307,3.337,3.3303,3.348,3.3541,3.3415,3.2754,3.232,3.2316,3.1661,3.1176,3.103,3.0945,3.0857,3.0694,2.9799,2.9278,2.9221,2.8347,2.8261,2.8995,2.9136,2.9456,2.991,2.9304,2.8943,2.8839,2.9496,2.979,2.9716,2.8932,2.9036,2.9588,2.8717,2.8914,2.9673,2.9532,2.9664,2.9889,0.0,0.0,0.0,0.0,0.0,0.0,0.0,0.0,0.0,0.0,1.1138,1.2252,1.3129,1.4401,1.5555,1.6423,1.8173,1.9253,1.9343,0.0,0.0,2.2068,2.2644,2.292,2.2853,2.3666,2.403,2.3829,2.4489,2.4018,2.244,2.0655,1.959,1.9186,1.8824,1.8851,1.918,1.8826,1.914,1.9858,1.9638,1.9561,1.9678,2.0396,1.9696,1.8405,1.8758,1.8343,1.7718,1.8509,1.9826,0.0,0.0,0.0,2.9573,3.1464,3.3241,3.4781,3.559,3.5764,3.5858,3.6443,3.5991,3.5549,3.6063,3.5605,3.5048,3.5044,3.3903,3.3102,3.3699,3.3263,3.2795,3.2686,3.282,3.2945,3.3012,3.3731,3.4005,3.3362,3.3971,3.4168,3.3474,3.3281,3.3237,3.3235,3.3119,3.2701,3.1879,3.1829,3.1478,3.0713,2.9799,2.9302,2.9282,2.8352,2.8261,2.9015,2.9703,3.0049,3.0079,2.9962,2.9831,2.9638,2.9697,2.9709,2.9701,2.9514,2.9476,2.9456,2.8624,2.8849,2.9523,2.8829,2.9486,3.064,0.0,0.0,0.0,0.0,0.0,0.0,0.0,0.0,0.0,0.0,0.0,1.1338,1.242,1.3417,1.462,1.6185,1.7498,1.8801,2.0212,2.118,2.196,2.2512,2.2958,2.3248,2.3403,2.4354,2.4807,2.4716,2.5599,2.5499,2.4448,2.348,2.2086,2.0393,2.0449,2.0438,2.038,2.0203,2.0266,2.0472,2.0522,2.0611,2.0772,2.1009,2.0524,1.9722,1.9849,1.9201,1.8331,1.8557,1.9689,2.1216,2.2303,0.0,0.0,0.0,3.2042,3.4091,3.5351,3.5609,3.5688,3.6356,3.6197,3.6027,3.671,3.6283,3.5732,3.5676,3.5177,3.459,3.4072,3.4045,3.3949,3.3486,3.389,3.4272,3.4334,3.4755,3.4967,3.4684,3.5052,3.5193,3.4831,3.4393,3.4138,3.4138,3.3672,3.2983,3.2044,3.2,3.1579,3.0677,3.024,3.0003,2.9979,2.9527,2.9442,2.9723,3.0055,3.0159,3.0101,3.0106,3.0014,2.9842,2.9763,2.97,2.9683,2.9598,2.9531,2.9455,2.9119,2.9203,2.9513,2.9158,2.9533,3.0171,0.0,0.0,0.0,0.0,0.0,0.0,0.0,0.0,0.0,0.0,0.0,1.0635,1.1818,0.0,0.0,0.0,1.6857,1.8392,2.0895,2.1577,2.2221,2.2972,2.3357,2.3765,2.4241,2.5179,2.5673,2.5713,2.6846,2.7048,2.6372,2.6273,2.4993,2.2758,2.2356,2.2167,2.2089,2.1624,2.1476,2.1572,2.1633,2.1723,2.1829,2.1962,2.1674,2.1186,2.0873,2.0146,1.9247,1.8795,1.9395,2.0457,2.1181,2.3585,0.0,0.0,0.0,3.3168,3.4781,3.5252,3.548,3.6396,3.6511,3.6591,3.7346,3.6931,3.6377,3.6388,3.641,3.6063,3.4916,3.5057,3.515,3.4575,3.4909,3.5277,3.5357,3.5483,3.561,3.5684,3.5826,3.5907,3.5911,3.5386,3.5038,3.5023,3.4422,3.3655,3.2717,3.2629,3.222,3.1297,3.1243,3.1101,3.0823,3.0532,3.0359,3.0292,3.0234,3.0173,3.0116,3.0101,3.0046,2.9929,2.978,2.9691,2.9655,2.954,2.9472,2.9472,2.9463,2.9472,2.9502,2.9502,2.9569,2.9664,0.0,0.0,0.0,0.0,0.0,0.0,0.0,0.0,0.0,0.0,0.0,1.0195,1.1158,1.2359,1.385,1.5746,1.6817,1.847,2.1022,2.1809,2.2513,2.3247,2.3714,0.0,2.5477,2.6423,2.6978,2.709,2.8805,2.9035,2.7895,2.833,2.8112,2.724,2.4652,2.403,2.4778,2.3067,2.2948,2.3885,2.338,2.2995,2.2833,2.3784,2.3303,2.2007,2.1058,2.0503,2.004,1.8684,1.8236,1.866,2.0952,2.2392,2.3809,0.0,0.0,0.0,3.375,3.4534,3.5313,3.6861,3.7049,3.7101,3.7965,3.7473,3.688,3.696,3.697,3.6941,3.6934,3.6459,3.6061,3.6073,3.5523,3.5162,3.5293,3.5412,3.5554,3.5688,3.5822,3.5916,3.5988,3.5951,3.5937,3.5927,3.5893,3.5455,3.4508,3.4399,3.3965,3.3083,3.2996,3.2575,3.1742,3.0788,3.0299,3.0292,3.0226,3.0211,3.0185,3.0132,3.0053,2.9972,2.9787,2.9664,2.9598,2.9453,2.9412,2.9402,2.9409,2.9431,2.9502,2.9502,2.954,2.9607,0.0,0.0,0.0,0.0,0.0,0.0,0.0,0.0,0.0,0.0,0.0,0.0,0.0,1.1936,1.3416,1.5688,1.7396,1.9261,2.1379,2.1749,2.2404,2.357,2.4523,2.5273,2.5777,2.7252,2.805,2.8105,2.9842,3.0478,3.0081,3.0668,3.0538,2.9691,2.6538,2.5236,2.5338,2.4215,2.3927,2.4214,2.4071,2.3958,2.3923,2.4189,2.3436,2.2148,2.1748,2.079,1.9624,1.8944,1.9185,1.9943,2.0939,2.2239,2.3972,2.6921,2.8922,3.0509,3.2072,3.2532,3.3066,3.5066,3.5829,3.6428,3.776,3.7904,3.7735,3.7698,3.7809,3.7861,3.7753,3.7197,3.6785,3.6887,3.6756,3.6672,3.6753,3.6972,3.7135,3.7237,3.7407,3.7533,3.7591,3.7603,3.7382,3.6869,3.6795,3.6144,3.4678,3.4591,3.4148,3.324,3.3137,3.2652,3.1742,3.0777,3.0292,3.0312,3.0219,3.0211,3.0204,3.0135,3.0049,2.998,2.9885,2.9763,2.9654,2.9522,2.9463,2.9463,2.9471,2.9443,2.9443,2.9443,2.9453,2.9491,0.0,0.0,0.0,1.1495,0.0,0.9681,0.9443,0.909,0.8849,0.8931,0.0,0.0,0.0,0.0,1.3694,1.5939,1.7472,1.9135,2.1049,2.1345,2.2118,2.3613,2.4839,2.5755,2.6291,2.7813,2.8785,2.9133,3.0277,3.0969,3.1274,3.1374,3.1277,3.0885,2.808,2.6724,2.6485,2.5579,2.5112,2.4969,2.4985,2.4938,2.4875,2.4579,2.3826,2.2852,2.222,2.1145,1.9929,1.9413,1.9633,2.016,2.0522,2.1885,2.3886,2.6513,2.7807,2.8711,3.0322,3.0786,3.1436,3.3941,3.4851,3.5702,3.7859,3.7947,3.7744,3.8284,3.8282,3.8221,3.8393,3.8072,3.7746,3.7642,3.7516,3.746,3.7585,3.7811,3.7994,3.808,3.8273,3.8432,3.849,3.8495,3.8299,3.7771,3.7679,3.7008,3.5541,3.5457,3.4998,3.4042,3.3383,3.2764,3.2107,3.0887,3.0279,3.0279,3.0199,3.0164,3.0164,3.0128,3.0049,3.0007,2.9918,2.9842,2.9717,2.9608,2.957,2.9569,2.955,2.9511,2.9481,2.9481,2.9481,2.9491,1.4106,1.3308,1.2365,1.1373,1.0543,0.9932,0.9711,0.9389,0.9301,0.9625,0.0,0.0,0.0,0.0,0.0,1.6468,1.6976,1.8007,1.999,2.0636,2.1686,2.3304,2.4611,2.5865,2.7068,2.8083,2.9137,3.0204,3.0159,3.0578,3.1374,3.0421,3.0349,3.097,2.9344,2.8555,2.8381,2.7139,2.6505,2.6301,2.6177,2.5961,2.5656,2.5074,2.4655,2.4144,2.2452,2.1543,2.1023,2.0044,1.9379,1.9075,1.9765,2.1324,2.3345,2.5446,2.6246,2.6836,0.0,0.0,0.0,3.3562,3.421,3.4928,3.8095,3.7525,3.6827,3.8576,3.8251,3.7951,3.8869,3.9045,3.8899,3.8383,3.7781,3.7444,3.7652,3.7844,3.8024,3.8157,3.8346,3.8504,3.8575,3.8588,3.8591,3.8632,3.8583,3.8167,3.7275,3.7147,3.6651,3.5631,3.3927,3.3012,3.2936,3.1172,3.0287,3.0261,3.02,3.0159,3.014,3.0129,3.0091,3.0007,2.9926,2.9859,2.9808,2.9726,2.97,2.9683,2.9626,2.9598,2.9598,2.9607,2.9598,2.9607,1.5561,1.487,1.4126,1.3517,1.2697,1.2043,1.1684,1.1338,1.1115,0.0,0.0,0.0,1.2359,1.3841,1.537,1.6821,1.672,1.7646,2.0289,2.0169,2.0888,2.2946,2.4353,2.5693,2.7005,2.8116,2.9152,3.0132,3.0782,3.1202,3.1344,3.168,3.1936,3.2055,3.1563,3.0756,2.9659,2.7768,2.6927,2.6885,2.6853,2.6556,2.6126,2.5944,2.4971,2.3589,2.2971,2.1759,2.0417,2.0036,1.9976,2.025,2.1416,2.2606,2.3741,2.4738,2.5242,2.5747,2.6969,0.0,0.0,0.0,0.0,0.0,3.4279,3.4723,3.5188,3.6782,3.7081,3.7089,3.7264,3.7944,3.8402,3.8253,3.8677,3.9082,3.925,3.9516,3.9758,3.99,4.0091,4.0229,4.0304,4.0343,4.0152,3.9586,3.9479,3.9064,3.8191,3.744,3.6581,3.564,3.4519,3.3889,3.3768,3.2651,3.2051,3.2012,3.1992,3.1641,3.1042,3.1032,3.0689,3.0072,2.9999,2.9924,2.9855,2.9753,2.9699,2.97,2.9691,2.9682,2.9664,2.9673,2.9673,2.9673,1.6182,1.5589,1.5033,1.4675,1.3609,1.277,1.2598,1.219,1.1892,0.0,0.0,0.0,1.3801,1.4484,1.5406,1.6629,1.6458,1.732,1.9725,1.9813,2.0639,2.2642,2.4081,2.5325,2.6394,2.7826,2.89,2.9562,3.0433,3.0818,3.0768,3.1227,3.1398,3.1341,3.16,3.103,2.9828,2.8874,2.8113,2.7542,2.7341,2.7076,2.677,2.6399,2.5211,2.3687,2.3375,2.21,2.0514,2.0345,2.0259,2.0448,2.1849,2.2656,2.3275,2.4172,2.4721,2.5208,2.59,2.6095,2.6521,2.8381,0.0,0.0,3.2857,3.3227,3.3602,3.576,3.6067,3.6088,3.6444,3.7063,3.7685,3.8134,3.8742,3.9343,3.991,4.0251,4.0627,4.1125,4.1353,4.1641,4.2047,4.2147,4.1834,4.1013,4.0901,4.0166,3.8553,3.756,3.6595,3.5629,3.4751,3.4242,3.4134,3.324,3.2788,3.274,3.271,3.2428,3.1943,3.1905,3.1619,3.1123,3.0714,3.0728,3.0997,3.0545,3.0145,2.9789,2.9789,2.9773,2.9747,2.9699,2.9944,3.0283,0.0,1.6025,1.5597,1.5321,1.4061,1.3101,1.3036,1.2617,1.2334,0.0,1.3275,1.4216,1.5205,1.4917,1.5085,1.6164,1.6258,1.7043,1.8835,1.9562,2.0672,2.2371,2.3721,2.4765,2.5542,2.7351,2.8436,2.8793,2.962,3.0022,3.0014,2.9868,2.9868,2.9992,3.0554,3.034,2.9609,3.0165,2.9576,2.8255,2.7823,2.7628,2.7514,2.672,2.5551,2.4275,2.3809,2.256,2.1086,2.0878,2.0385,2.0123,2.148,2.1947,2.2228,2.3529,2.4279,2.4737,2.5023,2.5141,2.5715,2.7859,2.7749,0.0,3.2325,3.2043,3.1733,3.4652,3.4812,3.4727,3.5786,3.6191,3.6686,3.7766,3.8129,3.8723,3.9928,4.033,4.0853,4.1886,4.2175,4.2633,4.3514,4.3579,4.3222,4.2459,4.2303,4.1198,3.8825,3.7851,3.6891,3.5792,3.4998,3.4506,3.4359,3.3515,3.3104,3.3093,3.3041,3.2955,3.2851,3.2787,3.271,3.2586,3.1803,3.1898,3.2532,3.1749,3.0886,3.0036,3.0045,2.9954,2.9799,2.9848,3.0394,3.11,1.8543,1.7993,1.7366,1.6997,1.6577,1.5894,1.4737,1.4698,1.4659,1.4257,1.4534,1.4722,1.4665,1.4806,1.534,1.6427,1.6295,1.7046,1.9151,1.9343,2.0175,2.2023,2.2829,2.3903,2.5329,2.6728,2.7854,2.8727,2.9631,3.0091,3.008,2.9822,3.0433,3.1684,3.107,3.0986,3.1273,3.0654,2.9807,2.8834,2.8644,2.8461,2.8268,2.7928,2.6714,2.5108,2.4695,2.3396,2.1834,2.1536,2.0986,2.0558,2.1238,2.1309,2.1249,2.1926,2.2378,2.276,2.3121,2.3322,2.3699,2.4902,2.4942,0.0,2.8006,2.8171,2.8437,3.0748,3.1618,3.2269,3.325,3.4092,3.5007,3.6096,3.7009,3.8165,3.9862,4.0276,4.0816,4.1866,4.217,4.2633,4.3524,4.3029,4.2577,4.2418,4.1694,4.1049,4.0513,3.9621,3.8384,3.6787,3.6451,3.5965,3.525,3.5063,3.4939,3.488,3.4932,3.4567,3.3829,3.3813,3.3432,3.2744,3.2584,3.2546,3.258,3.2419,3.176,3.0877,3.0983,3.0488,2.9829,3.0605,3.099,3.12,1.8796,1.8643,1.8377,1.8025,1.7642,1.7071,1.6102,1.5738,1.536,1.4739,1.4547,1.4508,1.4487,1.4852,1.5306,1.5807,1.6323,1.7179,1.8559,1.924,2.0228,2.1691,2.2398,2.3354,2.4612,2.6182,2.7566,2.87,3.0049,3.0918,3.1344,3.1104,3.1205,3.16,3.1454,3.1341,3.1216,3.0702,3.0235,2.9691,2.8572,2.8052,2.7898,2.7415,2.6562,2.5587,2.5468,2.4369,2.2903,2.2591,2.2075,2.1508,2.1343,2.1511,2.173,2.1669,2.1921,2.2318,2.2614,2.3118,2.356,2.3629,2.3887,0.0,0.0,2.6223,2.6783,2.817,2.9439,3.0476,3.1013,3.1595,3.2704,3.4857,3.5434,3.6359,3.8556,4.0158,4.1661,4.3219,4.3508,4.3945,4.4852,4.4581,4.414,4.3689,4.2412,4.1461,4.1027,4.0111,3.9005,3.7693,3.7123,3.6613,3.6157,3.5714,3.5489,3.5449,3.5481,3.5243,3.4807,3.4765,3.4479,3.4021,3.3585,3.3612,3.391,3.3474,3.2959,3.2376,3.156,3.1176,3.1041,3.1123,3.1679,3.2455,1.8879,1.9009,1.9137,1.8835,1.8341,1.7801,1.7243,1.6652,1.5898,1.4929,1.4484,1.4289,1.44,1.4761,1.5019,1.5073,1.6095,1.7014,1.7631,1.8951,2.0152,2.1214,2.2163,2.3047,2.3884,2.5913,2.7521,2.8643,3.0437,3.1748,3.2607,3.2406,3.2034,3.1516,3.1878,3.1738,3.12,3.0977,3.0767,3.0456,2.8537,2.7755,2.7682,2.7068,2.656,2.6189,2.6134,2.518,2.3896,2.3684,2.3079,2.2319,2.1697,2.1806,2.2063,2.1648,2.1693,2.1977,2.2345,2.294,2.3355,2.3059,2.3232,2.361,0.0,0.0,0.0,2.6038,2.7351,2.8481,2.8757,2.9225,3.0469,3.3221,3.3752,3.4643,3.7042,3.9506,4.1795,4.3777,4.4374,4.4997,4.5955,4.6053,4.5736,4.4965,4.3431,4.2243,4.1539,4.061,3.9626,3.857,3.7641,3.7125,3.707,3.6048,3.5592,3.5779,3.5611,3.5515,3.5515,3.5455,3.54,3.5307,3.4587,3.468,3.5251,3.4553,3.4176,3.3914,3.2326,3.197,3.2323,3.1794,3.2493,3.3705,2.0303,2.0074,1.9942,1.9845,1.9574,1.9096,1.8277,1.8149,1.7552,1.5789,1.5287,1.4818,1.4131,1.4168,1.4451,1.5048,1.5301,1.5814,1.6776,1.7939,1.9112,2.0297,2.2021,2.3138,2.3554,2.6207,2.7864,2.8426,3.0362,3.1748,3.2591,3.2448,3.2721,3.3261,3.2515,3.2512,3.3033,3.2198,3.1397,3.0584,2.9511,2.9041,2.8975,2.8839,2.8275,2.7446,2.6518,2.5434,2.4421,2.4383,2.3389,2.2151,2.225,2.1483,2.0616,2.0838,2.0526,2.0304,2.1272,2.111,2.1028,2.2607,2.1867,2.1115,2.2522,0.0,2.3066,2.3732,0.0,2.5379,2.6248,0.0,0.0,3.0148,3.2295,3.4452,3.6353,3.7673,3.911,4.0956,4.2645,4.4052,4.5049,4.5156,4.5082,4.4902,4.4008,4.3413,4.3311,4.2417,4.1159,3.9494,3.8537,3.8046,3.8028,3.641,3.5985,3.6734,3.5956,3.5589,3.5583,3.5572,3.5541,3.547,3.5374,3.5346,3.5391,3.522,3.5119,3.4928,3.3911,3.3021,3.2392,3.3128,3.3524,3.3809,2.1023,2.0941,2.0939,2.0826,2.0715,2.0401,1.9634,1.8596,1.7406,1.6112,1.5394,1.4769,1.4075,1.4202,1.4326,1.43,1.4943,1.5608,1.6134,1.7787,1.9172,2.0154,2.1448,2.2745,2.4055,2.5689,2.7345,2.8979,3.098,3.2447,3.3417,3.3838,3.3957,3.3798,3.3295,3.326,3.3516,3.258,3.2238,3.2198,3.0786,3.0149,2.986,2.8339,2.7509,2.7216,2.7665,2.6462,2.473,2.5079,2.423,2.2844,2.1747,2.1713,2.1844,2.0891,2.0912,2.1368,2.189,2.1798,2.1637,2.2033,2.1565,2.1043,2.1267,2.1308,2.1378,2.1682,0.0,0.0,0.0,0.0,0.0,0.0,2.9569,3.1123,3.3294,3.5347,3.7832,4.1159,4.2306,4.3373,4.4867,4.5429,4.5683,4.5655,4.4809,4.4308,4.4305,4.2937,4.1806,4.1069,3.9691,3.8934,3.8904,3.7201,3.6543,3.6895,3.6014,3.5608,3.5601,3.559,3.556,3.5509,3.5502,3.5448,3.535,3.5316,3.5261,3.5163,3.478,3.4333,3.3902,3.3797,3.4044,3.4499,2.2187,2.199,2.1855,2.1697,2.1638,2.136,2.0646,1.8945,1.7486,1.6677,1.5722,1.4845,1.4209,1.4294,1.4277,1.3912,1.4613,1.5235,1.5611,1.7183,1.8635,1.9876,2.0867,2.2321,2.4295,2.5474,2.7115,2.9213,3.1299,3.2893,3.396,3.4835,3.4909,3.4359,3.4206,3.412,3.4039,3.3317,3.3082,3.309,3.1768,3.072,2.9791,2.8128,2.7325,2.7237,2.8639,2.7339,2.5059,2.575,2.5014,2.3513,2.1856,2.2053,2.2627,2.1316,2.1406,2.2048,2.268,2.2682,2.2386,2.1919,2.1451,2.0988,2.0487,2.0016,1.9757,2.0036,2.0503,0.0,0.0,0.0,2.3828,2.6129,0.0,2.8427,3.0161,3.2822,3.6129,4.0284,4.1684,4.2929,4.4484,4.5389,4.586,4.5876,4.5449,4.5075,4.4807,4.3325,4.2369,4.211,4.0424,3.9602,3.9779,3.7887,3.7055,3.7272,3.6161,3.5633,3.5637,3.5633,3.5584,3.5522,3.5528,3.5455,3.5357,3.5324,3.5266,3.5234,3.5206,3.5172,3.5069,3.4409,3.4543,3.5056,2.4107,2.3339,2.2602,2.239,2.2241,2.186,2.1003,1.9632,1.8445,1.7842,1.6486,1.5311,1.456,1.431,1.4213,1.427,1.4121,1.4369,1.5157,1.56,1.6834,1.912,2.0437,2.1979,2.3878,2.5983,2.7603,2.8723,3.1053,3.2769,3.3832,3.4835,3.5289,3.527,3.5243,3.5173,3.503,3.4869,3.3903,3.2416,3.2153,3.059,2.8437,2.9078,2.8755,2.8089,2.9124,2.7723,2.5508,2.6386,2.5526,2.395,2.3171,2.2434,2.1869,2.2014,2.1517,2.1356,2.326,2.3138,2.2513,2.2548,2.1345,2.0177,2.0286,1.9057,1.8096,1.8897,1.9027,1.9162,1.9785,2.1864,2.3542,2.3707,2.5918,0.0,0.0,3.016,3.3306,3.6755,4.0253,4.2754,4.3645,4.4531,4.5049,4.5037,4.5733,4.5751,4.4852,4.3952,4.3043,4.2131,4.0477,3.9971,4.0756,3.8252,3.7424,3.8225,3.6513,3.5704,3.5704,3.5704,3.5651,3.5598,3.5591,3.5554,3.5474,3.5357,3.5308,3.5293,3.5231,3.5231,3.5269,3.5126,3.5126,3.5174,2.4886,2.4755,2.4408,2.3702,2.3281,2.2699,2.1722,2.0459,1.926,1.8254,1.7287,1.6105,1.4647,1.4594,1.4515,1.4131,1.4642,1.5219,1.5749,1.653,1.7671,1.9268,2.0043,2.1322,2.3185,2.4908,2.6367,2.7585,3.0556,3.2307,3.2911,3.4588,3.5386,3.543,3.5438,3.5416,3.5361,3.5273,3.4517,3.3276,3.1976,3.0602,2.9312,2.8895,2.8175,2.7513,2.8437,2.7391,2.582,2.7213,2.6172,2.4248,2.3907,2.3701,2.3376,2.2282,2.2286,2.267,2.283,2.2236,2.1611,2.1706,2.0858,1.9996,2.0075,1.9242,1.849,1.8573,1.8478,1.8603,1.9324,2.0412,2.1662,2.3093,2.4948,2.6507,0.0,3.0353,3.3144,3.5056,3.8436,4.0757,4.1094,4.3476,4.4989,4.4938,4.5196,4.543,4.5647,4.3729,4.2731,4.2945,4.1291,4.0519,4.0794,3.8855,3.7998,3.8202,3.6466,3.5626,3.5628,3.5628,3.5591,3.554,3.5494,3.5427,3.5365,3.5273,3.5262,3.53,3.5226,3.5277,3.5346,3.5215,3.5539,3.6053,2.5408,2.5625,2.5509,2.4652,2.3818,2.3015,2.2216,2.0825,1.9563,1.8742,1.7761,1.6617,1.5293,1.5348,1.5333,1.4891,1.5247,1.5779,1.6473,1.6732,1.7696,1.9591,1.981,2.0827,2.2847,2.4092,2.5377,2.678,2.9835,3.1721,3.2542,3.4458,3.5442,3.554,3.5532,3.5547,3.5534,3.5435,3.4851,3.38,3.1971,3.0755,2.9908,2.896,2.8212,2.7754,2.8616,2.7794,2.6507,2.7874,2.6838,2.4913,2.4474,2.4211,2.3857,2.2765,2.2933,2.3411,2.2986,2.2458,2.1897,2.1356,2.0549,1.9893,1.986,1.9175,1.8493,1.8296,1.8248,1.8404,1.8932,1.9713,2.0751,2.2197,2.3833,2.5619,0.0,2.9667,3.1604,3.3172,3.6531,3.8729,3.8807,4.1986,4.4022,4.399,4.4812,4.5425,4.5628,4.3739,4.2766,4.2976,4.1549,4.079,4.0794,3.9135,3.8277,3.8202,3.6435,3.5595,3.5596,3.5604,3.5566,3.5501,3.5441,3.5417,3.5365,3.5273,3.5262,3.53,3.5258,3.5453,3.5776,3.5712,3.6072,3.6565,2.5728,2.5899,2.5916,2.5192,2.3903,2.2854,2.2525,2.0853,1.9511,1.9276,1.799,1.6931,1.64,1.6542,1.6613,1.6476,1.5881,1.6029,1.727,1.6269,1.698,2.0015,1.9771,2.0559,2.2717,2.3631,2.483,2.634,2.904,3.1136,3.2664,3.4519,3.5437,3.5524,3.5637,3.567,3.5664,3.547,3.4872,3.3896,3.219,3.0994,3.0133,2.9353,2.8914,2.8801,2.9575,2.8836,2.7589,2.8339,2.7459,2.5853,2.4959,2.408,2.339,2.3409,2.3422,2.3474,2.3549,2.3544,2.3139,2.1444,2.0467,1.9849,1.9642,1.8814,1.8068,1.7997,1.8203,1.843,1.851,1.977,2.0845,2.1039,2.2711,2.5013,2.7979,2.8152,2.8844,3.1108,3.4413,3.6593,3.6847,4.0028,4.2141,4.2274,4.4481,4.5544,4.4906,4.3955,4.3083,4.229,4.1308,4.0776,4.0742,3.9116,3.8263,3.8205,3.6447,3.5601,3.5601,3.561,3.556,3.5502,3.5494,3.5493,3.5486,3.5357,3.5308,3.5308,3.53,3.5828,3.6583,3.6687,3.6734,3.6776,2.6275,2.6317,2.6326,2.6149,2.4947,2.3882,2.3509,2.2115,2.0848,1.9977,1.9143,1.8255,1.7224,1.7479,1.7606,1.7322,1.7218,1.7497,1.8208,1.7555,1.7872,1.9517,2.0017,2.047,2.0965,2.3739,2.528,2.5424,2.9397,3.1366,3.151,3.486,3.5759,3.4622,3.6024,3.6633,3.6589,3.5867,3.4664,3.3197,3.2097,3.1168,3.0393,3.0139,2.9998,2.9876,2.9344,2.8888,2.8538,2.8698,2.7623,2.6163,2.5885,2.5227,2.4432,2.3807,2.3202,2.262,2.2001,2.148,2.0941,2.0298,2.0009,1.9858,1.9656,1.8742,1.7899,1.7729,1.7409,1.7486,1.8607,1.9769,2.0908,2.1878,2.3766,2.5799,2.7823,2.8082,2.8448,2.9447,3.0394,3.2031,3.4804,3.7479,3.99,4.1989,4.2053,4.3116,4.5638,4.3714,4.2724,4.3156,4.1689,4.0551,3.991,3.8781,3.7895,3.7253,3.613,3.5578,3.5534,3.5528,3.5522,3.5494,3.546,3.5405,3.5357,3.5304,3.5304,3.53,3.525,3.6165,3.7616,3.8292,3.8124,3.7686,2.7122,2.6971,2.6876,2.6703,2.5966,2.5093,2.4161,2.2835,2.1625,2.0702,1.9916,1.9132,1.8409,1.857,1.8703,1.8614,1.8244,1.8277,1.8919,1.8129,1.8186,1.9382,2.0231,2.0573,2.0399,2.3271,2.4863,2.5055,2.8925,3.111,3.1726,3.4741,3.5648,3.4822,3.5938,3.6644,3.6973,3.6464,3.5461,3.4105,3.2851,3.2075,0.0,3.1256,3.0834,3.0463,3.0285,2.9925,2.9494,2.9066,2.8058,2.6898,2.6498,2.5804,2.504,2.4503,2.379,2.2972,2.2089,2.1276,2.0551,2.0012,1.9928,1.9877,1.9621,1.9199,1.8713,1.8189,1.7897,1.7978,1.8719,1.9866,2.1294,2.3022,2.4326,2.5614,2.7085,2.7668,2.8151,2.8753,2.9195,3.0499,3.3101,3.5309,3.7943,4.1246,4.1625,4.2805,4.5356,4.3763,4.2825,4.2932,4.1602,4.0659,4.0134,3.9248,3.8363,3.746,3.6578,3.5938,3.5509,3.5509,3.5476,3.5453,3.5398,3.5541,3.5845,3.5461,3.5511,3.5814,3.5788,3.6627,3.7964,3.8824,3.8873,3.8523,2.8224,2.7948,2.7608,2.7251,2.7,2.633,2.4764,2.3379,2.2286,2.1577,2.0592,1.9902,1.9749,1.9825,1.994,2.0105,1.9142,1.881,1.9491,1.8527,1.8446,1.9574,2.0585,2.1035,2.0827,2.2971,2.4489,2.5376,2.8471,3.0813,3.2429,3.4472,3.5372,3.529,3.567,3.6227,3.6852,3.7038,3.6546,3.5511,3.3996,3.3326,3.3138,3.2312,3.1563,3.101,3.1546,3.1183,3.0284,2.9294,2.8461,2.7656,2.6732,2.5919,2.5308,2.5248,2.4643,2.3818,2.2959,2.2038,2.1139,2.0231,2.0009,1.993,1.9618,1.9695,1.9639,1.8896,1.8891,1.8967,1.8856,2.0031,2.1821,2.4235,2.4632,2.5013,2.6066,2.697,2.7733,2.8336,2.9122,0.0,3.1557,3.3515,3.6293,4.0181,4.1861,4.3285,4.4621,4.3933,4.3141,4.2384,4.1402,4.0814,4.0632,3.9934,3.9055,3.8017,3.7251,3.6393,3.5515,3.5502,3.5463,3.5412,3.533,3.5737,3.6381,3.5729,3.5924,3.6662,3.6651,3.7194,3.8059,3.8823,3.9158,3.9185,3.0007,2.9417,2.888,2.8794,2.8168,2.7234,2.5905,2.4554,2.3547,2.3076,2.1986,2.1213,2.1088,2.1188,2.1275,2.1299,2.0375,1.9919,2.0275,1.989,1.9834,2.0224,2.1621,2.2443,2.2566,2.4831,2.6442,2.7306,3.0184,3.1653,3.1823,3.4746,3.5398,3.4167,3.5855,3.6371,3.6058,3.6849,3.6252,3.4789,3.4489,3.397,3.3275,3.2348,3.2348,3.2667,3.1375,3.0766,3.0312,2.8728,2.8086,2.7696,2.6114,2.5513,2.537,2.536,2.4767,2.3891,2.3019,2.2177,2.1319,2.0327,2.0035,1.9955,1.9797,1.9074,1.857,1.8958,1.8752,1.8631,1.8973,2.0215,2.2061,2.48,2.5077,2.4997,2.5218,2.5959,2.6563,2.6767,2.657,2.7394,2.9941,3.2203,3.5116,3.9011,4.0123,4.1825,4.455,4.3887,4.3343,4.3188,4.1703,4.0542,3.9823,3.9619,3.87,3.7127,3.6909,3.637,3.5585,3.5521,3.5488,3.5486,3.5412,3.5438,3.5568,3.6085,3.6769,3.75,3.7492,3.8027,3.8819,3.9016,3.9082,3.9148,3.148,3.0916,3.0366,3.0029,2.9498,2.8636,2.7248,2.613,2.4976,2.3673,2.2804,2.2282,2.2323,2.2235,2.2131,2.2032,2.1319,2.0959,2.1158,2.0867,2.0831,2.1156,2.2813,2.36,2.3322,2.5886,2.7483,2.8025,3.048,3.1915,3.2368,3.4446,3.504,3.4452,3.6119,3.6479,3.5907,3.6829,3.6465,3.5288,3.4833,3.4417,3.4018,3.3562,3.3105,3.2625,3.2231,3.1507,3.0441,2.8643,2.8043,2.776,2.6036,2.5476,2.5445,2.5456,2.483,2.4057,2.3595,2.2538,2.1435,2.0945,2.0437,2.0026,1.9976,1.9399,1.895,1.9165,1.9243,1.9661,2.0906,2.185,2.3083,2.5069,2.5516,2.5708,2.5998,2.6306,2.6739,2.7356,2.684,2.752,3.031,3.2113,3.4489,3.7861,3.888,4.0665,4.377,4.3598,4.3211,4.2796,4.1995,4.1155,4.0272,3.9785,3.89,3.7569,3.7123,3.6426,3.556,3.5502,3.5455,3.5395,3.5354,3.5576,3.5979,3.6791,3.7356,3.7693,3.7693,3.8219,3.8956,3.8983,3.9232,3.9528,3.264,3.2168,3.1641,3.0972,3.0528,2.9824,2.8536,2.7636,2.6372,2.4301,2.3561,2.326,2.337,2.3187,2.2981,2.282,2.232,2.2067,2.2193,2.2086,2.2192,2.2609,2.437,2.5155,2.476,2.7084,2.8507,2.8966,3.0757,3.2177,3.3197,3.4106,3.4694,3.5047,3.6331,3.6545,3.5933,3.6633,3.6579,3.5931,3.5251,3.4981,3.4966,3.4771,3.3962,3.297,3.328,3.2522,3.1089,2.9271,2.855,2.808,2.6394,2.5835,2.5748,2.5579,2.5031,2.4416,2.4184,2.3126,2.2029,2.1833,2.124,2.0675,2.0675,2.0454,2.0208,2.0004,2.0244,2.1141,2.3276,2.3719,2.4283,2.5806,2.6353,2.6708,2.712,2.7058,2.7266,2.8115,2.7752,2.8442,3.0938,3.22,3.4052,3.6942,3.8245,4.0148,4.2995,4.3124,4.2892,4.2445,4.2102,4.1582,4.0893,4.0039,3.9136,3.8216,3.7362,3.6456,3.5527,3.5509,3.5422,3.53,3.5492,3.6015,3.6806,3.7436,3.7799,3.7971,3.8162,3.8603,3.9099,3.8937,3.9147,3.9363,3.3395,3.2863,3.2342,3.1561,3.0901,3.0232,2.9543,2.8718,2.7492,2.5649,2.4745,2.4199,2.4042,2.4099,2.4147,2.4127,2.3639,2.3383,2.3512,2.4235,2.4757,2.4967,2.6545,2.7761,2.8474,2.9167,3.0166,3.1462,3.2137,3.2898,3.3732,3.4148,3.4663,3.5312,3.6472,3.6573,3.5908,3.5994,3.6006,3.5988,3.5919,3.5886,3.5798,3.5006,3.5087,3.5445,3.3944,3.3303,3.2881,3.1135,2.9988,2.8984,2.7312,2.6722,2.6533,2.58,2.5499,2.5205,2.4418,2.4064,2.3763,2.2964,2.2667,2.2557,2.2549,2.2487,2.234,2.2151,2.1901,2.2584,2.5395,2.5034,2.5175,2.7785,2.7942,2.7771,2.7805,2.7595,2.7462,2.7576,2.8001,2.8954,3.0685,3.1774,3.3587,3.6528,3.8682,4.0797,4.2909,4.2451,4.2467,4.317,4.1784,4.0942,4.0818,4.0003,3.9164,3.8281,3.7286,3.6395,3.5585,3.554,3.5427,3.5339,3.6132,3.6897,3.7597,3.7677,3.8136,3.887,3.9652,3.9937,3.9808,3.9089,3.8316,3.7654,3.5032,3.4413,3.3795,3.327,3.236,3.136,3.0347,2.9529,2.8566,2.7324,2.5856,2.4973,2.5059,2.504,2.4923,2.4681,2.4578,2.456,2.4635,2.5553,2.6291,2.6796,2.8417,2.9494,2.9895,3.0704,3.155,3.2396,3.3391,3.417,3.4777,3.5105,3.559,3.6145,3.6193,3.6388,3.6659,3.6156,3.5973,3.6055,3.6562,3.6464,3.6015,3.6189,3.5504,3.4426,3.4243,3.3179,3.1801,3.165,3.0643,2.9255,2.8059,2.7301,2.6808,2.646,2.5987,2.5479,2.5095,2.4632,2.417,2.3773,2.3272,2.2865,2.2904,2.2817,2.2671,2.2538,2.3088,2.424,2.6391,2.6673,2.6851,2.7745,2.8849,2.9495,2.9256,2.943,2.9761,3.0211,2.9833,3.0386,3.2517,3.2622,3.3697,3.6495,3.7667,3.9399,4.2012,4.1936,4.2049,4.255,4.1916,4.133,4.0867,3.9461,3.8604,3.8287,3.6795,3.5893,3.5547,3.5515,3.5407,3.5258,3.5602,3.6175,3.69,3.746,3.786,3.8204,3.9118,3.9071,3.8468,3.8175,3.8126,3.8119,3.5718,3.5203,3.4592,3.3945,3.3153,3.2313,3.1446,3.0643,2.9842,2.8991,2.7454,2.6343,2.6052,2.5965,2.5839,2.5615,2.5714,2.5963,2.6312,2.7226,2.8078,2.8834,3.0351,3.1217,3.1332,3.211,3.2733,3.3161,3.4339,3.5149,3.5607,3.6481,3.6841,3.6737,3.6822,3.7004,3.7153,3.66,3.6386,3.6442,3.7048,3.6932,3.6445,3.707,3.5995,3.4252,3.4855,3.3736,3.2008,3.2363,3.1486,3.008,2.8948,2.7975,2.7273,2.7272,2.6485,2.5647,2.5857,2.532,2.4668,2.4613,2.4341,2.4086,2.4141,2.4022,2.3889,2.3827,2.4801,2.6098,2.7508,2.8085,2.84,2.8593,2.9943,3.0928,3.0818,3.1165,3.1692,3.2458,3.1857,3.217,3.4151,3.3755,3.441,3.6898,3.7103,3.8304,4.0997,4.1274,4.1563,4.2028,4.1776,4.1387,4.0846,3.9107,3.825,3.8246,3.6458,3.5564,3.5509,3.5457,3.5494,3.557,3.5305,3.5647,3.6406,3.7051,3.7279,3.7319,3.8203,3.8261,3.7792,3.7357,3.7801,3.8485,3.484,3.4728,3.4358,3.2953,3.2813,3.2905,3.2957,3.223,3.138,3.0579,2.9686,2.8546,2.697,2.6902,2.7031,2.7153,2.7236,2.7707,2.8686,2.9509,3.0409,3.1418,3.2437,3.3061,3.3259,3.3465,3.3716,3.3981,3.5002,3.5668,3.6036,3.8226,3.8371,3.6871,3.8802,3.8746,3.7203,3.7265,3.7283,3.7292,3.73,3.7281,3.7299,3.7304,3.6758,3.5976,3.5973,3.5402,3.4518,3.3672,3.2791,3.1774,3.0032,2.8896,2.8179,2.8173,2.6955,2.5785,2.6646,2.6247,2.5587,2.5578,2.6219,2.685,2.6842,2.6797,2.6737,2.6653,2.7346,2.8195,2.8937,2.9144,2.9631,3.1033,3.1429,3.1805,3.2397,3.2422,3.2676,3.3497,3.3803,3.4269,3.5111,3.5073,3.5799,3.7832,3.749,3.802,3.9924,4.0321,4.0935,4.1859,4.119,4.0779,4.07,3.9106,3.8272,3.8172,3.6425,3.5562,3.5502,3.5367,3.5734,3.6441,3.557,3.5679,3.6491,3.6429,3.6385,3.6396,3.7205,3.7991,3.8481,3.6832,3.7196,3.8271,3.5173,3.4638,3.4236,3.3962,3.3499,3.3232,3.3368,3.2754,3.2147,3.1892,3.1182,3.0545,3.0114,2.8631,2.7762,2.7939,2.797,2.8405,2.9422,3.0328,3.126,3.2215,3.3176,3.3792,3.4043,3.4151,3.4618,3.5432,3.6492,3.7477,3.8407,3.9145,3.9276,3.8848,3.8874,3.8938,3.9004,3.8432,3.819,3.8223,3.8773,3.8655,3.8128,3.8178,3.7283,3.5995,3.5995,3.5055,3.3764,3.3487,3.2825,3.2007,3.1457,3.0277,2.9093,2.9099,2.827,2.7438,2.7709,2.7571,2.7372,2.7439,2.7614,2.7807,2.7843,2.7776,2.7845,2.8356,2.8693,2.9153,3.0021,3.0163,3.0296,3.0754,3.1375,3.2066,3.28,3.3313,3.4103,3.5354,3.4864,3.4944,3.6304,3.5777,3.5889,3.7229,3.7921,3.9118,4.0998,4.0673,4.0908,4.1933,4.1125,4.041,3.9892,3.8781,3.7948,3.7367,3.6162,3.5565,3.5501,3.542,3.5488,3.5675,3.5392,3.537,3.5598,3.6207,3.606,3.5504,3.6406,3.6492,3.6055,3.5553,3.6396,3.7585,3.5177,3.4675,3.441,3.4251,3.3907,3.3675,3.3762,3.3445,3.3067,3.2754,3.236,3.2004,3.182,3.0446,2.957,2.9643,2.9338,2.9527,3.0491,3.1421,3.2225,3.2845,3.3794,3.4408,3.4665,3.4746,3.5303,3.6337,3.7735,3.8806,3.9587,3.9984,4.0036,3.9786,3.9567,3.9629,3.9859,3.9322,3.9061,3.9094,3.9603,3.9288,3.8502,3.8555,3.7507,3.6007,3.5995,3.5293,3.4336,3.4003,3.3301,3.2597,3.2597,3.1406,3.0155,3.0779,2.9643,2.8332,2.9001,2.8709,2.8222,2.828,2.8513,2.8824,2.9151,2.9435,2.9733,3.0258,3.0585,3.087,3.1142,3.1411,3.1395,3.0746,3.1918,3.2972,3.3121,3.4333,3.5649,3.6799,3.652,3.657,3.748,3.7009,3.6919,3.7547,3.8394,3.955,4.1146,4.0761,4.0781,4.1485,4.0649,3.9966,3.9503,3.8349,3.7473,3.6955,3.6012,3.5547,3.55,3.542,3.535,3.5308,3.5626,3.5529,3.5242,3.6075,3.5898,3.5132,3.5635,3.5666,3.5391,3.5088,3.5969,3.7196,3.4969,3.486,3.478,3.4022,3.4073,3.4185,3.4136,3.4233,3.4037,3.3302,3.3276,3.3064,3.238,3.2259,3.221,3.2131,3.1209,3.0998,3.1856,3.2737,3.3302,3.3412,3.432,3.4953,3.5206,3.5342,3.5894,3.692,3.8784,3.9734,3.9822,4.0695,4.0675,3.9939,4.0742,4.0678,3.9986,3.9986,3.9959,3.9887,3.9816,3.93,3.8582,3.8456,3.7482,3.6157,3.6038,3.6043,3.5947,3.5016,3.4155,3.3485,3.3489,3.2374,3.1378,3.2948,3.1054,2.8828,3.0448,2.9702,2.8468,2.8475,2.9081,2.9882,3.0623,3.1464,3.2109,3.209,3.2733,3.304,3.2221,3.2734,3.2766,3.1147,3.2929,3.4255,3.3499,3.5376,3.7094,3.7831,3.8454,3.8755,3.8567,3.8597,3.8638,3.8648,3.8927,3.9545,4.057,4.0615,4.061,4.0617,3.9905,3.945,3.9329,3.7787,3.6943,3.6812,3.5932,3.5489,3.55,3.542,3.5403,3.5442,3.612,3.6028,3.5438,3.5992,3.5832,3.5164,3.4992,3.5439,3.6093,3.523,3.5881,3.6977,3.5944,3.538,3.5054,3.4953,3.4569,3.4281,3.4316,3.445,3.4483,3.4349,3.4418,3.4472,3.4404,3.3796,3.3679,3.4433,3.2882,3.227,3.3185,3.3505,3.3957,3.4636,3.4996,3.5556,3.6388,3.6483,3.7322,3.8999,4.0173,4.0744,4.077,4.0991,4.0996,4.0794,4.1007,4.0982,4.0818,4.0822,4.0803,4.0735,4.0063,3.9683,3.934,3.8007,3.7673,3.7745,3.6458,3.6428,3.6766,3.5229,3.4564,3.4382,3.4397,3.3653,3.2892,3.3286,3.2347,3.1266,3.1684,3.1482,3.1012,3.0362,3.0356,3.0579,3.0758,3.1476,3.2094,3.2032,3.2662,3.317,3.2956,3.3035,3.3022,3.2672,3.3165,3.398,3.5033,3.5736,3.6852,3.8788,3.8548,3.8416,3.8901,3.8969,3.9001,3.905,3.9786,4.0398,4.0809,4.0835,4.0538,3.9882,3.9679,3.8937,3.7593,3.7254,3.6711,3.5979,3.5701,3.5554,3.55,3.542,3.5751,3.6339,3.5814,3.5856,3.6259,3.5747,3.5367,3.5129,3.5075,3.5134,3.5202,3.4983,3.554,3.6228,3.6434,3.5708,3.5275,3.5417,3.4857,3.442,3.4561,3.4666,3.4749,3.483,3.4936,3.5038,3.517,3.4794,3.4749,3.534,3.3933,3.3263,3.3851,3.4286,3.4756,3.5259,3.5785,3.6526,3.7475,3.7549,3.8293,3.9743,4.0651,4.1092,4.1094,4.1091,4.1103,4.1108,4.1103,4.1099,4.1094,4.11,4.1103,4.1056,4.0586,3.9913,3.9102,3.8142,3.7841,3.7744,3.6462,3.6545,3.7053,3.5741,3.5038,3.4779,3.5167,3.4422,3.356,3.4312,3.3641,3.2736,3.3139,3.2947,3.2447,3.1575,3.1363,3.1493,3.1859,3.2629,3.3338,3.367,3.4085,3.4272,3.3875,3.4097,3.4093,3.3365,3.4272,3.526,3.5776,3.691,3.8144,3.9384,3.9406,3.9472,3.985,3.9875,3.9895,3.992,4.0438,4.0805,4.0932,4.0968,4.0571,3.9678,3.9259,3.8419,3.7068,3.6688,3.6235,3.5708,3.5632,3.5552,3.5489,3.5456,3.5909,3.668,3.6102,3.612,3.6517,3.5987,3.5507,3.5084,3.502,3.4955,3.4898,3.4839,3.5082,3.5373,3.6999,3.6197,3.5646,3.5781,3.509,3.4572,3.4759,3.4877,3.4936,3.502,3.511,3.5196,3.5324,3.5395,3.5451,3.5509,3.467,3.4203,3.4318,3.502,3.5527,3.5726,3.6556,3.7499,3.8502,3.8711,3.9197,3.9994,4.0741,4.1107,4.1105,4.1104,4.109,4.1085,4.1074,4.1086,4.1086,4.1106,4.1089,4.1069,4.0944,4.0001,3.8675,3.8539,3.8115,3.7445,3.6514,3.6706,3.7258,3.6319,3.5506,3.5012,3.5759,3.4975,3.4066,3.5485,3.4851,3.3835,3.4428,3.3968,3.3119,3.238,3.2221,3.2457,3.3148,3.3968,3.4763,3.5461,3.5689,3.5538,3.4807,3.5284,3.5355,3.4079,3.5732,3.6993,3.6387,3.8203,3.9624,3.9717,4.0318,4.0762,4.0815,4.083,4.083,4.0834,4.0874,4.0937,4.101,4.1075,4.0622,3.9562,3.8812,3.793,3.6933,3.6176,3.5778,3.5713,3.5775,3.5709,3.5522,3.5785,3.6201,3.6692,3.6565,3.652,3.6472,3.6234,3.5703,3.5076,3.5078,3.5001,3.4888,3.486,3.4789,3.4666,3.8641,3.7514,3.6615,3.675,3.5559,3.4636,3.4772,3.4898,3.5029,3.516,3.5273,3.5386,3.5464,3.5534,3.5565,3.5585,3.5433,3.5344,3.5375,3.5546,3.6004,3.6821,3.7001,3.7864,3.9521,4.0306,4.0757,4.0898,4.1032,4.1103,4.1093,4.1109,4.1067,4.1022,4.1019,4.1013,4.102,4.1071,4.1078,4.0961,4.0282,3.9805,3.9439,3.8705,3.8792,3.9119,3.7579,3.7575,3.8054,3.6525,3.5908,3.5808,3.5897,3.5739,3.5556,3.5822,3.5707,3.536,3.4763,3.3955,3.3268,3.3132,3.3057,3.3075,3.3264,3.3887,3.4471,3.4663,3.5195,3.559,3.546,3.5592,3.5877,3.6343,3.6857,3.7407,3.8008,3.8453,3.8967,3.9708,3.9881,4.0232,4.0899,4.097,4.0978,4.0978,4.0972,4.1009,4.1088,4.1085,4.0379,3.8812,3.8573,3.7712,3.6098,3.5947,3.5841,3.5795,3.6464,3.6369,3.5628,3.7057,3.7336,3.6699,3.6615,3.6553,3.6432,3.5685,3.5208,3.5003,3.5664,3.5462,3.4874,3.5353,3.515,3.4602,3.933,3.8377,3.7467,3.7212,3.6187,3.532,3.5002,3.5009,3.5115,3.5289,3.5357,3.5442,3.5532,3.5575,3.561,3.5649,3.612,3.6411,3.6416,3.6435,3.7066,3.8442,3.8543,3.9173,4.0472,4.0897,4.1092,4.1102,4.1064,4.1044,4.1052,4.1042,4.1039,4.1002,4.1002,4.1006,4.1009,4.1036,4.1049,4.1025,4.0607,4.0169,3.9715,3.9276,3.9349,3.9536,3.8282,3.8403,3.8964,3.7714,3.6991,3.6648,3.6601,3.6289,3.5894,3.5905,3.5878,3.576,3.5352,3.4602,3.3954,3.3942,3.3906,3.3847,3.3886,3.4492,3.5062,3.5092,3.5352,3.5623,3.5684,3.6124,3.6604,3.7042,3.7946,3.8576,3.8506,3.8904,3.9355,3.9759,3.9796,4.0127,4.0966,4.1041,4.1059,4.1043,4.1059,4.1062,4.109,4.1104,4.0319,3.8602,3.7615,3.6731,3.597,3.5917,3.5862,3.5815,3.6627,3.6512,3.562,3.6408,3.6708,3.6592,3.5626,3.5646,3.6319,3.5417,3.5221,3.5491,3.5334,3.5601,3.5953,3.521,3.5056,3.5109,3.9575,3.8881,3.8054,3.7416,3.6656,3.5884,3.5204,3.5141,3.5215,3.5393,3.5441,3.5483,3.5599,3.5621,3.5731,3.5989,3.6669,3.7261,3.7673,3.7716,3.833,3.9669,3.996,4.0427,4.1093,4.109,4.1098,4.1103,4.1039,4.099,4.099,4.0984,4.0984,4.1007,4.0984,4.0972,4.0988,4.0995,4.1029,4.1042,4.1016,4.0616,4.0038,3.9983,3.9972,3.9848,3.8992,3.8988,3.9278,3.8607,3.7838,3.7176,3.7151,3.6703,3.6135,3.594,3.583,3.5783,3.5795,3.5292,3.4786,3.4781,3.4739,3.4689,3.4687,3.5143,3.5589,3.5601,3.5764,3.5938,3.6062,3.6781,3.7452,3.7718,3.8723,3.9299,3.8842,3.9171,3.9553,3.9775,3.9796,4.0128,4.0988,4.1071,4.1073,4.1092,4.1094,4.1094,4.1093,4.0917,4.0017,3.8277,3.6724,3.5942,3.5992,3.6133,3.6077,3.5849,3.7038,3.69,3.5612,3.6208,3.6297,3.5933,3.4986,3.5113,3.5932,3.5211,3.5436,3.6198,3.545,3.5837,3.6628,3.5328,3.508,3.5254,3.9587,3.8987,3.8225,3.7438,3.6687,3.5942,3.5212,3.5209,3.5339,3.5463,3.5547,3.5614,3.5689,3.5697,3.6042,3.6913,3.7005,3.7715,3.9409,3.9562,3.9664,3.9789,4.0577,4.1035,4.1108,4.1099,4.1101,4.1096,4.1028,4.099,4.101,4.0937,4.0945,4.1006,4.0945,4.0912,4.0917,4.096,4.0963,4.0927,4.0974,4.0893,4.0731,4.0791,4.0766,4.0604,3.9796,3.9078,3.847,3.835,3.7776,3.7094,3.7031,3.7007,3.6841,3.6036,3.5767,3.5722,3.5786,3.5706,3.5607,3.5601,3.5554,3.551,3.551,3.5501,3.5515,3.5595,3.6242,3.6831,3.6903,3.7613,3.8473,3.9295,3.8902,3.8753,3.9504,3.8964,3.8822,3.9704,3.975,4.0053,4.0923,4.1015,4.1025,4.1091,4.1097,4.1101,4.1107,4.0327,3.912,3.7437,3.6482,3.6002,3.5991,3.6723,3.669,3.5921,3.8272,3.8074,3.5679,3.7983,3.725,3.4267,3.5701,3.5822,3.5002,3.4927,3.5775,3.7096,3.6902,3.6443,3.5963,3.6366,3.5622,3.4374,3.9848,3.9624,3.9204,3.8431,3.809,3.7688,3.6941,3.6915,3.6805,3.6363,3.6349,3.6226,3.5757,3.5742,3.5906,3.6258,3.7307,3.8222,3.8917,3.9989,4.0611,4.0618,4.0916,4.1091,4.1102,4.1058,4.1047,4.1036,4.0968,4.0941,4.0941,4.0907,4.0917,4.0941,4.0912,4.0907,4.0888,4.0963,4.0954,4.0913,4.0974,4.0941,4.0859,4.0888,4.0867,4.0768,4.0447,4.0156,3.9871,3.986,3.931,3.8558,3.7986,3.7826,3.7666,3.6755,3.6081,3.5634,3.5662,3.5657,3.5626,3.5599,3.5558,3.554,3.5534,3.5528,3.5656,3.6222,3.6569,3.6961,3.757,3.8365,3.9032,3.9365,3.9644,3.9747,3.9549,3.9305,3.9289,3.9622,3.9657,3.9772,4.0156,4.0688,4.0803,4.0327,4.029,4.0294,4.0288,3.8993,3.7966,3.7324,3.6458,3.5995,3.5997,3.625,3.6223,3.5911,3.7351,3.7181,3.5646,3.709,3.6942,3.5591,3.622,3.6176,3.5693,3.6174,3.6664,3.7026,3.6419,3.6602,3.7001,3.5659,3.5089,3.4897,4.0038,4.0067,3.9831,3.9042,3.8974,3.8769,3.7994,3.7928,3.7702,3.6903,3.6856,3.6596,3.5796,3.5988,3.6323,3.6623,3.804,3.9012,3.9308,4.0435,4.1109,4.1106,4.1093,4.1102,4.1108,4.103,4.0987,4.0972,4.093,4.0893,4.0893,4.0888,4.0863,4.0864,4.0864,4.0864,4.0864,4.0927,4.0903,4.0869,4.0931,4.0922,4.0868,4.0877,4.0832,4.0798,4.0794,4.0628,4.0428,4.0661,4.0208,3.9434,3.8833,3.8301,3.7811,3.7403,3.6654,3.5973,3.5977,3.5952,3.5881,3.5566,3.5502,3.5495,3.5474,3.5453,3.5614,3.6225,3.654,3.6984,3.7906,3.8736,3.9353,3.9636,3.9985,4.0114,3.9825,3.9396,3.9234,3.9533,3.9345,3.9211,3.9256,3.9827,3.9952,3.9399,3.9372,3.9265,3.9002,3.7915,3.7166,3.6894,3.6306,3.6,3.599,3.6194,3.6306,3.6327,3.7102,3.6817,3.5626,3.6395,3.6349,3.5703,3.5931,3.6027,3.6084,3.6661,3.7099,3.7335,3.6701,3.6945,3.7472,3.5925,3.5546,3.5675,4.0176,4.0196,3.9929,3.9061,3.9029,3.8823,3.7953,3.7932,3.7721,3.6922,3.6882,3.6616,3.582,3.6535,3.7467,3.8416,3.9291,4.0168,4.1038,4.1094,4.1091,4.1094,4.1103,4.1099,4.1093,4.1033,4.0968,4.0909,4.0893,4.0902,4.0902,4.0837,4.0807,4.0807,4.0807,4.0807,4.0807,4.0807,4.0807,4.0812,4.0872,4.087,4.08,4.0796,4.0792,4.0797,4.0797,4.0249,3.9612,4.0345,4.0075,3.9406,3.9406,3.8303,3.7157,3.7887,3.7488,3.6807,3.6793,3.674,3.65,3.5692,3.55,3.5467,3.5412,3.5357,3.5323,3.5398,3.6111,3.6952,3.7846,3.8642,3.9469,4.0342,3.975,3.9503,4.0446,3.9153,3.846,3.9375,3.8775,3.8297,3.8292,3.8352,3.8397,3.8397,3.8458,3.8113,3.7244,3.7256,3.6893,3.6035,3.5991,3.5998,3.6019,3.6789,3.7181,3.7194,3.7938,3.7347,3.5621,3.6291,3.5626,3.3961,3.4704,3.5352,3.5929,3.6002,3.6908,3.8276,3.8141,3.7604,3.6976,3.7649,3.7387,3.6575,4.0186,4.0206,4.0148,3.9973,4.0023,3.9997,3.9722,3.9769,3.9532,3.8724,3.8191,3.7821,3.7622,3.6787,3.6852,3.838,3.8736,3.9511,4.0994,4.1105,4.1091,4.1101,4.1101,4.1074,4.1025,4.1006,4.0975,4.0888,4.0858,4.0826,4.0823,4.0818,4.0804,4.0807,4.0807,4.0796,4.0792,4.0796,4.0804,4.0808,4.0812,4.0812,4.0794,4.075,4.0732,4.0713,4.0681,4.0487,4.0307,4.0528,4.0439,4.0235,4.0246,3.9109,3.7823,3.8041,3.7885,3.7523,3.6953,3.6745,3.6476,3.5583,3.5405,3.5398,3.5281,3.5278,3.548,3.604,3.6385,3.6841,3.7755,3.8092,3.8326,3.8626,3.8458,3.8385,3.8666,3.836,3.8209,3.8473,3.8346,3.8019,3.7444,3.7998,3.8167,3.7595,3.7622,3.7277,3.6398,3.6376,3.6268,3.6016,3.5993,3.6297,3.6908,3.6495,3.6287,3.6284,3.6468,3.6207,3.5612,3.6344,3.6297,3.5706,3.6426,3.6822,3.6982,3.7535,3.7973,3.8288,3.8264,3.7685,3.6858,3.6435,3.6105,3.572,4.0272,4.0281,4.0298,4.0398,4.0468,4.0491,4.0503,4.0554,4.0195,3.9052,3.881,3.8544,3.7918,3.7591,3.7873,3.892,3.9328,3.9841,4.0585,4.0915,4.1109,4.1097,4.1069,4.1042,4.1003,4.0968,4.0927,4.0867,4.0798,4.0937,4.1261,4.0925,4.0937,4.1253,4.0934,4.0792,4.0802,4.0738,4.0751,4.0752,4.0726,4.0752,4.0758,4.072,4.0688,4.0649,4.0609,4.06,4.0605,4.0595,4.0603,4.0598,4.058,3.9644,3.8651,3.8998,3.8565,3.7901,3.7441,3.7259,3.6901,3.5652,3.5372,3.5364,3.5254,3.5262,3.5431,3.5932,3.602,3.6296,3.7182,3.7335,3.7442,3.7795,3.7885,3.7905,3.7936,3.7735,3.7591,3.7617,3.7409,3.7051,3.6578,3.7055,3.7215,3.6713,3.6744,3.6568,3.6031,3.6005,3.5993,3.5996,3.5993,3.6236,3.6746,3.6492,3.655,3.6871,3.6479,3.6193,3.6085,3.6484,3.6381,3.5909,3.6331,3.6832,3.74,3.7848,3.8147,3.8374,3.8664,3.8009,3.6913,3.6684,3.6342,3.5901,4.037,4.0407,4.0407,4.0415,4.0458,4.0491,4.051,4.0562,4.0044,3.8536,3.9024,3.8969,3.7516,3.8746,3.9739,3.9892,4.0635,4.0781,4.0053,4.0689,4.1093,4.1093,4.1033,4.1006,4.0983,4.0941,4.0872,4.0801,4.0732,4.1113,4.1879,4.1087,4.1119,4.1859,4.1132,4.079,4.0765,4.0661,4.0636,4.0681,4.0622,4.0647,4.0694,4.0687,4.0654,4.0607,4.0588,4.0605,4.058,4.058,4.058,4.058,4.0523,4.0,3.954,4.028,3.9406,3.8224,3.8199,3.8154,3.7721,3.613,3.5674,3.5571,3.5346,3.5297,3.5312,3.5312,3.5293,3.553,3.6273,3.6458,3.6742,3.7488,3.7647,3.7721,3.7777,3.7145,3.6723,3.6781,3.6207,3.581,3.5815,3.5876,3.5886,3.5795,3.5914,3.6007,3.5994,3.6007,3.5994,3.5996,3.6009,3.5973,3.5903,3.6625,3.7424,3.828,3.7492,3.6997,3.6794,3.6656,3.6053,3.5092,3.502,3.5883,3.7319,3.7297,3.7736,3.8481,3.9139,3.8384,3.6974,3.7661,3.7393,3.6628,4.037,4.0396,4.0413,4.0466,4.0487,4.0527,4.0577,4.0583,4.0486,4.0185,3.9807,3.9728,4.0092,3.9279,3.9271,4.0688,4.0994,4.1033,4.0854,4.1002,4.1093,4.1093,4.1039,4.0976,4.0921,4.0902,4.0863,4.0806,4.0788,4.088,4.1055,4.0868,4.0849,4.0971,4.0791,4.0681,4.0635,4.0668,4.0661,4.0615,4.0621,4.0614,4.0621,4.0624,4.061,4.0603,4.06,4.0571,4.0523,4.0523,4.0523,4.0523,4.0496,4.0389,4.0146,3.9706,3.9754,3.9804,3.9135,3.8954,3.8839,3.8407,3.7871,3.706,3.5553,3.525,3.5312,3.5312,3.5339,3.5444,3.5661,3.5739,3.5803,3.6035,3.6087,3.6093,3.6113,3.5969,3.5892,3.5955,3.5875,3.5818,3.5872,3.5943,3.5697,3.502,3.5607,3.6007,3.6008,3.5994,3.5996,3.6009,3.5996,3.597,3.5903,3.602,3.6498,3.7311,3.7732,3.7513,3.672,3.6646,3.6088,3.5183,3.5001,3.5894,3.7449,3.7333,3.7769,3.8482,3.8602,3.761,3.6145,3.6255,3.6145,3.6009,3.9849,3.9546,3.9273,3.935,3.9353,3.9509,3.9955,4.0034,4.0056,4.0127,4.0148,4.0228,4.0365,3.9961,3.9758,3.9885,4.0644,4.0759,3.9955,4.065,4.1091,4.1106,4.1032,4.0975,4.0893,4.0864,4.0842,4.0794,4.0763,4.0971,4.1364,4.0907,4.0899,4.1205,4.0821,4.0633,4.0598,4.0564,4.0557,4.0557,4.0512,4.0523,4.0546,4.0546,4.0546,4.0546,4.0549,4.0542,4.0539,4.0504,4.0523,4.0539,4.0504,4.0496,4.0427,4.0034,3.9634,3.9219,3.8799,3.8649,3.8531,3.8112,3.83,3.8158,3.6324,3.5941,3.5856,3.5441,3.5402,3.5457,3.5483,3.5206,3.4971,3.4979,3.5013,3.5041,3.5041,3.5417,3.5703,3.5732,3.5433,3.5087,3.4733,3.5126,3.5024,3.4142,3.5269,3.582,3.541,3.5761,3.6009,3.5995,3.5972,3.5914,3.5849,3.6209,3.6581,3.6966,3.735,3.745,3.7267,3.7202,3.6629,3.5709,3.5618,3.6055,3.6822,3.6768,3.7206,3.792,3.7887,3.7069,3.5893,3.5859,3.5533,3.5221,3.9309,3.8604,3.8071,3.8279,3.8317,3.8613,3.9488,3.9623,3.9657,3.9713,4.0353,4.0582,4.0,4.0629,4.0487,3.8939,4.0215,4.0445,3.8919,4.0256,4.1106,4.1095,4.1048,4.0963,4.0902,4.0842,4.0809,4.0782,4.0739,4.1074,4.1756,4.0975,4.0952,4.157,4.0887,4.0583,4.055,4.0449,4.0449,4.05,4.0447,4.0458,4.0499,4.05,4.0496,4.0496,4.0504,4.0546,4.058,4.0523,4.0531,4.0573,4.0531,4.0504,4.0504,4.058,3.9463,3.8224,3.8281,3.8154,3.7865,3.7338,3.8274,3.8945,3.75,3.6923,3.6463,3.5611,3.547,3.5475,3.5347,3.4958,3.4618,3.4577,3.4473,3.4419,3.4419,3.4967,3.5364,3.5366,3.4795,3.4066,3.3254,3.3978,3.4119,3.3239,3.4785,3.5408,3.4528,3.5459,3.5935,3.5779,3.5841,3.5866,3.5791,3.643,3.6729,3.6676,3.6601,3.6958,3.7698,3.7595,3.7035,3.6119,3.6093,3.6103,3.6119,3.6116,3.6491,3.7082,3.7071,3.6529,3.5703,3.5692,3.5277,3.4798,3.9364,3.8637,3.8264,3.9089,3.9231,3.9507,4.0397,4.0513,4.0539,4.0628,4.0787,4.0874,4.0832,4.0996,4.0709,3.9724,4.0525,4.0711,3.9774,4.058,4.1098,4.1095,4.1048,4.0963,4.0902,4.0897,4.0829,4.0713,4.0707,4.0758,4.0867,4.0686,4.067,4.0761,4.0577,4.0484,4.0441,4.0408,4.0444,4.0499,4.0484,4.0481,4.0508,4.0496,4.0496,4.0516,4.0565,4.058,4.058,4.0523,4.0516,4.0523,4.0573,4.0558,4.0504,4.058,3.9892,3.9104,3.9066,3.8546,3.814,3.8727,3.9126,3.932,3.9084,3.7874,3.6556,3.5739,3.5587,3.5386,3.4758,3.5165,3.56,3.5594,3.4979,3.449,3.449,3.4004,3.3638,3.365,3.3587,3.3214,3.2359,3.3066,3.3203,3.2342,3.3883,3.4503,3.3611,3.5128,3.5621,3.4808,3.5464,3.5803,3.5808,3.5789,3.5774,3.5777,3.5655,3.6041,3.6864,3.6676,3.6131,3.5337,3.5227,3.559,3.6264,3.6148,3.6163,3.6257,3.6195,3.5665,3.4938,3.4824,3.5109,3.5637,3.8704,3.7617,3.6935,3.7854,3.7996,3.8466,3.9818,4.003,4.0234,4.0782,4.0878,4.0943,4.1036,4.1081,4.0562,3.9236,4.0347,4.0549,3.9264,4.0383,4.1073,4.1042,4.0972,4.0906,4.0848,4.0809,4.0732,4.0635,4.0726,4.0733,4.07,4.0628,4.0579,4.0539,4.0511,4.0455,4.0407,4.0394,4.0422,4.0449,4.0479,4.0492,4.0496,4.0496,4.0531,4.0565,4.058,4.0607,4.0607,4.0573,4.0565,4.0546,4.0558,4.0539,4.0565,4.058,4.0017,3.9247,3.8724,3.8322,3.8041,3.7944,3.8325,3.8748,3.8781,3.7837,3.685,3.6468,3.6028,3.562,3.529,3.4788,3.4393,3.439,3.3693,3.3164,3.3164,3.3698,3.4089,3.4082,3.3686,3.3066,3.2187,3.2459,3.2316,3.1432,3.2985,3.3793,3.3364,3.4545,3.5229,3.5269,3.5578,3.5736,3.5684,3.5587,3.5553,3.5598,3.542,3.5795,3.6642,3.6504,3.6209,3.5812,3.5741,3.5647,3.5524,3.5496,3.5467,3.5428,3.5447,3.521,3.4894,3.5163,3.5188,3.5188]}]]